Date StartTime U_cm/s V_cm/s W_cm/s Ustd_cm/s Vstd_cm/s Wstd_cm/s Uvar_(cm/s)^2 Vvar_(cm/s)^2 Wvar_(cm/s)^2 KE_(m/s)^2 TurbulentKE_(m/s)^2 HorizWindSpeed_cm/s FrictionSpeec_cm/s DragCoef SpeedOfSound_m/s SonicTemperature_C Pressure_mb 
12/11/2014  00:00:00      -38.982      -91.345        9.572       72.737       71.802       47.341     5290.698     5155.475     2241.179        1.132        0.634       99.316       38.042        0.147      339.888       13.530      852.988
12/11/2014  00:01:00       42.542     -169.659       17.252       81.275      122.519       60.619     6605.673    15011.010     3674.683        2.809        1.265      174.911       53.278        0.093      340.137       13.948      852.961
12/11/2014  00:02:00       41.285      -77.059       38.801       97.114      129.470       55.145     9431.105    16762.586     3040.956        1.919        1.462       87.421       56.388        0.416      339.909       13.565      852.978
12/11/2014  00:03:00       -3.907     -221.664      -22.763      128.243      114.070       57.892    16446.315    13011.999     3351.524        4.123        1.640      221.698       59.978        0.073      340.092       13.869      853.050
12/11/2014  00:04:00      -37.702     -206.974       -9.088       96.051      111.954       54.959     9225.824    12533.774     3020.513        3.456        1.239      210.380       34.279        0.027      340.158       13.983      853.028
12/11/2014  00:05:00      -75.142      -87.817        6.194       78.330       74.726       43.762     6135.557     5584.035     1915.127        1.351        0.682      115.577       41.669        0.130      340.034       13.775      852.934
12/11/2014  00:06:00       -8.964     -131.128       -5.030       68.992       49.554       42.466     4759.961     2455.586     1803.330        1.316        0.451      131.434       24.840        0.036      340.166       14.000      852.869
12/11/2014  00:07:00      -28.577     -148.863       23.275      139.465       85.456       50.056    19450.443     7302.756     2505.613        2.638        1.463      151.581       54.641        0.130      340.176       14.015      852.798
12/11/2014  00:08:00       -8.806     -106.884        1.131       76.159      112.120       60.901     5800.144    12570.927     3708.970        1.679        1.104      107.247       62.121        0.336      340.113       13.909      852.697
12/11/2014  00:09:00       -1.517     -209.906       26.949      110.729      161.463       69.507    12260.847    26070.265     4831.205        4.397        2.158      209.912       67.265        0.103      340.235       14.114      852.600
12/11/2014  00:10:00      -28.223      -67.969       11.518       61.585       78.584       43.667     3792.664     6175.430     1906.805        0.871        0.594       73.595       31.220        0.180      340.098       13.882      852.549
12/11/2014  00:11:00       54.587     -108.722       -3.559       87.133       76.962       32.563     7592.234     5923.104     1060.335        1.469        0.729      121.656       19.077        0.025      340.167       14.000      852.533
12/11/2014  00:12:00       12.036     -158.060      -19.626      131.544       98.591       54.073    17303.703     9720.241     2923.844        2.772        1.497      158.517       51.787        0.107      340.099       13.885      852.496
12/11/2014  00:13:00      -12.399     -110.648       -8.666       88.634       66.036       49.934     7855.946     4360.762     2493.384        1.359        0.736      111.341       37.356        0.113      340.074       13.843      852.470
12/11/2014  00:14:00      -21.742      -39.955       -1.268       40.818       37.812       28.875     1666.140     1429.731      833.761        0.300        0.196       45.488       22.261        0.239      339.977       13.681      852.439
12/11/2014  00:15:00      -78.256      -59.375       15.853       94.653       89.998       44.808     8959.119     8099.583     2007.765        1.448        0.953       98.231       57.006        0.337      339.962       13.654      852.434
12/11/2014  00:16:00      -62.056     -216.054       -5.227      105.623      120.700       58.086    11156.241    14568.490     3373.989        3.982        1.455      224.789       56.129        0.062      340.243       14.127      852.424
12/11/2014  00:17:00      -24.782     -174.916       13.609       93.318      136.762       67.017     8708.233    18703.875     4491.287        3.164        1.595      176.663       73.710        0.174      340.220       14.088      852.358
12/11/2014  00:18:00       58.293     -125.630        0.392       61.313       89.195       41.427     3759.251     7955.739     1716.158        1.630        0.672      138.495       39.706        0.082      340.244       14.130      852.304
12/11/2014  00:19:00      -12.242      -45.271       16.893       49.159       50.633       26.156     2416.560     2563.666      684.121        0.407        0.283       46.897       24.418        0.271      340.098       13.883      852.279
12/11/2014  00:20:00      -20.404     -150.423       -6.546       70.291      107.389       51.472     4940.870    11532.358     2649.401        2.110        0.956      151.801       49.137        0.105      340.217       14.084      852.235
12/11/2014  00:21:00      -91.518      -65.696        4.358       85.497       72.089       45.157     7309.705     5196.772     2039.161        1.363        0.727      112.657       42.226        0.140      340.115       13.911      852.115
12/11/2014  00:22:00       59.932     -222.832       -0.141      143.165      143.858       75.396    20496.145    20695.025     5684.578        5.005        2.344      230.751       62.423        0.073      340.279       14.187      852.051
12/11/2014  00:23:00      114.003      -74.696       19.222      119.423       85.602       63.872    14261.796     7327.779     4079.583        2.230        1.283      136.295       53.627        0.155      340.209       14.070      852.023
12/11/2014  00:24:00      -49.029     -229.685      -12.322      156.052      102.910       63.070    24352.225    10590.429     3977.793        4.711        1.946      234.860       50.692        0.047      340.355       14.316      851.960
12/11/2014  00:25:00       73.412     -119.003        1.302       97.845      101.338       56.932     9573.739    10269.308     3241.244        2.131        1.154      139.825       63.688        0.207      340.248       14.135      851.938
12/11/2014  00:26:00      -95.128     -110.459       -4.507       63.844       81.570       49.991     4076.013     6653.623     2499.129        1.725        0.661      145.775       39.717        0.074      340.206       14.064      851.909
12/11/2014  00:27:00       29.694     -152.773       -7.751       84.788       84.643       52.969     7188.958     7164.483     2805.697        2.072        0.858      155.632       41.606        0.071      340.240       14.122      851.929
12/11/2014  00:28:00      -22.728     -130.462        1.719      136.807       94.442       63.078    18716.026     8919.262     3978.865        2.457        1.581      132.427       45.687        0.119      340.321       14.259      851.946
12/11/2014  00:29:00       32.090     -201.304       -6.116      127.567      136.202       78.566    16273.253    18550.989     6172.562        4.129        2.050      203.846       65.207        0.102      340.397       14.387      851.853
12/11/2014  00:30:00       35.215     -140.733       -5.612       86.897       74.758       56.714     7551.066     5588.824     3216.522        1.871        0.818      145.072       48.749        0.113      340.287       14.203      851.812
12/11/2014  00:31:00       44.815      -97.287       14.231      103.052       75.368       67.200    10619.751     5680.410     4515.860        1.624        1.041      107.113       44.631        0.174      340.263       14.160      851.865
12/11/2014  00:32:00      -52.996      -69.790       10.285       59.827       64.752       53.031     3579.309     4192.815     2812.299        0.918        0.529       87.631       43.734        0.249      340.251       14.143      851.927
12/11/2014  00:33:00       66.519     -130.030        7.235       70.168      134.929       82.632     4923.560    18205.721     6828.058        2.567        1.498      146.056       84.121        0.332      340.246       14.131      851.948
12/11/2014  00:34:00       54.107     -213.442      -13.966      140.182      126.692       81.412    19651.092    16050.974     6627.918        4.550        2.116      220.193       78.988        0.129      340.355       14.315      851.991
12/11/2014  00:35:00      -43.430     -271.044      -11.079      140.791      142.509       64.348    19822.050    20308.782     4140.672        5.986        2.214      274.502       37.949        0.019      340.457       14.487      852.055
12/11/2014  00:36:00       -9.315      -88.244       25.695       86.054       78.520       43.367     7405.342     6165.429     1880.737        1.199        0.773       88.734       45.736        0.266      340.304       14.232      852.107
12/11/2014  00:37:00      -42.197     -177.075        0.929       92.936       93.802       52.044     8637.061     8798.734     2708.531        2.664        1.007      182.033       43.597        0.057      340.382       14.361      852.119
12/11/2014  00:38:00       44.386     -177.107        2.941      121.531       93.383       56.543    14769.852     8720.314     3197.096        3.001        1.334      182.584       41.775        0.052      340.392       14.378      852.144
12/11/2014  00:39:00      -74.248     -171.448       21.980      113.902      143.296       73.216    12973.579    20533.778     5360.524        3.712        1.943      186.834       24.463        0.017      340.416       14.419      852.198
12/11/2014  00:40:00      -61.611     -198.612       -3.562      115.421      151.858       77.735    13322.003    23060.781     6042.755        4.283        2.121      207.949       82.463        0.157      340.487       14.539      852.192
12/11/2014  00:41:00     -109.452     -123.683       -0.629      114.135       70.207       59.166    13026.809     4929.068     3500.644        2.436        1.073      165.158       25.561        0.024      340.392       14.379      852.190
12/11/2014  00:42:00       30.319     -145.371      -10.891       85.892       82.628       50.468     7377.362     6827.320     2546.984        1.946        0.838      148.499       39.422        0.070      340.458       14.490      852.169
12/11/2014  00:43:00       87.783     -296.549        0.009      128.544      140.593       97.164    16523.529    19766.512     9440.768        7.068        2.287      309.269       60.393        0.038      340.478       14.522      852.195
12/11/2014  00:44:00       21.208     -199.727      -15.775      135.037      139.542       71.002    18235.014    19471.977     5041.250        4.166        2.137      200.850       76.736        0.146      340.428       14.438      852.229
12/11/2014  00:45:00        7.303     -214.612      -11.277      129.349      100.583       59.410    16731.176    10117.002     3529.604        3.830        1.519      214.736       36.338        0.029      340.528       14.607      852.238
12/11/2014  00:46:00       75.111     -219.303       -9.020       98.672      120.710       75.597     9736.096    14570.887     5714.970        4.191        1.501      231.809       64.980        0.079      340.475       14.519      852.204
12/11/2014  00:47:00      -23.869     -211.277       15.749      134.662      191.580       73.198    18133.872    36702.867     5357.954        5.281        3.010      212.621       92.827        0.191      340.552       14.649      852.158
12/11/2014  00:48:00      167.995     -206.746       22.980      114.008      201.685       94.880    12997.856    40676.740     9002.195        6.707        3.134      266.395      118.950        0.199      340.488       14.541      852.138
12/11/2014  00:49:00      166.569     -221.307      -36.138      116.297      180.394       92.728    13524.979    32542.084     8598.483        6.634        2.733      276.988       88.643        0.102      340.435       14.452      852.105
12/11/2014  00:50:00       59.732      -32.762       73.795      108.349      106.596       76.425    11739.543    11362.616     5840.777        1.951        1.447       68.127       69.631        1.045      340.363       14.331      852.103
12/11/2014  00:51:00       25.055     -140.390        1.307      109.484       85.718       65.658    11986.753     7347.651     4310.999        2.199        1.182      142.609       45.794        0.103      340.390       14.375      852.092
12/11/2014  00:52:00      128.690     -194.425       -3.588      157.035      104.925       62.144    24660.033    11009.272     3861.876        4.695        1.977      233.157       70.699        0.092      340.371       14.343      852.129
12/11/2014  00:53:00       -5.890     -176.949      -10.632      107.396       85.899       57.541    11533.849     7378.598     3310.930        2.684        1.111      177.047       33.177        0.035      340.408       14.406      852.195
12/11/2014  00:54:00      -74.546     -148.113       -2.466      108.780       87.856       61.003    11833.019     7718.683     3721.422        2.538        1.164      165.815       44.067        0.071      340.400       14.392      852.171
12/11/2014  00:55:00      -67.929     -221.270      -41.036       99.534      130.608       61.549     9907.029    17058.567     3788.277        4.300        1.538      231.462       39.771        0.030      340.443       14.465      852.118
12/11/2014  00:56:00      -61.949     -259.318       -5.688      123.963      124.085       82.253    15366.786    15397.003     6765.624        5.431        1.876      266.615       74.313        0.078      340.502       14.564      852.110
12/11/2014  00:57:00       14.618     -153.592        3.564      100.532       97.836       55.404    10106.671     9571.820     3069.580        2.328        1.137      154.286       52.897        0.118      340.564       14.669      852.059
12/11/2014  00:58:00      104.961     -153.224       -0.631      121.351      121.091       71.664    14726.037    14662.964     5135.673        3.450        1.726      185.727       71.431        0.148      340.489       14.544      851.967
12/11/2014  00:59:00      -41.631     -133.649        4.729       82.727      100.856       52.774     6843.834    10171.971     2785.145        1.971        0.990      139.982       52.820        0.142      340.474       14.517      851.886
12/11/2014  01:00:00       70.438     -214.508        1.709      145.071      149.787       68.405    21045.572    22436.286     4679.279        4.956        2.408      225.776       82.953        0.135      340.372       14.343      851.877
12/11/2014  01:01:00       48.909      -47.029       72.041      105.225      151.118      103.701    11072.398    22836.700    10753.890        2.722        2.233       67.851      121.041        3.182      340.326       14.268      851.864
12/11/2014  01:02:00      130.037      -42.205      121.161      170.998      231.948      173.738    29240.346    53799.861    30184.993        7.328        5.661      136.714      181.558        1.764      340.407       14.403      851.810
12/11/2014  01:03:00       96.724     -101.073       50.004      107.871      129.397       83.991    11636.182    16743.686     7054.448        2.875        1.772      139.897       84.874        0.368      340.391       14.377      851.866
12/11/2014  01:04:00       88.617     -104.241       63.740      112.505      168.634       92.175    12657.280    28437.569     8496.262        3.618        2.480      136.818      108.656        0.631      340.479       14.525      851.857
12/11/2014  01:05:00      131.262     -163.082       58.986       98.854      234.327       95.481     9772.141    54909.353     9116.696        6.054        3.690      209.346      122.646        0.343      340.637       14.792      851.851
12/11/2014  01:06:00       79.840     -125.947       57.039      114.469      198.058      108.889    13103.137    39226.793    11856.715        4.483        3.209      149.121      119.082        0.638      340.546       14.637      851.834
12/11/2014  01:07:00      144.474     -178.870        1.961      120.136       83.402       58.259    14432.763     6955.928     3394.077        3.882        1.239      229.929       43.761        0.036      340.536       14.621      851.887
12/11/2014  01:08:00       -0.435      -96.771        1.795       73.810       63.946       40.185     5447.966     4089.101     1614.865        1.026        0.558       96.772       37.476        0.150      340.487       14.541      851.942
12/11/2014  01:09:00      -32.763     -241.499       -5.053      119.913      126.386       58.849    14379.068    15973.298     3463.216        4.661        1.691      243.711       47.873        0.039      340.507       14.573      851.992
12/11/2014  01:10:00      119.323     -244.050      -17.698      113.703       87.215       64.897    12928.455     7606.534     4211.635        4.942        1.237      271.659       54.285        0.040      340.614       14.753      852.057
12/11/2014  01:11:00      -38.879     -152.212       -0.066      125.373      121.577       52.012    15718.314    14780.953     2705.224        2.894        1.660      157.099       48.922        0.097      340.473       14.516      852.034
12/11/2014  01:12:00       17.176      -86.272       27.970      122.024      121.170       64.624    14889.760    14682.171     4176.234        2.113        1.687       87.965       57.974        0.434      340.575       14.689      851.991
12/11/2014  01:13:00      -23.056     -132.880        4.619       49.962       79.173       47.072     2496.197     6268.285     2215.746        1.459        0.549      134.865       35.899        0.071      340.492       14.550      851.961
12/11/2014  01:14:00      -32.322     -161.896       19.521      110.980      124.518       56.624    12316.639    15504.828     3206.221        2.933        1.551      165.091       56.000        0.115      340.582       14.699      851.965
12/11/2014  01:15:00       69.833     -127.545      -11.485      130.085      113.228       59.291    16921.984    12820.683     3515.386        2.726        1.663      145.411       48.163        0.110      340.428       14.441      851.988
12/11/2014  01:16:00      195.388     -284.867        1.260      182.898      226.691      117.086    33451.573    51388.900    13709.156       10.892        4.927      345.436      140.180        0.165      340.509       14.574      851.927
12/11/2014  01:17:00      182.576     -261.907       13.551      130.947      195.525       95.812    17147.136    38230.098     9179.892        8.332        3.228      319.264      104.495        0.107      340.496       14.555      851.917
12/11/2014  01:18:00      150.049     -266.212      -12.170      198.641      247.247      133.341    39458.181    61131.157    17779.833       10.593        5.918      305.587      148.017        0.235      340.585       14.704      851.885
12/11/2014  01:19:00      -11.790      -31.560      103.887       69.659      124.561       73.740     4852.383    15515.343     5437.561        1.886        1.290       33.690       76.364        5.138      340.417       14.422      851.847
12/11/2014  01:20:00       66.873     -129.112        2.756       91.871      108.799       68.799     8440.266    11837.125     4733.237        2.307        1.251      145.402       75.066        0.267      340.439       14.458      851.805
12/11/2014  01:21:00       99.477     -189.816       27.021      113.751      190.239       74.951    12939.229    36191.042     5617.688        5.069        2.737      214.303       88.588        0.171      340.521       14.595      851.802
12/11/2014  01:22:00       35.622     -225.938      -25.577      180.133      125.290       65.167    32447.720    15697.531     4246.688        5.267        2.620      228.729       58.090        0.064      340.520       14.596      851.831
12/11/2014  01:23:00      -58.808     -198.166        1.625      145.113      154.460       74.132    21057.791    23857.802     5495.609        4.656        2.521      206.708       75.043        0.132      340.651       14.817      851.897
12/11/2014  01:24:00       42.888     -180.762        9.166      127.974       86.030       54.386    16377.391     7401.172     2957.841        3.066        1.337      185.781       30.134        0.026      340.635       14.789      851.835
12/11/2014  01:25:00       40.710     -153.254        1.361      114.214      137.729       56.788    13044.935    18969.142     3224.903        3.019        1.762      158.569       61.591        0.151      340.622       14.769      851.686
12/11/2014  01:26:00       71.564     -311.888       -9.326      146.436      146.984       80.817    21443.581    21604.185     6531.468        7.602        2.479      319.993       63.720        0.040      340.721       14.934      851.567
12/11/2014  01:27:00      179.782     -294.372        0.790      134.312      197.791       89.970    18039.608    39121.254     8094.513        9.210        3.263      344.929       89.665        0.068      340.608       14.742      851.503
12/11/2014  01:28:00      173.259     -257.036      -15.722      116.267      131.713       87.939    13517.918    17348.337     7733.303        6.746        1.930      309.978       50.161        0.026      340.588       14.710      851.400
12/11/2014  01:29:00      177.092     -338.659        7.669      127.959      184.300       76.798    16373.552    33966.549     5897.960       10.116        2.812      382.167       71.998        0.035      340.632       14.784      851.360
12/11/2014  01:30:00      126.844     -187.684        8.834      140.578      191.375       96.750    19762.173    36624.437     9360.581        5.856        3.287      226.528      107.152        0.224      340.678       14.862      851.254
12/11/2014  01:31:00       60.298      -22.265       96.832      109.727      131.059       97.649    12039.960    17176.570     9535.388        2.612        1.938       64.278       92.442        2.068      340.480       14.528      851.150
12/11/2014  01:32:00      121.553     -249.769       21.722      134.162      169.179       98.035    17999.572    28621.691     9610.768        6.692        2.812      277.777      102.166        0.135      340.579       14.693      851.131
12/11/2014  01:33:00       23.045     -133.368       66.594      118.397      194.144      117.225    14017.766    37691.910    13741.659        4.409        3.273      135.344      132.493        0.958      340.571       14.681      851.160
12/11/2014  01:34:00       70.911     -148.046       12.708      137.591      107.571       55.245    18931.375    11571.510     3052.056        3.032        1.678      164.153       58.655        0.128      340.542       14.632      851.249
12/11/2014  01:35:00       93.914     -140.103       22.777       97.377      111.881       73.408     9482.187    12517.457     5388.696        2.817        1.369      168.667       69.133        0.168      340.579       14.695      851.220
12/11/2014  01:36:00      165.910     -151.036       62.604      198.001      215.950       92.496    39204.316    46634.520     8555.562        7.431        4.720      224.361      135.209        0.363      340.602       14.733      851.161
12/11/2014  01:37:00        8.972       -0.970      125.758       99.979      178.821      118.635     9995.898    31976.960    14074.257        3.596        2.802        9.024      119.588      175.614      340.545       14.637      851.161
12/11/2014  01:38:00      242.287     -392.139      -18.035      143.089      184.369       93.425    20474.553    33992.081     8728.283       13.799        3.160      460.952       86.546        0.035      340.743       14.972      851.204
12/11/2014  01:39:00      123.870     -202.869       44.678      161.258      205.167      142.767    26004.148    42093.515    20382.555        7.347        4.424      237.697      144.330        0.369      340.762       15.003      851.197
12/11/2014  01:40:00      131.201     -221.908       39.507      159.299      208.104       94.111    25376.233    43307.161     8856.839        7.276        3.877      257.792      108.748        0.178      340.779       15.032      851.287
12/11/2014  01:41:00      155.436     -184.661        7.177      146.732      174.817       82.833    21530.283    30560.835     6861.327        5.862        2.948      241.371       84.013        0.121      340.771       15.021      851.315
12/11/2014  01:42:00      139.438     -132.939      116.477      171.676      265.793      133.782    29472.610    70646.085    17897.495        8.433        5.901      192.655      152.999        0.631      340.886       15.214      851.269
12/11/2014  01:43:00      139.542     -175.311       85.171      169.047      282.075      158.212    28576.920    79566.131    25031.033        9.529        6.659      224.067      189.417        0.715      340.940       15.304      851.059
12/11/2014  01:44:00      127.943     -158.941       60.916      142.789      241.451      136.936    20388.659    58298.545    18751.398        7.137        4.872      204.039      157.390        0.595      340.900       15.235      851.018
12/11/2014  01:45:00       96.004     -245.585       59.278      158.626      247.331      136.195    25162.225    61172.458    18549.017        8.894        5.244      263.683      159.163        0.364      340.870       15.185      851.059
12/11/2014  01:46:00      175.305     -306.526       -6.653      140.223      210.431      103.986    19662.430    44281.006    10813.037        9.973        3.738      353.114      110.368        0.098      340.822       15.105      851.180
12/11/2014  01:47:00        8.741     -197.577       24.997      119.656      141.366       86.240    14317.520    19984.448     7437.308        4.073        2.087      197.770       83.715        0.179      340.815       15.094      851.357
12/11/2014  01:48:00      148.894     -266.819      -12.048      169.271      194.907       98.967    28652.811    37988.805     9794.484        8.496        3.822      305.551       96.138        0.099      340.873       15.191      851.350
12/11/2014  01:49:00      142.184     -189.462       37.365      196.285      233.394      145.462    38527.877    54472.686    21159.157        8.581        5.708      236.880      173.271        0.535      340.949       15.320      851.267
12/11/2014  01:50:00       43.087      -52.191       70.647       80.450      129.775       81.817     6472.124    16841.536     6693.978        1.978        1.500       67.678       82.775        1.496      340.916       15.265      851.229
12/11/2014  01:51:00       99.731      -18.679      136.612      151.223      286.908      173.374    22868.477    82315.968    30058.676        8.207        6.762      101.466      203.374        4.017      340.950       15.322      851.196
12/11/2014  01:52:00      114.300     -127.374      101.922      155.150      191.463      120.171    24071.453    36658.180    14440.967        5.741        3.759      171.139      128.423        0.563      340.941       15.306      851.242
12/11/2014  01:53:00       82.886     -209.320       50.710      180.026      293.325      146.296    32409.524    86039.474    21402.637        9.653        6.993      225.133      172.693        0.588      341.007       15.418      851.224
12/11/2014  01:54:00      162.920     -229.699       40.544      141.210      197.935      103.578    19940.338    39178.280    10728.394        7.538        3.492      281.611       96.766        0.118      340.984       15.380      851.285
12/11/2014  01:55:00       76.106     -158.198       20.877      112.554      132.344       68.437    12668.433    17515.058     4683.663        3.305        1.743      175.553       72.394        0.170      341.026       15.451      851.237
12/11/2014  01:56:00       55.333     -155.616       30.304      170.734      138.180       81.497    29150.117    19093.627     6641.707        4.153        2.744      165.161       65.826        0.159      341.113       15.600      851.260
12/11/2014  01:57:00      151.261     -260.390        8.971      151.876      184.715       82.709    23066.283    34119.502     6840.702        7.738        3.201      301.135      103.007        0.117      341.119       15.607      851.294
12/11/2014  01:58:00      107.473     -176.415      -21.928      163.639      137.685       91.922    26777.698    18957.116     8449.676        4.866        2.709      206.574       72.259        0.122      341.046       15.484      851.306
12/11/2014  01:59:00       66.441     -223.185       21.566      111.967      234.838      104.763    12536.624    55149.056    10975.315        6.666        3.933      232.864      118.500        0.259      341.072       15.529      851.295
12/11/2014  02:00:00       26.963       -9.533      105.873      105.756      158.039       90.164    11184.428    24976.347     8129.596        2.815        2.215       28.598      103.545       13.109      340.986       15.385      851.167
12/11/2014  02:01:00       87.593     -167.055        3.310      140.106      195.277       76.369    19629.778    38133.136     5832.173        4.958        3.180      188.627       88.400        0.220      340.961       15.340      851.205
12/11/2014  02:02:00      206.874     -342.346       49.055      191.396      318.173      127.645    36632.417   101234.019    16293.248       15.825        7.708      399.997      150.805        0.142      341.070       15.525      851.306
12/11/2014  02:03:00      104.543     -187.055       78.229      167.819      277.243      159.062    28163.225    76863.441    25300.581        9.116        6.516      214.287      189.683        0.784      341.089       15.557      851.268
12/11/2014  02:04:00       92.384     -107.904       55.989      112.660      201.912      107.334    12692.167    40768.437    11520.591        4.413        3.249      142.049      124.180        0.764      341.092       15.563      851.296
12/11/2014  02:05:00       20.050     -137.825       54.902      116.998      192.992       94.506    13688.424    37245.755     8931.406        4.113        2.993      139.275      112.376        0.651      341.022       15.445      851.405
12/11/2014  02:06:00       94.725     -199.269        6.389      223.357      317.675       90.554    49888.563   100917.462     8200.060       10.383        7.950      220.638      118.867        0.290      341.010       15.425      851.328
12/11/2014  02:07:00      214.190     -369.550        9.012      195.186      269.099      153.248    38097.715    72414.051    23484.935       15.823        6.700      427.135      156.363        0.134      341.141       15.643      851.309
12/11/2014  02:08:00      192.058     -276.908       29.039      176.818      245.105      139.765    31264.554    60076.278    19534.301       11.262        5.544      336.993      161.957        0.231      341.055       15.500      851.226
12/11/2014  02:09:00      159.483     -221.954       95.055      232.334      308.973      167.838    53978.959    95464.271    28169.494       13.064        8.881      273.310      194.223        0.505      341.030       15.458      851.351
12/11/2014  02:10:00       91.445      -89.261      201.592      237.490      281.130      179.609    56401.389    79034.130    32259.295       11.230        8.385      127.788      187.947        2.163      341.073       15.530      851.556
12/11/2014  02:11:00      276.056     -163.618       79.136      214.086      318.857      174.483    45832.643   101669.905    30444.151       14.356        8.897      320.902      213.380        0.442      341.201       15.747      851.649
12/11/2014  02:12:00      281.199     -314.340      111.297      241.617      472.598      233.573    58378.592   223348.652    54556.278       26.321       16.814      421.761      308.322        0.534      341.198       15.740      851.523
12/11/2014  02:13:00      188.331     -230.285      100.889      261.539      403.860      217.985    68402.510   163102.858    47517.245       18.879       13.951      297.489      282.814        0.904      341.152       15.664      851.522
12/11/2014  02:14:00      137.656       69.688      263.537      246.827      334.876      226.978    60923.354   112141.977    51519.236       15.888       11.229      154.291      259.506        2.829      341.301       15.915      851.523
12/11/2014  02:15:00      127.678     -164.064       54.617      175.050      235.302      154.299    30642.337    55366.958    23808.215        7.799        5.491      207.891      148.100        0.508      341.276       15.873      851.683
12/11/2014  02:16:00      207.685     -296.373       13.570      178.365      250.120       98.889    31813.968    62559.918     9778.960       11.763        5.208      361.897      110.134        0.093      341.249       15.828      851.734
12/11/2014  02:17:00      158.419     -221.663       56.982      217.365      291.573      154.931    47247.484    85015.041    24003.662       11.684        7.813      272.454      185.116        0.462      341.201       15.746      851.525
12/11/2014  02:18:00       32.659      -68.689      140.054      178.683      248.759      157.317    31927.460    61880.800    24748.620        7.195        5.928       76.058      172.208        5.127      341.164       15.683      851.552
12/11/2014  02:19:00       92.797      -19.057      192.866      164.298      274.585      160.288    26993.792    75396.966    25692.347        8.710        6.404       94.733      169.793        3.212      341.155       15.669      851.655
12/11/2014  02:20:00      191.598     -322.963       41.934      236.919      258.264      146.250    56130.632    66700.483    21389.128       14.347        7.211      375.519      144.069        0.147      341.246       15.822      851.819
12/11/2014  02:21:00       46.127     -441.432      -17.364      212.316      208.291      110.936    45077.882    43385.072    12306.733       14.901        5.038      443.835      105.822        0.057      341.311       15.932      852.061
12/11/2014  02:22:00     -109.560      -87.162        3.872      112.491      167.534       69.636    12654.319    28067.617     4849.198        3.258        2.279      140.002       65.539        0.219      341.315       15.940      851.933
12/11/2014  02:23:00       34.792     -141.495        5.744       82.274      114.957       57.612     6769.011    13215.071     3319.127        2.228        1.165      145.710       57.146        0.154      341.246       15.824      851.829
12/11/2014  02:24:00      153.703     -230.115        6.797      141.112      194.608       99.716    19912.504    37872.084     9943.204        7.216        3.386      276.726      102.560        0.137      341.210       15.762      851.782
12/11/2014  02:25:00       34.099     -123.259       21.374      145.991      126.518       67.339    21313.477    16006.737     4534.601        2.933        2.093      127.888       67.600        0.279      341.166       15.689      851.706
12/11/2014  02:26:00      109.071     -218.269       27.405      284.080      297.751      117.853    80701.311    88655.463    13889.325       12.173        9.162      244.004      163.766        0.450      341.226       15.788      851.611
12/11/2014  02:27:00      124.922     -243.414       -3.347      209.896      197.425      120.322    44056.415    38976.699    14477.430        8.617        4.876      273.598      118.976        0.189      341.197       15.739      851.487
12/11/2014  02:28:00      160.666     -346.241       31.155      180.156      267.216      145.852    32456.153    71404.582    21272.938       13.588        6.257      381.702      167.625        0.193      341.189       15.726      851.551
12/11/2014  02:29:00      176.214     -136.215      133.477      241.420      312.509      190.780    58283.449    97662.012    36396.885       12.984        9.617      222.724      214.168        0.925      341.187       15.722      851.386
12/11/2014  02:30:00      190.615     -273.483       44.238      176.638      199.758      134.176    31200.968    39903.278    18003.141       10.108        4.455      333.357      115.289        0.120      341.234       15.801      851.434
12/11/2014  02:31:00      276.499     -459.599       -1.520      316.073      299.224      137.840    99901.969    89534.877    18999.822       24.802       10.422      536.361      161.948        0.091      341.210       15.762      851.575
12/11/2014  02:32:00      202.417     -250.499       16.334      250.712      228.294      106.122    62856.336    52118.139    11261.812       11.509        6.312      322.060      120.736        0.141      341.140       15.643      851.554
12/11/2014  02:33:00      -40.091     -325.855      -15.575      141.208      155.716       97.167    19939.652    24247.320     9441.489        8.082        2.681      328.312       64.220        0.038      341.160       15.677      851.523
12/11/2014  02:34:00     -251.908     -153.027       -0.993      161.373      120.038       71.482    26041.146    14409.075     5109.625        6.621        2.278      294.746       61.089        0.043      341.106       15.585      851.436
12/11/2014  02:35:00      -57.925     -189.986       -8.695      144.718      107.614       57.592    20943.364    11580.835     3316.858        3.768        1.792      198.620       52.889        0.071      341.121       15.611      851.375
12/11/2014  02:36:00      -29.382     -214.458        0.763      128.247      146.829       69.765    16447.289    21558.718     4867.120        4.486        2.144      216.461       51.919        0.058      341.075       15.533      851.457
12/11/2014  02:37:00      215.766     -458.335       19.932      200.006      263.302      119.703    40002.489    69328.009    14328.773       19.032        6.183      506.582      123.902        0.060      341.082       15.544      851.514
12/11/2014  02:38:00      157.240     -248.678       60.275      207.626      307.996      163.667    43108.545    94861.537    26786.857       12.744        8.238      294.219      190.767        0.420      341.011       15.426      851.327
12/11/2014  02:39:00      193.806     -179.421      112.277      232.380      333.053      204.829    54000.608   110924.398    41954.820       14.458       10.344      264.107      228.034        0.745      340.937       15.300      851.136
12/11/2014  02:40:00      241.275     -159.112      187.981      281.277      475.979      241.794    79116.834   226555.718    58464.352       24.143       18.207      289.016      317.825        1.209      341.036       15.466      851.106
12/11/2014  02:41:00      140.732     -451.390       31.663      273.060      325.301      219.816    74561.885   105820.658    48319.118       22.659       11.435      472.820      228.696        0.234      341.071       15.526      851.064
12/11/2014  02:42:00      -36.860     -233.720       29.950      208.641      135.476      100.642    43531.223    18353.684    10128.804        6.443        3.601      236.609       91.995        0.151      341.104       15.583      851.298
12/11/2014  02:43:00      132.244      -71.735       68.570      147.279      186.149       87.876    21691.030    34651.492     7722.193        4.569        3.203      150.447      110.916        0.544      341.137       15.638      851.126
12/11/2014  02:44:00      291.107     -207.239       80.233      312.418      404.825      246.188    97605.254   163883.395    60608.502       22.805       16.105      357.339      297.171        0.692      341.110       15.592      850.886
12/11/2014  02:45:00       56.112     -258.779       36.137      151.829      223.397      151.175    23052.161    49906.303    22854.022        8.360        4.791      264.792      131.299        0.246      341.101       15.578      851.025
12/11/2014  02:46:00      229.619     -333.604       -6.269      136.923      172.084       98.430    18747.911    29612.807     9688.559       11.104        2.902      404.989       79.351        0.038      341.038       15.468      851.105
12/11/2014  02:47:00      105.619     -298.471       28.239      179.345      278.614      104.723    32164.711    77625.913    10966.991       11.087        6.038      316.607      132.875        0.176      340.935       15.297      851.089
12/11/2014  02:48:00       78.304     -149.594       74.936      129.958      198.022      117.809    16889.063    39212.607    13879.021        5.204        3.499      168.849      116.153        0.473      340.906       15.248      851.141
12/11/2014  02:49:00      102.474     -137.543       62.873      132.250      190.679      112.361    17489.986    36358.339    12625.069        4.991        3.324      171.520      126.488        0.544      340.896       15.231      851.149
12/11/2014  02:50:00      -55.045     -469.347       -3.065      182.299      280.059       95.817    33232.930    78432.984     9180.889       17.206        6.042      472.564      106.101        0.050      341.018       15.437      851.303
12/11/2014  02:51:00     -370.820     -366.210      -16.360      212.301      170.315      101.865    45071.754    29007.218    10376.438       17.815        4.223      521.169      102.715        0.039      341.058       15.504      851.122
12/11/2014  02:52:00      -39.317     -116.535       76.390      204.334      252.770      132.490    41752.482    63892.822    17553.646        7.206        6.160      122.989      150.229        1.492      340.967       15.351      850.842
12/11/2014  02:53:00       58.855      -89.714      151.343      163.359      290.664      169.266    26686.206    84485.383    28650.836        8.709        6.991      107.296      187.232        3.045      341.005       15.414      850.754
12/11/2014  02:54:00      226.999      -97.396      206.834      307.092      347.742      266.835    94305.352   120924.424    71201.088       19.506       14.322      247.011      265.290        1.153      341.107       15.586      850.549
12/11/2014  02:55:00      140.838     -192.388       68.683      200.272      245.257      142.343    40108.750    60151.056    20261.667        9.102        6.026      238.429      165.174        0.480      341.129       15.625      850.901
12/11/2014  02:56:00      -24.324      -27.117       67.949      102.414      148.673      100.374    10488.537    22103.685    10074.901        2.430        2.133       36.428       82.651        5.148      340.993       15.396      850.918
12/11/2014  02:57:00       83.687      -42.466      113.106      160.624      188.977      109.772    25799.992    35712.349    12049.792        4.757        3.678       93.845      118.213        1.587      340.981       15.374      850.816
12/11/2014  02:58:00       71.820     -104.795       48.337      173.004      229.673      110.497    29930.467    52749.761    12209.502        5.666        4.744      127.044      127.283        1.004      341.006       15.418      850.570
12/11/2014  02:59:00      166.321     -310.973      -26.777      230.857      239.628      145.481    53295.048    57421.405    21164.594       12.846        6.594      352.656      141.800        0.162      341.053       15.497      850.657
12/11/2014  03:00:00       99.616     -248.175       -8.341      166.072      203.768       94.337    27580.063    41521.457     8899.559        7.478        3.900      267.421      107.154        0.161      340.931       15.290      850.731
12/11/2014  03:01:00      122.163     -100.873      131.346      312.278      288.837      221.921    97517.278    83427.094    49249.037       13.623       11.510      158.428      164.265        1.075      340.933       15.294      850.264
12/11/2014  03:02:00       -8.979     -320.465       70.924      251.891      337.305      245.779    63449.087   113774.384    60407.556       17.267       11.882      320.591      224.138        0.489      341.242       15.815      850.053
12/11/2014  03:03:00      -87.664     -143.367       30.708      167.103      154.577       98.331    27923.401    23893.923     9668.938        4.532        3.074      168.045      110.385        0.431      341.469       16.200      850.481
12/11/2014  03:04:00       99.164      -16.346       93.549      130.503      163.554      130.980    17030.941    26749.803    17155.813        3.988        3.047      100.503      136.768        1.852      341.131       15.629      850.343
12/11/2014  03:05:00      247.505     -161.699       94.687      223.725      287.318      179.282    50053.033    82551.368    32141.941       13.053        8.237      295.644      197.584        0.447      340.909       15.253      850.176
12/11/2014  03:06:00      224.336     -208.699      137.506      271.587      353.410      194.973    73759.624   124898.936    38014.336       17.468       11.834      306.401      234.021        0.583      340.865       15.177      850.120
12/11/2014  03:07:00       83.680     -154.023       99.322      133.790      186.975      147.449    17899.733    34959.801    21741.174        5.758        3.730      175.287      124.343        0.503      340.865       15.178      850.267
12/11/2014  03:08:00      161.396     -273.724       48.035      160.217      276.435      120.465    25669.452    76416.339    14511.790       10.992        5.830      317.763      153.730        0.234      340.896       15.230      850.424
12/11/2014  03:09:00      -17.445      -86.708       92.741      101.891      164.868      102.703    10381.869    27181.436    10547.887        3.226        2.406       88.446      100.692        1.296      340.776       15.028      850.413
12/11/2014  03:10:00       93.615      -67.646      117.628      154.523      207.067      109.827    23877.322    42876.688    12061.920        5.298        3.941      115.498       99.943        0.749      340.810       15.087      850.432
12/11/2014  03:11:00       51.095      -10.784      158.637      147.711      271.352      158.900    21818.629    73632.084    25249.178        7.427        6.035       52.221      191.054       13.385      340.819       15.099      850.325
12/11/2014  03:12:00      169.019     -296.922       44.479      153.273      303.920      131.973    23492.713    92367.587    17416.843       12.597        6.664      341.658      154.327        0.204      340.876       15.195      850.328
12/11/2014  03:13:00      152.072      -82.100      125.869      202.375      318.291      176.257    40955.747   101309.322    31066.609       10.949        8.667      172.819      210.425        1.483      340.898       15.234      850.299
12/11/2014  03:14:00      335.777     -357.639       63.038      280.796      367.312      229.151    78846.353   134918.160    52510.391       25.540       13.314      490.563      251.075        0.262      340.962       15.340      850.156
12/11/2014  03:15:00       49.721        1.505      188.703      171.934      235.454      157.264    29561.348    55438.515    24731.854        7.389        5.487       49.743      148.114        8.866      340.911       15.255      850.273
12/11/2014  03:16:00      170.819     -258.645       56.424      195.317      287.681      159.998    38148.766    82760.461    25599.220       12.285        7.325      309.961      175.104        0.319      340.918       15.267      850.281
12/11/2014  03:17:00      235.234     -184.215       75.389      253.168      309.120      203.529    64094.149    95555.408    41424.003       14.797       10.054      298.781      250.562        0.703      340.911       15.256      850.286
12/11/2014  03:18:00       31.158      -80.391      138.371      120.318      272.472      175.201    14476.500    74241.020    30695.348        7.297        5.971       86.218      187.356        4.722      340.895       15.228      850.383
12/11/2014  03:19:00      128.315     -195.127       44.564      184.165      268.571      143.853    33916.790    72130.503    20693.779        9.161        6.337      233.537      152.430        0.426      340.921       15.272      850.405
12/11/2014  03:20:00       78.377     -231.341        0.759      117.659      162.413       79.421    13843.635    26378.069     6307.706        5.309        2.326      244.258       65.851        0.073      340.980       15.372      850.433
12/11/2014  03:21:00      132.699     -140.075       90.435      145.621      280.648      101.229    21205.354    78763.484    10247.295        7.779        5.511      192.951      117.536        0.371      340.905       15.246      850.407
12/11/2014  03:22:00      224.532     -267.400       56.288      194.087      356.873      170.700    37669.654   127358.632    29138.520       15.959        9.708      349.167      211.363        0.366      341.029       15.454      850.276
12/11/2014  03:23:00       24.040     -129.506       46.431       84.747      174.862      120.904     7181.977    30576.570    14617.720        3.593        2.619      131.718      120.639        0.839      340.955       15.331      850.305
12/11/2014  03:24:00      111.865     -171.241       42.215      110.609      151.745       92.228    12234.373    23026.560     8506.009        4.368        2.188      204.541       99.933        0.239      341.017       15.435      850.306
12/11/2014  03:25:00      103.413     -169.701       35.553      105.390      197.737       73.300    11107.018    39100.077     5372.958        4.816        2.779      198.728       98.254        0.244      341.066       15.518      850.220
12/11/2014  03:26:00      121.866     -156.967       82.899      138.889      240.801      109.972    19290.184    57985.007    12093.815        6.785        4.468      198.721      134.178        0.456      341.011       15.425      850.066
12/11/2014  03:27:00      114.804      -33.070      155.735      172.302      216.095      135.667    29687.978    46697.237    18405.534        6.664        4.740      119.472      143.258        1.438      340.902       15.241      850.009
12/11/2014  03:28:00      115.820     -148.116       82.208      138.287      299.318      118.465    19123.345    89591.441    14034.070        8.241        6.137      188.023      160.384        0.728      340.930       15.288      849.992
12/11/2014  03:29:00       53.290      -19.243      145.944      122.248      192.949      130.801    14944.556    37229.147    17108.913        4.688        3.464       56.658      130.152        5.277      340.944       15.311      849.847
12/11/2014  03:30:00      131.249     -160.414       60.939      162.201      235.443      151.868    26309.156    55433.393    23063.951        7.572        5.240      207.265      163.496        0.622      340.946       15.314      849.730
12/11/2014  03:31:00      107.704     -156.197       43.169      112.246      183.744       97.754    12599.272    33762.013     9555.765        4.688        2.796      189.730      119.796        0.399      340.920       15.270      849.718
12/11/2014  03:32:00       29.440     -143.092       78.800       98.058      157.445      118.018     9615.454    24789.059    13928.363        3.793        2.417      146.089      117.182        0.643      340.904       15.245      849.688
12/11/2014  03:33:00       69.048     -141.805       41.474       95.825      156.752       79.456     9182.464    24571.242     6313.188        3.332        2.003      157.722       89.872        0.325      340.896       15.232      849.725
12/11/2014  03:34:00       59.108     -137.798       33.793      126.860      119.296       68.969    16093.542    14231.609     4756.707        2.935        1.754      149.940       70.597        0.222      340.930       15.288      849.723
12/11/2014  03:35:00      199.573     -283.573       14.023      119.799      207.990       95.232    14351.721    43259.689     9069.072        9.355        3.334      346.761       98.026        0.080      340.974       15.361      849.676
12/11/2014  03:36:00       78.617     -296.816       37.290      184.182      226.825       98.902    33923.181    51449.623     9781.546        9.539        4.758      307.051       83.955        0.075      341.059       15.505      849.646
12/11/2014  03:37:00      186.089     -273.940        0.480      156.371      158.045      103.839    24451.745    24978.173    10782.609        8.493        3.011      331.168       87.834        0.070      341.027       15.452      849.575
12/11/2014  03:38:00      138.027     -154.143       78.625      155.057      253.450      133.407    24042.539    64236.706    17797.511        7.751        5.304      206.910      160.128        0.599      340.972       15.359      849.546
12/11/2014  03:39:00      131.914     -138.494       66.272      142.662      189.257      109.082    20352.523    35818.368    11898.956        5.451        3.403      191.264      113.210        0.350      340.968       15.353      849.567
12/11/2014  03:40:00      121.722     -256.064       27.707      167.500      199.128      107.200    28056.203    39651.960    11491.769        8.016        3.960      283.523      118.473        0.175      340.979       15.370      849.612
12/11/2014  03:41:00       56.478     -183.556        3.707      151.707      128.698       70.541    23015.131    16563.222     4976.099        4.072        2.228      192.049       68.682        0.128      341.006       15.418      849.571
12/11/2014  03:42:00      202.773     -361.911      -20.037      112.664      142.283       83.964    12693.127    20244.359     7049.880       10.623        1.999      414.845       71.437        0.030      341.126       15.619      849.476
12/11/2014  03:43:00       86.114     -181.264        1.615      119.765      108.374       85.233    14343.648    11744.850     7264.724        3.681        1.668      200.680       67.412        0.113      341.064       15.514      849.417
12/11/2014  03:44:00      220.122     -336.314        3.451      188.570      212.866      139.504    35558.796    45312.051    19461.409       13.093        5.017      401.946      135.022        0.113      341.090       15.558      849.445
12/11/2014  03:45:00      252.347     -387.151       11.025      189.281      249.191      130.011    35827.185    62095.906    16902.753       16.423        5.741      462.131      149.279        0.104      341.136       15.635      849.451
12/11/2014  03:46:00      203.756     -260.041      -11.576      178.651      154.329       95.731    31916.260    23817.317     9164.399        8.707        3.245      330.360      109.440        0.110      341.109       15.591      849.490
12/11/2014  03:47:00       93.910     -270.308      -15.489      141.202      117.541       77.200    19937.918    13815.936     5959.797        6.091        1.986      286.157       61.833        0.047      341.130       15.625      849.540
12/11/2014  03:48:00       55.576      -97.341       47.338      132.263      187.560      101.339    17493.583    35178.629    10269.634        3.886        3.147      112.089      115.257        1.057      341.048       15.489      849.559
12/11/2014  03:49:00       46.664      -58.935       51.623      116.012      119.680       71.776    13458.771    14323.301     5151.784        2.062        1.647       75.173       68.379        0.827      341.042       15.477      849.518
12/11/2014  03:50:00       99.323     -126.387       21.280      142.765      125.183       70.285    20381.775    15670.720     4939.955        3.363        2.050      160.744       53.362        0.110      341.109       15.591      849.474
12/11/2014  03:51:00       -0.432     -144.465       12.051      117.678      158.376       76.984    13848.109    25083.082     5926.572        3.293        2.243      144.466       74.939        0.269      341.132       15.629      849.432
12/11/2014  03:52:00      233.163     -361.612      -28.685      166.040      209.249      101.826    27569.393    43785.082    10368.633       13.382        4.086      430.265      118.462        0.076      341.144       15.648      849.441
12/11/2014  03:53:00      111.758     -131.217       94.741      144.477      250.751      132.747    20873.520    62876.282    17621.671        7.001        5.069      172.359      168.054        0.951      341.025       15.449      849.455
12/11/2014  03:54:00       70.002     -128.797       25.039       90.590      141.619       69.081     8206.511    20056.063     4772.226        2.757        1.652      146.592       79.209        0.292      341.020       15.441      849.485
12/11/2014  03:55:00      161.700     -246.886       42.094      184.732      232.342      113.592    34125.739    53982.797    12903.190        9.492        5.051      295.127      129.340        0.192      341.155       15.668      849.466
12/11/2014  03:56:00      170.489     -313.391        0.120      186.532      180.074       98.260    34794.029    32426.730     9655.092       10.206        3.844      356.764       99.225        0.077      341.110       15.594      849.469
12/11/2014  03:57:00       61.703      -96.843       10.244       76.036       87.513       51.702     5781.432     7658.456     2673.138        1.470        0.806      114.829       52.437        0.209      341.070       15.526      849.544
12/11/2014  03:58:00       36.416     -231.836       -5.101      110.517      142.804       64.199    12214.080    20392.879     4121.490        4.591        1.836      234.679       65.156        0.077      341.160       15.678      849.527
12/11/2014  03:59:00       82.868     -273.778      -15.958      167.163      156.598       93.769    27943.633    24522.990     8792.579        7.166        3.063      286.045       52.491        0.034      341.171       15.695      849.501
12/11/2014  04:00:00       30.865     -243.194      -10.697      128.099      163.801       84.455    16409.420    26830.843     7132.674        5.528        2.519      245.145       62.791        0.066      341.149       15.660      849.561
12/11/2014  04:01:00      -20.109     -181.699      -10.093      153.658      103.304       57.796    23610.796    10671.794     3340.411        3.556        1.881      182.808       50.245        0.076      341.130       15.626      849.608
12/11/2014  04:02:00       19.114     -166.288      -11.421       92.888      132.221       58.421     8628.251    17482.267     3413.011        2.883        1.476      167.383       44.262        0.070      341.119       15.610      849.633
12/11/2014  04:03:00      124.087     -136.733       13.444      158.084      137.416       74.745    24990.403    18883.258     5586.752        4.186        2.473      184.644       65.043        0.124      341.061       15.510      849.662
12/11/2014  04:04:00       72.671     -173.831      -10.028       85.055      134.555       64.205     7234.422    18105.060     4122.232        3.252        1.473      188.410       70.100        0.138      341.081       15.542      849.649
12/11/2014  04:05:00       64.401     -140.071       78.285      123.941      258.225      144.046    15361.348    66680.093    20749.161        6.632        5.140      154.167      167.288        1.177      341.102       15.578      849.572
12/11/2014  04:06:00      180.711     -157.891       41.584      172.470      186.853       96.773    29745.983    34913.996     9365.058        6.666        3.701      239.971      114.694        0.228      341.109       15.591      849.543
12/11/2014  04:07:00      107.725     -135.261       38.842      119.281      214.972      107.246    14227.932    46212.919    11501.604        5.166        3.597      172.916      122.993        0.506      341.094       15.565      849.509
12/11/2014  04:08:00      109.881     -152.584       19.000      116.810      158.337       64.514    13644.690    25070.763     4162.114        3.929        2.144      188.031       73.735        0.154      341.088       15.557      849.477
12/11/2014  04:09:00        7.426      -50.337       49.367       87.821      105.695       71.000     7712.486    11171.333     5041.022        1.447        1.196       50.881       69.146        1.847      341.014       15.433      849.461
12/11/2014  04:10:00      115.913      -85.137       26.089      130.563      156.539       73.579    17046.737    24504.384     5413.846        3.416        2.348      143.820      100.010        0.484      341.022       15.443      849.391
12/11/2014  04:11:00      104.650     -121.908       54.432      108.769      179.242      107.954    11830.767    32127.666    11654.109        4.218        2.781      160.665      117.581        0.536      341.008       15.421      849.323
12/11/2014  04:12:00       63.925      -71.965      111.749      118.178      243.416      112.073    13966.145    59251.211    12560.441        5.375        4.289       96.256      137.938        2.054      341.026       15.450      849.258
12/11/2014  04:13:00       52.836      -23.436       86.708       80.889      111.813       73.338     6543.011    12502.040     5378.397        1.764        1.221       57.800       58.137        1.012      341.008       15.421      849.212
12/11/2014  04:14:00      204.396     -191.849       12.360      135.206      145.547       81.717    18280.748    21183.964     6677.659        6.243        2.307      280.328       79.640        0.081      341.085       15.551      849.214
12/11/2014  04:15:00       42.577      -73.741       38.866       88.986      102.747       69.856     7918.562    10556.888     4879.865        1.605        1.168       85.150       56.718        0.444      341.054       15.501      849.205
12/11/2014  04:16:00      108.111     -214.641       -8.499      136.374      130.773       68.369    18598.000    17101.546     4674.279        4.909        2.019      240.331       46.476        0.037      341.097       15.572      849.163
12/11/2014  04:17:00       16.706      -77.937       37.943      118.554      133.210      103.742    14054.995    17744.960    10762.481        2.517        2.128       79.707       95.177        1.426      341.017       15.437      849.086
12/11/2014  04:18:00      135.256     -193.913        2.833      146.896      137.489       70.166    21578.338    18903.100     4923.328        5.065        2.270      236.424       70.021        0.088      341.105       15.584      849.006
12/11/2014  04:19:00      129.111     -263.314      -19.253      111.402      131.146       72.447    12410.383    17199.178     5248.539        6.061        1.743      293.264       65.703        0.050      341.165       15.685      848.971
12/11/2014  04:20:00       18.179      -66.191       51.811       56.147       97.788       61.887     3152.495     9562.502     3829.945        1.197        0.827       68.642       45.569        0.441      341.032       15.462      848.954
12/11/2014  04:21:00       60.026     -184.010      -14.158      149.937      118.627       64.068    22481.038    14072.265     4104.739        3.915        2.033      193.553       62.578        0.105      341.058       15.504      848.953
12/11/2014  04:22:00       67.516     -173.596        0.692      120.619      119.601       77.595    14549.054    14304.370     6021.058        3.478        1.744      186.264       71.782        0.149      341.116       15.604      848.984
12/11/2014  04:23:00       22.122      -20.931       86.027       84.974      154.428       86.510     7220.500    23847.997     7483.923        2.343        1.928       30.455      100.660       10.925      341.037       15.471      848.956
12/11/2014  04:24:00       72.562     -198.940       23.595      116.615      160.396       87.872    13599.058    25726.880     7721.441        4.621        2.352      211.761      102.491        0.234      341.114       15.599      848.927
12/11/2014  04:25:00      150.156     -145.559       37.018      139.357      132.914       89.279    19420.314    17666.233     7970.693        4.507        2.253      209.127       84.303        0.163      341.071       15.528      848.883
12/11/2014  04:26:00       75.367     -163.092       50.055      113.482      232.524      105.605    12878.088    54067.617    11152.354        5.643        3.905      179.664      136.211        0.575      341.132       15.631      848.855
12/11/2014  04:27:00       54.211     -208.726       -6.911      140.844      114.652       73.492    19837.153    13144.996     5401.050        4.246        1.919      215.651       50.811        0.056      341.121       15.611      848.875
12/11/2014  04:28:00      106.106     -128.095       21.083       87.293      111.951       59.028     7620.001    12533.059     3484.318        2.587        1.182      166.333       61.692        0.138      341.044       15.481      848.884
12/11/2014  04:29:00      140.629     -206.689        5.452      124.267      152.254       62.047    15442.387    23181.234     3849.873        5.249        2.124      249.994       66.496        0.071      341.061       15.510      848.921
12/11/2014  04:30:00      103.164     -115.314       57.379      158.546      200.889       98.199    25136.870    40356.307     9643.084        5.117        3.757      154.725      129.299        0.698      341.005       15.415      848.907
12/11/2014  04:31:00      173.704     -213.100       -4.388      139.675      142.566       84.297    19509.132    20325.078     7106.047        6.126        2.347      274.927       86.097        0.098      341.066       15.520      848.888
12/11/2014  04:32:00      170.749     -232.650       15.060      114.559      237.198      101.792    13123.822    56262.842    10361.657        8.161        3.987      288.585      141.975        0.242      341.109       15.590      848.860
12/11/2014  04:33:00       80.254     -169.765       18.882      151.331      174.694       85.836    22900.966    30517.871     7367.809        4.819        3.039      187.779       96.806        0.266      341.042       15.479      848.833
12/11/2014  04:34:00      109.140     -115.178       51.861      118.569      179.845      113.056    14058.653    32344.211    12781.761        4.351        2.959      158.674      130.698        0.678      340.976       15.367      848.829
12/11/2014  04:35:00      359.121     -413.727      -37.673      164.222      183.212       96.953    26968.931    33566.501     9399.958       18.573        3.497      547.849       97.973        0.032      341.011       15.425      848.801
12/11/2014  04:36:00       54.688       -6.753      124.729      109.915      192.156      113.108    12081.330    36923.939    12793.444        4.018        3.090       55.104      118.500        4.625      340.973       15.362      848.798
12/11/2014  04:37:00       42.502      -50.113       86.694      110.016      113.066       99.619    12103.497    12783.963     9923.976        2.332        1.741       65.709       50.187        0.583      340.952       15.327      848.810
12/11/2014  04:38:00       75.501      -51.801      124.611      137.840      208.616      128.254    18999.992    43520.692    16449.149        5.142        3.948       91.562      139.041        2.306      341.025       15.450      848.752
12/11/2014  04:39:00      188.723     -305.515        3.495      168.014      190.243       95.564    28228.793    36192.251     9132.502       10.125        3.678      359.104      110.957        0.095      341.133       15.631      848.739
12/11/2014  04:40:00      103.943     -109.756       41.217      107.801      182.122       85.317    11621.058    33168.383     7278.995        3.830        2.603      151.164      107.938        0.510      341.054       15.500      848.738
12/11/2014  04:41:00       89.870      -79.223       53.954      118.601      153.215       92.015    14066.175    23474.741     8466.757        3.163        2.300      119.804       94.664        0.624      341.021       15.443      848.745
12/11/2014  04:42:00      236.260     -271.274       -4.029      150.939      239.575      125.578    22782.497    57396.036    15769.744       11.267        4.797      359.734      142.094        0.156      341.047       15.486      848.728
12/11/2014  04:43:00      127.279     -102.123      101.536      172.147      268.694      155.637    29634.610    72196.465    24222.995        8.147        6.303      163.183      168.985        1.072      341.053       15.497      848.718
12/11/2014  04:44:00       35.129     -100.094       78.139       92.153      173.481      111.883     8492.158    30095.740    12517.698        3.422        2.555      106.079      101.177        0.910      341.030       15.458      848.722
12/11/2014  04:45:00      100.027      -73.593      121.493      201.124      197.498      131.016    40450.789    39005.276    17165.132        6.338        4.831      124.183      139.181        1.256      341.026       15.451      848.747
12/11/2014  04:46:00       69.890       24.157      150.288      193.287      201.820      125.571    37359.845    40731.236    15768.184        6.094        4.693       73.947      131.341        3.155      341.071       15.528      848.807
12/11/2014  04:47:00       60.429      -40.532      139.429      120.338      203.389      106.803    14481.337    41367.127    11406.868        4.598        3.363       72.764      109.762        2.276      341.090       15.558      848.866
12/11/2014  04:48:00      125.914      -55.210       89.874      206.389      262.836      152.916    42596.339    69082.641    23383.360        8.099        6.753      137.486      203.322        2.187      341.060       15.507      848.846
12/11/2014  04:49:00       96.577      -89.280      111.836      152.303      241.795      139.295    23196.290    58465.032    19403.000        6.541        5.053      131.522      166.331        1.599      341.016       15.435      848.813
12/11/2014  04:50:00      138.073     -119.227       86.704      166.786      212.333      120.619    27817.508    45085.486    14548.936        6.411        4.373      182.426      136.780        0.562      341.004       15.414      848.799
12/11/2014  04:51:00       62.773      -97.257       61.557      132.278      103.024       65.173    17497.554    10613.846     4247.492        2.477        1.618      115.756       55.634        0.231      340.965       15.349      848.884
12/11/2014  04:52:00       -9.276     -101.262       31.699      137.564      135.590       66.391    18923.940    18384.595     4407.780        2.652        2.086      101.686       59.879        0.347      341.002       15.411      848.957
12/11/2014  04:53:00      140.581     -204.736        3.863      115.662      155.058       96.116    13377.680    24042.854     9238.306        5.417        2.333      248.354       95.515        0.148      341.002       15.409      848.960
12/11/2014  04:54:00      103.028     -132.795       49.827      138.225      186.021      105.357    19106.191    34603.862    11100.099        4.776        3.241      168.075      133.238        0.628      340.988       15.385      848.990
12/11/2014  04:55:00      121.663      -86.891       67.075      158.349      175.455      114.176    25074.479    30784.377    13036.141        4.786        3.445      149.505      137.247        0.843      340.948       15.318      849.024
12/11/2014  04:56:00       -5.017      -56.364       91.921       69.330      138.666      110.418     4806.612    19228.313    12192.142        2.393        1.811       56.587      107.208        3.589      340.959       15.337      849.053
12/11/2014  04:57:00      149.597     -137.188       51.045      173.783      244.897      136.052    30200.365    59974.692    18510.172        7.622        5.434      202.977      174.374        0.738      341.029       15.455      849.044
12/11/2014  04:58:00       51.299       49.847      141.801      122.551      144.572      104.025    15018.629    20900.954    10821.236        3.597        2.337       71.528      106.821        2.230      340.999       15.404      848.949
12/11/2014  04:59:00      155.088      -54.621      124.585      195.287      272.576      166.621    38137.086    74297.648    27762.534        9.135        7.010      164.425      175.724        1.142      341.025       15.449      848.901
12/11/2014  05:00:00      145.380      -54.895      124.429      159.337      198.173      149.641    25388.138    39272.406    22392.327        6.333        4.353      155.399      153.951        0.981      341.079       15.541      848.868
12/11/2014  05:01:00      136.935     -147.412       41.218      149.353      162.850      104.903    22306.452    26520.280    11004.621        5.099        2.992      201.200      118.166        0.345      341.053       15.496      848.920
12/11/2014  05:02:00      201.987     -143.149       30.680      132.664      175.775      113.344    17599.811    30896.719    12846.792        6.178        3.067      247.569      131.387        0.282      341.040       15.474      848.965
12/11/2014  05:03:00      139.964     -118.476       76.394      203.894      209.247      132.583    41572.944    43784.428    17578.314        7.118        5.147      183.376      140.611        0.588      340.989       15.389      849.045
12/11/2014  05:04:00      173.744     -105.529      123.644      206.841      242.177      167.393    42783.229    58649.775    28020.556        9.301        6.473      203.282      179.095        0.776      341.090       15.558      849.168
12/11/2014  05:05:00       25.325      -90.390       69.727      109.617      173.090       85.593    12015.911    29960.090     7326.115        3.148        2.465       93.871       98.610        1.104      341.084       15.549      849.303
12/11/2014  05:06:00       72.823     -111.651       50.268      107.457      152.783       97.400    11547.094    23342.631     9486.735        3.233        2.219      133.301      104.927        0.620      341.084       15.548      849.348
12/11/2014  05:07:00       95.711      -68.213       63.246      120.513      156.743       81.378    14523.484    24568.369     6622.347        3.175        2.286      117.532      111.549        0.901      341.020       15.440      849.420
12/11/2014  05:08:00       89.293      -44.354       79.110      118.567      198.767      118.951    14058.229    39508.173    14149.251        4.194        3.386       99.702      136.137        1.864      341.056       15.501      849.424
12/11/2014  05:09:00      129.477     -106.674       45.285      164.273      140.688       71.223    26985.578    19792.990     5072.748        4.101        2.593      167.760       94.009        0.314      341.053       15.496      849.432
12/11/2014  05:10:00       46.598      -87.202      115.478      147.619      229.530      162.398    21791.487    52683.907    26373.110        6.196        5.042       98.871      186.368        3.553      341.019       15.439      849.430
12/11/2014  05:11:00       83.368      -26.035      119.512      173.625      215.192      133.241    30145.659    46307.492    17753.129        5.804        4.710       87.339      142.461        2.661      340.966       15.350      849.496
12/11/2014  05:12:00      231.573     -377.544      -22.812      161.283      212.183      109.873    26012.359    45021.574    12072.038       13.988        4.155      442.906      112.358        0.064      341.099       15.573      849.494
12/11/2014  05:13:00       22.133      -63.964      118.922      130.253      218.058      125.500    16965.830    47549.150    15750.341        4.948        4.013       67.685      138.839        4.208      341.017       15.435      849.432
12/11/2014  05:14:00       78.966      -99.989       52.671      111.458      140.368       87.056    12422.789    19703.056     7578.743        2.935        1.985      127.410       87.950        0.476      340.971       15.359      849.427
12/11/2014  05:15:00       17.525       32.388       85.541       79.876       74.236       67.924     6380.100     5510.962     4613.620        1.259        0.825       36.825       44.496        1.460      340.915       15.263      849.442
12/11/2014  05:16:00      118.125      -65.739        9.564      118.125      108.679       48.141    13953.531    11811.202     2317.532        2.322        1.404      135.186       50.548        0.140      341.030       15.459      849.393
12/11/2014  05:17:00       94.750      -16.146       65.103      132.944      142.444       99.350    17674.180    20290.287     9870.396        3.065        2.392       96.116      112.163        1.362      340.948       15.320      849.444
12/11/2014  05:18:00      231.546     -292.920        9.658      152.943      194.995      105.577    23391.519    38023.049    11146.465       10.602        3.628      373.384      120.013        0.103      341.091       15.561      849.499
12/11/2014  05:19:00        7.521      -80.906       61.338       95.034      126.632       83.852     9031.488    16035.789     7031.214        2.123        1.605       81.255       85.955        1.119      340.994       15.397      849.529
12/11/2014  05:20:00       73.983     -128.523       75.896      107.138      185.623       96.686    11478.650    34455.819     9348.267        4.151        2.764      148.296      106.707        0.518      341.091       15.561      849.502
12/11/2014  05:21:00      104.489      -53.590       97.220      143.038      184.575      112.240    20459.743    34067.816    12597.809        4.517        3.356      117.430      131.193        1.248      341.067       15.520      849.487
12/11/2014  05:22:00      115.722     -108.551      113.078      166.746      234.790      180.153    27804.104    55126.570    32455.093        7.665        5.769      158.666      164.696        1.077      341.125       15.617      849.395
12/11/2014  05:23:00      -49.446      -65.879       35.425       88.369      105.037       55.432     7809.068    11032.845     3072.722        1.497        1.096       82.371       46.616        0.320      341.061       15.513      849.435
12/11/2014  05:24:00       83.546      -74.104       60.748      115.702      133.211       91.993    13387.067    17745.201     8462.752        2.787        1.980      111.675      106.454        0.909      341.050       15.490      849.441
12/11/2014  05:25:00       97.891     -120.766       39.184      111.761      132.758       94.797    12490.503    17624.566     8986.380        3.239        1.955      155.457      106.753        0.472      341.052       15.496      849.437
12/11/2014  05:26:00        1.441        7.524       96.971       52.467      102.447       71.745     2752.748    10495.383     5147.312        1.393        0.920        7.661       66.460       75.260      341.029       15.458      849.434
12/11/2014  05:27:00       -5.202      -67.435      106.165       71.432      147.172       85.562     5102.598    21659.708     7320.820        2.496        1.704       67.635       90.466        1.789      341.024       15.448      849.394
12/11/2014  05:28:00       94.224       33.873      134.586      157.993      251.225      171.222    24961.708    63113.765    29316.936        7.274        5.870      100.127      198.729        3.939      341.102       15.579      849.338
12/11/2014  05:29:00       29.168     -101.491       64.316      103.554      137.123       91.449    10723.494    18802.706     8362.898        2.658        1.894      105.599       76.346        0.523      341.058       15.505      849.285
12/11/2014  05:30:00      189.270     -147.846       56.079      153.751      261.593      134.785    23639.308    68430.718    18167.121        8.551        5.512      240.170      175.837        0.536      341.175       15.703      849.219
12/11/2014  05:31:00      127.121     -102.463       51.841      134.040      158.838      115.454    17966.729    25229.618    13329.551        4.292        2.826      163.275      112.821        0.477      341.086       15.551      849.139
12/11/2014  05:32:00      209.765     -261.970      -41.562      120.746       99.308       46.662    14579.662     9861.995     2177.347        7.048        1.331      335.603       36.320        0.012      341.089       15.557      849.150
12/11/2014  05:33:00      165.890     -230.157      -19.237      119.754      148.586       93.387    14341.136    22077.718     8721.158        6.299        2.257      283.711      103.976        0.134      341.058       15.504      849.186
12/11/2014  05:34:00      150.412     -270.435        4.717      110.426      193.490       71.954    12193.901    37438.544     5177.353        7.528        2.740      309.449       87.170        0.079      341.162       15.681      849.203
12/11/2014  05:35:00       95.475      -97.170       59.894      110.497      188.349      102.972    12209.687    35475.341    10603.233        4.020        2.914      136.226      122.288        0.806      341.070       15.524      849.235
12/11/2014  05:36:00      205.040      -68.101      103.250      161.386      258.467      135.971    26045.497    66805.098    18488.181        8.432        5.567      216.053      175.027        0.656      341.121       15.611      849.233
12/11/2014  05:37:00      278.805     -166.190       35.759      154.937      207.243      104.894    24005.496    42949.588    11002.836        9.228        3.898      324.579      128.784        0.157      341.102       15.578      849.215
12/11/2014  05:38:00       50.032      -71.200       67.023      108.178      139.353       96.368    11702.499    19419.264     9286.846        2.623        2.020       87.021       77.176        0.787      341.026       15.452      849.234
12/11/2014  05:39:00       22.230      -57.385       39.749       79.668       90.208       59.509     6346.945     8137.521     3541.381        1.169        0.901       61.540       64.298        1.092      341.022       15.445      849.265
12/11/2014  05:40:00       43.459     -109.805       38.517       85.801      109.861       79.619     7361.839    12069.524     6339.207        2.059        1.289      118.092       69.457        0.346      341.003       15.412      849.285
12/11/2014  05:41:00      106.040     -140.377       63.528       95.940      193.068       89.161     9204.502    37275.334     7949.608        4.470        2.721      175.927      102.420        0.339      341.081       15.544      849.264
12/11/2014  05:42:00       56.679     -114.284       20.750       93.413       90.709       68.502     8725.906     8228.042     4692.559        1.917        1.082      127.567       57.272        0.202      341.054       15.500      849.240
12/11/2014  05:43:00       12.296      -91.367       22.298       92.987      144.973       62.371     8646.558    21017.266     3890.150        2.127        1.678       92.190       60.067        0.425      341.093       15.567      849.266
12/11/2014  05:44:00      116.991     -116.095       45.962      142.795      244.389      112.104    20390.341    59725.963    12567.283        6.096        4.634      164.817      133.707        0.658      341.229       15.794      849.247
12/11/2014  05:45:00       41.048       66.724      151.282       91.623      146.695       98.735     8394.751    21519.464     9748.504        3.433        1.983       78.339       91.710        1.370      341.158       15.674      849.174
12/11/2014  05:46:00       58.941     -207.562        0.729      103.581      119.824       80.453    10728.956    14357.861     6472.656        3.905        1.578      215.768       60.161        0.078      341.180       15.712      849.110
12/11/2014  05:47:00      153.982     -214.403      -20.588       85.351       89.823       47.973     7284.817     8068.164     2301.419        4.388        0.883      263.968       41.170        0.024      341.188       15.724      849.153
12/11/2014  05:48:00      163.618     -189.810       26.532      120.478      179.056       73.267    14514.932    32060.966     5368.108        5.771        2.597      250.597       92.146        0.135      341.216       15.773      849.179
12/11/2014  05:49:00       60.913      -36.951       64.866       78.735       90.446       77.205     6199.155     8180.463     5960.631        1.481        1.017       71.244       57.380        0.649      341.147       15.658      849.095
12/11/2014  05:50:00       16.086        8.669       58.693       98.906       89.578       71.215     9782.304     8024.197     5071.520        1.332        1.144       18.273       69.159       14.324      341.083       15.548      849.048
12/11/2014  05:51:00       34.628       79.896      111.811      139.202      177.769      145.473    19377.066    31601.800    21162.462        4.610        3.607       87.078      139.790        2.577      341.106       15.585      848.974
12/11/2014  05:52:00      214.434     -105.841      146.961      213.411      273.353      193.687    45544.070    74721.741    37514.656       11.825        7.889      239.132      212.133        0.787      341.320       15.947      848.831
12/11/2014  05:53:00       60.619      -84.014      107.478      132.217      191.015      104.834    17481.225    36486.607    10990.243        4.361        3.248      103.600      112.980        1.189      341.248       15.826      848.984
12/11/2014  05:54:00      190.457     -144.596       32.988      183.891      198.328      129.260    33816.029    39333.998    16708.261        7.405        4.493      239.127      155.208        0.421      341.250       15.829      848.973
12/11/2014  05:55:00       27.584     -107.021       42.956       71.587      133.767       72.621     5124.739    17893.590     5273.836        2.117        1.415      110.519       77.590        0.493      341.206       15.756      849.018
12/11/2014  05:56:00      103.164      -91.200       31.128       90.824      116.152       87.580     8249.070    13491.201     7670.255        2.466        1.471      137.696       80.179        0.339      341.189       15.728      849.029
12/11/2014  05:57:00      144.531      -52.420       74.052      141.391      150.139       95.233    19991.444    22541.846     9069.357        4.035        2.580      153.744      115.427        0.564      341.166       15.689      849.055
12/11/2014  05:58:00       70.878     -159.024        7.564       97.303      113.562       76.617     9467.922    12896.423     5870.211        2.930        1.412      174.104       65.899        0.143      341.207       15.756      849.099
12/11/2014  05:59:00      207.507     -251.159       20.831      200.798      228.307       92.984    40319.651    52123.939     8645.998       10.381        5.054      325.791       90.617        0.077      341.283       15.885      849.066
12/11/2014  06:00:00       88.100     -126.457       34.971      126.044      190.472      104.574    15887.171    36279.688    10935.753        4.403        3.155      154.120      109.926        0.509      341.358       16.013      848.924
12/11/2014  06:01:00      138.841     -252.450        3.546      135.599      185.577      107.726    18387.067    34438.980    11604.785        7.371        3.222      288.111       89.420        0.096      341.353       16.003      848.894
12/11/2014  06:02:00        6.282       -1.429      106.712       62.261      107.924       68.918     3876.430    11647.529     4749.643        1.585        1.014        6.442       74.322      133.090      341.235       15.806      848.889
12/11/2014  06:03:00       44.870       32.101      105.818       68.214      102.856       77.233     4653.214    10579.416     5964.910        1.772        1.060       55.170       74.977        1.847      341.224       15.790      848.874
12/11/2014  06:04:00       36.807       20.321      115.340       88.506      109.641       87.653     7833.235    12021.117     7683.049        2.130        1.377       42.044       90.107        4.593      341.234       15.805      848.855
12/11/2014  06:05:00      -32.064      113.561      179.796       41.336       74.991       43.875     1708.671     5623.648     1924.999        2.775        0.463      118.001       50.052        0.180      341.160       15.679      848.804
12/11/2014  06:06:00      155.219     -166.917       31.809      161.191      232.188      104.486    25982.680    53911.138    10917.329        7.187        4.541      227.935      149.546        0.430      341.261       15.850      848.754
12/11/2014  06:07:00      224.099      -94.080       88.353      276.195      302.208      162.795    76283.857    91329.891    26502.335       13.046        9.706      243.046      222.053        0.835      341.251       15.831      848.733
12/11/2014  06:08:00      169.657     -157.618       64.151      237.735      283.197      148.906    56517.876    80200.336    22172.883       10.829        7.945      231.575      190.544        0.677      341.262       15.850      848.651
12/11/2014  06:09:00      152.053     -245.132       -0.572      155.442      163.691       96.424    24162.288    26794.765     9297.567        7.172        3.013      288.461      106.013        0.135      341.245       15.821      848.695
12/11/2014  06:10:00       55.546      101.351      201.132      139.902      171.597      135.716    19572.449    29445.473    18418.877        6.061        3.372      115.574      138.525        1.437      341.239       15.812      848.706
12/11/2014  06:11:00      -19.905       39.251      127.619       85.761      121.481       97.611     7354.913    14757.700     9527.997        2.493        1.582       44.010       67.366        2.343      341.276       15.875      848.721
12/11/2014  06:12:00       83.070      -80.760       39.912       81.865       98.347       71.404     6701.912     9672.170     5098.592        1.824        1.074      115.856       70.307        0.368      341.268       15.862      848.713
12/11/2014  06:13:00       31.057      -14.639      123.851      117.022      197.052      127.975    13694.145    38829.482    16377.568        4.270        3.445       34.334      132.370       14.863      341.262       15.851      848.655
12/11/2014  06:14:00      111.258      -84.276      106.123      162.436      278.839      132.249    26385.427    77751.200    17489.862        7.616        6.081      139.573      181.800        1.697      341.273       15.868      848.657
12/11/2014  06:15:00       94.502     -124.476       75.066      126.674      183.438      125.213    16046.198    33649.355    15678.386        4.770        3.269      156.285      134.054        0.736      341.328       15.960      848.576
12/11/2014  06:16:00       90.907       -1.062      158.165      151.896      197.504      124.907    23072.441    39007.802    15601.820        5.547        3.884       90.913      149.018        2.687      341.391       16.068      848.546
12/11/2014  06:17:00      163.730     -204.387       51.370      158.516      255.511      119.755    25127.385    65285.671    14341.222        8.797        5.238      261.881      139.224        0.283      341.366       16.025      848.609
12/11/2014  06:18:00      221.415     -108.589       77.232      171.955      233.551      147.331    29568.424    54545.904    21706.462        8.628        5.291      246.610      160.375        0.423      341.347       15.993      848.601
12/11/2014  06:19:00       83.723       26.722      187.131      219.904      271.475      147.382    48357.777    73698.410    21721.406        9.323        7.189       87.884      185.194        4.441      341.271       15.864      848.591
12/11/2014  06:20:00      268.685     -117.754      190.967      275.051      346.319      221.540    75652.931   119937.113    49080.097       18.355       12.234      293.356      229.842        0.614      341.392       16.069      848.415
12/11/2014  06:21:00      190.976     -192.819       52.942      210.728      267.441      168.463    44406.386    71524.925    28379.897       11.035        7.216      271.387      170.101        0.393      341.375       16.040      848.467
12/11/2014  06:22:00       54.762      -69.138      156.009      153.140      280.996      156.821    23451.986    78958.817    24592.801        7.954        6.350       88.199      190.200        4.650      341.381       16.050      848.567
12/11/2014  06:23:00      130.654     -145.041       87.825      172.214      250.136      163.182    29657.710    62568.151    26628.247        8.231        5.943      195.211      172.959        0.785      341.453       16.172      848.531
12/11/2014  06:24:00       61.357      -70.660       49.151       95.591      125.590       83.006     9137.544    15772.897     6890.069        2.148        1.590       93.582       91.107        0.948      341.353       16.005      848.556
12/11/2014  06:25:00      148.688     -100.053       54.555      147.408      212.330      113.221    21729.085    45084.039    12819.032        5.735        3.982      179.217      135.620        0.573      341.378       16.046      848.519
12/11/2014  06:26:00      132.233      -73.789       86.766      159.267      217.554      141.138    25365.914    47329.923    19919.817        6.152        4.631      151.428      158.506        1.096      341.390       16.064      848.478
12/11/2014  06:27:00      202.026     -126.194       89.118      205.155      281.688      144.843    42088.670    79348.004    20979.537       10.352        7.121      238.200      185.514        0.607      341.353       16.004      848.424
12/11/2014  06:28:00      153.487     -192.042       47.085      156.262      263.334      125.735    24417.756    69344.660    15809.271        8.609        5.479      245.843      162.402        0.436      341.330       15.964      848.419
12/11/2014  06:29:00      141.066     -103.471       49.482      169.923      214.190      120.856    28873.804    45877.175    14606.198        6.119        4.468      174.945      146.427        0.701      341.293       15.903      848.447
12/11/2014  06:30:00      137.510     -149.552       76.027      148.790      224.242      123.953    22138.520    50284.327    15364.449        6.740        4.389      203.162      145.043        0.510      341.282       15.884      848.494
12/11/2014  06:31:00      167.620     -203.533       -5.122      180.617      134.394       98.263    32622.484    18061.664     9655.541        6.493        3.017      263.671       76.757        0.085      341.310       15.931      848.532
12/11/2014  06:32:00      121.770       58.693      191.633      171.704      212.705      149.621    29482.320    45243.495    22386.326        7.603        4.856      135.177      168.283        1.550      341.283       15.885      848.530
12/11/2014  06:33:00      127.803     -171.163       65.125      174.868      252.447      129.190    30578.959    63729.697    16689.954        8.041        5.550      213.613      133.465        0.390      341.273       15.868      848.569
12/11/2014  06:34:00      117.714     -156.710      106.978      181.009      310.751      172.403    32764.362    96566.116    29722.718       10.442        7.953      195.996      208.649        1.133      341.322       15.950      848.538
12/11/2014  06:35:00      261.955     -212.069       47.944      229.464      305.598      192.430    52653.885    93390.294    37029.168       14.945        9.154      337.036      218.248        0.419      341.329       15.964      848.435
12/11/2014  06:36:00      243.181     -195.718       31.958      140.217      207.961      122.351    19660.674    43247.616    14969.709        8.816        3.894      312.158      129.766        0.173      341.254       15.837      848.458
12/11/2014  06:37:00      270.531     -236.505       74.821      222.876      285.737      172.022    49673.923    81645.859    29591.626       14.778        8.046      359.335      207.268        0.333      341.250       15.830      848.450
12/11/2014  06:38:00      181.948     -178.922       94.029      193.062      368.092      209.898    37272.912   135491.657    44057.349       14.535       10.841      255.182      245.068        0.922      341.246       15.821      848.435
12/11/2014  06:39:00      209.996     -182.562       90.728      223.988      299.521      196.508    50170.691    89712.849    38615.493       13.204        8.925      278.257      221.505        0.634      341.224       15.784      848.460
12/11/2014  06:40:00      323.549     -251.921       63.341      284.941      347.534      183.820    81191.391   120779.966    33789.610       20.391       11.788      410.059      248.771        0.368      341.238       15.807      848.452
12/11/2014  06:41:00      268.198     -325.404      -13.861      228.242      255.256      146.532    52094.607    65155.580    21471.587       15.834        6.936      421.685      173.018        0.168      341.251       15.829      848.450
12/11/2014  06:42:00      105.809      -29.467      114.383      118.738      221.104      142.209    14098.788    48887.032    20223.388        5.416        4.160      109.835      147.941        1.814      341.233       15.800      848.516
12/11/2014  06:43:00      238.794     -170.709      103.943      240.494      255.725      175.419    57837.503    65395.388    30771.692       12.546        7.700      293.537      177.381        0.365      341.286       15.891      848.438
12/11/2014  06:44:00      216.220     -190.827       44.152      221.408      272.279      156.115    49021.326    74135.899    24371.938       11.629        7.376      288.385      182.127        0.399      341.286       15.891      848.466
12/11/2014  06:45:00       69.122      -38.039      118.065      129.733      202.906       99.773    16830.779    41170.974     9954.586        4.405        3.398       78.897      117.069        2.202      341.239       15.813      848.573
12/11/2014  06:46:00      258.896     -170.236      153.888      223.768      406.764      216.077    50072.304   165456.672    46689.244       19.090       13.111      309.850      263.578        0.724      341.234       15.801      848.457
12/11/2014  06:47:00      419.713     -348.832       70.327      333.264      421.422      245.556   111065.149   177596.289    60297.751       32.580       17.448      545.750      298.460        0.299      341.291       15.899      848.403
12/11/2014  06:48:00      465.047     -520.687      -59.363      252.912      271.488      167.883    63964.552    73705.932    28184.763       32.835        8.293      698.128      179.748        0.066      341.226       15.788      848.428
12/11/2014  06:49:00      233.936     -235.637       28.442      192.023      239.659      129.354    36872.962    57436.202    16732.544       11.103        5.552      332.041      128.242        0.149      341.182       15.714      848.506
12/11/2014  06:50:00      128.225        9.947      143.564      161.754      172.492      143.313    26164.329    29753.639    20538.678        5.679        3.823      128.611      141.120        1.204      341.130       15.627      848.499
12/11/2014  06:51:00      207.023     -187.997        7.347      178.884      235.492      126.556    31999.565    55456.327    16016.297        9.084        5.174      279.645      160.587        0.330      341.091       15.560      848.499
12/11/2014  06:52:00      331.348     -274.035       70.093      208.450      340.487      164.287    43451.544   115931.459    26990.244       18.805        9.319      429.985      194.066        0.204      341.165       15.686      848.435
12/11/2014  06:53:00      205.584      -65.534      109.678      281.174      307.779      185.027    79058.962    94727.895    34235.071       13.326       10.401      215.777      223.271        1.071      341.170       15.695      848.393
12/11/2014  06:54:00      200.162     -295.266       48.702      228.793      349.490      175.399    52346.182   122143.289    30764.897       16.740       10.263      356.717      198.389        0.309      341.201       15.747      848.464
12/11/2014  06:55:00      157.362      -94.511      157.961      239.223      338.901      193.817    57227.790   114854.225    37565.160       13.411       10.482      183.563      249.021        1.840      341.173       15.697      848.490
12/11/2014  06:56:00      162.976       48.018      292.231      246.390      463.885      275.266    60708.072   215189.358    75771.378       23.290       17.583      169.903      338.834        3.977      341.220       15.779      848.401
12/11/2014  06:57:00      190.684     -161.965      159.243      275.015      381.599      233.067    75632.997   145618.056    54320.017       18.171       13.779      250.186      265.882        1.129      341.232       15.798      848.437
12/11/2014  06:58:00      165.643     -221.081       69.188      199.036      291.185      171.974    39615.377    84788.784    29575.040       11.751        7.699      276.250      179.296        0.421      341.225       15.785      848.456
12/11/2014  06:59:00      245.542     -217.610       78.180      243.308      316.519      170.383    59198.865   100184.174    29030.501       15.105        9.421      328.093      210.247        0.411      341.201       15.746      848.496
12/11/2014  07:00:00      316.664     -313.167       92.865      341.687      412.953      241.967   116750.022   170530.162    58547.972       27.633       17.291      445.364      271.850        0.373      341.238       15.808      848.415
12/11/2014  07:01:00      208.313     -244.329       23.937      187.556      238.711      136.362    35177.385    56982.799    18594.609       10.719        5.538      321.078      150.357        0.219      341.225       15.786      848.528
12/11/2014  07:02:00      205.110      -17.645      207.160      247.446      415.701      259.236    61229.479   172807.623    67203.464       19.321       15.062      205.867      302.431        2.158      341.218       15.774      848.476
12/11/2014  07:03:00      126.037     -209.293      121.546      280.061      263.764      174.155    78434.170    69571.381    30329.967       12.636        8.917      244.313      160.922        0.434      341.223       15.783      848.390
12/11/2014  07:04:00      122.120     -302.118       40.579      169.169      339.034      171.645    28618.098   114944.334    29461.861       14.040        8.651      325.866      192.378        0.349      341.241       15.814      848.453
12/11/2014  07:05:00      232.565     -345.692       59.463      245.335      364.063      174.948    60189.489   132541.800    30606.863       20.019       11.167      416.641      193.005        0.215      341.222       15.780      848.344
12/11/2014  07:06:00      129.144      -79.888       68.773      243.336      218.692       97.416    59212.609    47826.205     9489.792        7.214        5.826      151.856      124.411        0.671      341.191       15.730      848.370
12/11/2014  07:07:00      193.525      -94.094      122.200      202.966      282.326      169.506    41195.000    79707.752    28732.268       10.541        7.482      215.187      189.905        0.779      341.224       15.785      848.209
12/11/2014  07:08:00      209.050     -252.770       -0.307      162.340      153.923      107.285    26354.160    23692.168    11510.162        8.456        3.078      328.016       83.402        0.065      341.179       15.708      848.269
12/11/2014  07:09:00      181.700      -24.764      173.324      249.653      298.134      201.876    62326.827    88884.087    40754.100       12.778        9.598      183.380      222.044        1.466      341.180       15.710      848.217
12/11/2014  07:10:00       99.089       26.238      185.813      139.027      220.611      123.942    19328.569    48669.191    15361.558        6.418        4.168      102.504      148.486        2.098      341.118       15.605      848.179
12/11/2014  07:11:00      436.352     -338.587       44.437      304.835      394.249      244.433    92924.290   155432.432    59747.718       30.750       15.405      552.308      281.591        0.260      341.146       15.651      848.073
12/11/2014  07:12:00      583.702     -610.856     -113.189      264.488      302.019      132.439    69953.651    91215.259    17540.206       45.265        8.935      844.898      112.552        0.018      341.174       15.701      848.013
12/11/2014  07:13:00      354.287     -382.149      -26.879      177.272      284.629      128.382    31425.395    81013.544    16481.924       20.057        6.446      521.112      158.237        0.092      341.124       15.615      848.113
12/11/2014  07:14:00      299.372     -276.408      -15.292      223.477      305.692      179.214    49942.042    93447.863    32117.742       17.085        8.775      407.462      214.252        0.276      341.148       15.655      848.123
12/11/2014  07:15:00      195.104     -241.343       73.799      178.850      244.091      126.475    31987.372    59580.378    15996.006       10.464        5.378      310.342      133.755        0.186      341.147       15.655      848.136
12/11/2014  07:16:00      294.047     -206.449       30.722      178.961      196.018      122.783    32026.882    38422.960    15075.667       10.776        4.276      359.284      144.713        0.162      341.114       15.598      848.215
12/11/2014  07:17:00      294.730     -155.764       90.790      243.417      368.697      217.413    59251.874   135937.760    47268.293       18.087       12.123      333.359      263.857        0.626      341.112       15.595      848.094
12/11/2014  07:18:00      321.595     -380.829       -0.596      225.594      324.272      202.373    50892.518   105152.175    40954.773       22.269        9.850      498.451      228.231        0.210      341.110       15.591      848.052
12/11/2014  07:19:00      287.266     -316.341       32.154      225.119      341.117      195.705    50678.376   116360.753    38300.505       19.444       10.267      427.309      217.760        0.260      341.103       15.579      848.088
12/11/2014  07:20:00      193.475     -272.803       24.233      194.847      258.666      117.655    37965.173    66908.034    13842.670       11.556        5.936      334.446      158.702        0.225      341.136       15.635      848.155
12/11/2014  07:21:00      195.137     -101.869      145.246      246.614      342.454      242.897    60818.579   117274.513    58999.115       15.327       11.855      220.126      253.686        1.328      341.169       15.692      848.072
12/11/2014  07:22:00      376.537     -396.337       12.906      242.944      386.200      194.862    59022.019   149150.593    37971.355       27.254       12.307      546.684      231.000        0.179      341.160       15.677      848.020
12/11/2014  07:23:00      326.701     -196.067       75.954      281.320      412.329      240.733    79140.735   170014.995    57952.397       22.897       15.355      381.019      287.663        0.570      341.139       15.640      847.997
12/11/2014  07:24:00      231.225     -267.104       47.498      211.375      328.772      175.574    44679.260   108090.791    30826.197       15.529        9.180      353.284      202.672        0.329      341.134       15.632      847.959
12/11/2014  07:25:00      209.523     -103.586      159.456      270.329      338.471      202.622    73077.896   114562.716    41055.675       15.433       11.435      233.730      230.274        0.971      341.167       15.689      847.952
12/11/2014  07:26:00      166.563     -161.475      103.360      254.491      287.310      158.498    64765.536    82546.898    25121.633       11.843        8.622      231.985      189.853        0.670      341.274       15.870      847.947
12/11/2014  07:27:00      190.095     -116.706      127.520      251.070      289.624      185.218    63035.921    83882.161    34305.547       12.358        9.061      223.061      223.311        1.002      341.238       15.808      847.881
12/11/2014  07:28:00       90.851      -25.188      157.251      149.946      253.446      154.208    22483.794    64234.735    23780.042        7.204        5.525       94.278      168.909        3.210      341.229       15.793      847.891
12/11/2014  07:29:00      397.142     -482.294      -23.628      241.253      273.340      123.935    58202.785    74714.876    15359.954       26.955        7.414      624.763      143.464        0.053      341.270       15.863      847.785
12/11/2014  07:30:00      105.958      -94.176      136.865      167.200      302.023      174.725    27955.822    91217.614    30528.867        9.424        7.485      141.762      194.218        1.877      341.242       15.815      847.852
12/11/2014  07:31:00      192.925     -168.067      103.042      279.950      341.826      207.348    78372.080   116844.846    42993.251       15.710       11.911      255.864      241.855        0.893      341.289       15.894      847.834
12/11/2014  07:32:00      319.635     -157.890      227.426      444.063      461.877      290.121   197192.377   213330.092    84170.290       33.666       24.735      356.505      360.043        1.020      341.373       16.036      847.707
12/11/2014  07:33:00      294.598     -141.674      189.625      320.010      373.224      243.919   102406.719   139295.894    59496.653       22.195       15.060      326.893      280.887        0.738      341.391       16.068      847.775
12/11/2014  07:34:00      148.137      -92.113      166.200      290.003      326.024      205.193    84101.643   106291.329    42104.068       14.523       11.625      174.440      233.035        1.785      341.323       15.954      847.821
12/11/2014  07:35:00      212.024     -222.651       63.540      191.156      279.204      170.158    36540.471    77954.837    28953.658       12.098        7.172      307.454      193.607        0.397      341.265       15.853      847.818
12/11/2014  07:36:00      241.736     -172.922       82.460      269.614      454.167      233.627    72691.823   206267.831    54581.528       21.427       16.677      297.217      306.804        1.066      341.244       15.821      847.771
12/11/2014  07:37:00      196.175     -164.482       81.285      225.334      337.616      195.026    50775.277   113984.707    38035.011       13.743       10.140      256.005      231.084        0.815      341.230       15.795      847.872
12/11/2014  07:38:00      231.986      -85.443      178.578      283.486      300.418      189.091    80364.037    90251.145    35755.591       14.965       10.319      247.221      228.468        0.854      341.217       15.773      847.897
12/11/2014  07:39:00      343.420     -322.275      108.583      289.308      379.914      218.479    83699.156   144334.940    47733.254       25.462       13.788      470.955      243.888        0.268      341.220       15.778      847.828
12/11/2014  07:40:00      305.879     -289.235      109.654      321.772      391.737      233.861   103537.106   153458.084    54690.978       25.040       15.584      420.974      251.425        0.357      341.202       15.749      847.705
12/11/2014  07:41:00      279.881     -282.057      102.144      279.827      398.999      233.093    78302.939   159199.900    54332.441       23.002       14.592      397.353      280.835        0.500      341.212       15.763      847.738
12/11/2014  07:42:00      405.712     -416.284      -18.864      339.888      350.252      186.099   115524.047   122676.690    34632.878       30.549       13.642      581.287      244.323        0.177      341.213       15.766      847.734
12/11/2014  07:43:00      186.797     -264.512      118.810      253.848      318.691      213.004    64438.898   101563.969    45370.861       16.513       10.569      323.821      204.887        0.400      341.226       15.788      847.845
12/11/2014  07:44:00      139.614     -178.985      136.036      230.187      280.274      197.076    52985.959    78553.491    38838.806       12.017        8.519      226.997      202.119        0.793      341.220       15.778      847.909
12/11/2014  07:45:00       89.940      -62.182      177.813      186.242      320.055      211.128    34686.059   102434.886    44575.167       11.260        9.085      109.343      235.415        4.635      341.208       15.758      847.929
12/11/2014  07:46:00      113.310      -94.629      121.030      172.184      275.899      161.189    29647.275    76120.503    25981.779        8.407        6.587      147.627      170.197        1.329      341.176       15.704      847.960
12/11/2014  07:47:00      400.133     -399.419        6.517      293.445      345.098      180.370    86110.112   119092.880    32533.230       27.866       11.887      565.369      212.027        0.141      341.161       15.679      847.830
12/11/2014  07:48:00      283.281     -165.706      160.348      333.918      452.955      314.412   111501.267   205167.918    98854.812       27.439       20.776      328.187      340.615        1.077      341.143       15.649      847.819
12/11/2014  07:49:00      530.150     -629.053      -81.264      330.117      405.322      197.948   108977.143   164285.854    39183.437       49.785       15.622      822.658      230.862        0.079      341.133       15.630      847.708
12/11/2014  07:50:00      264.272     -226.387      169.653      332.060      396.880      237.758   110264.065   157514.122    56528.946       23.702       16.215      347.981      276.832        0.633      341.159       15.674      847.833
12/11/2014  07:51:00      412.715     -514.543      -26.877      407.005      394.650      198.004   165652.829   155748.858    39205.728       39.814       18.030      659.612      246.215        0.139      341.135       15.634      847.823
12/11/2014  07:52:00      279.423     -346.810       64.291      349.225      358.545      206.769   121958.397   128554.412    42753.414       24.782       14.663      445.370      250.115        0.315      341.153       15.664      847.859
12/11/2014  07:53:00      396.768     -357.809      104.504      349.212      426.323      253.680   121948.784   181751.367    64353.564       33.214       18.403      534.277      294.754        0.304      341.153       15.664      848.001
12/11/2014  07:54:00      255.953     -290.237      103.148      276.445      377.512      232.973    76421.852   142515.624    54276.408       21.675       13.661      386.975      272.208        0.495      341.164       15.683      847.953
12/11/2014  07:55:00      266.584     -218.158      151.676      307.396      420.468      248.958    94492.305   176793.024    61980.074       23.740       16.663      344.470      287.239        0.695      341.122       15.612      847.955
12/11/2014  07:56:00      515.045     -279.633      157.485      409.007      439.761      320.907   167286.429   193389.563   102981.111       41.587       23.183      586.060      352.333        0.361      341.090       15.559      847.707
12/11/2014  07:57:00      263.708     -265.340      114.209      365.510      419.151      292.694   133597.633   175687.912    85669.924       27.390       19.748      374.095      313.555        0.703      341.099       15.573      847.826
12/11/2014  07:58:00      112.705     -115.963      142.817      226.306      338.044      187.558    51214.205   114273.808    35177.852       12.357       10.033      161.709      230.323        2.029      341.087       15.554      848.047
12/11/2014  07:59:00      384.111     -296.494      151.453      348.500      415.979      252.440   121452.127   173038.736    63725.731       30.823       17.911      485.232      273.915        0.319      341.048       15.487      848.023
12/11/2014  08:00:00      365.646     -282.627      111.339      340.429      478.812      273.660   115891.978   229260.628    74889.760       32.292       21.002      462.141      346.371        0.562      340.999       15.404      848.008
12/11/2014  08:01:00      247.816     -179.857      147.214      318.977      397.383      250.738   101746.545   157913.143    62869.314       21.892       16.126      306.205      267.865        0.765      340.956       15.332      848.023
12/11/2014  08:02:00      198.677     -174.444      159.098      271.677      384.630      256.022    73808.183   147939.865    65547.257       19.120       14.365      264.392      283.554        1.150      340.935       15.296      848.042
12/11/2014  08:03:00      237.907     -361.598       -8.750      204.239      269.939      123.950    41713.432    72867.103    15363.698       15.866        6.497      432.843      152.644        0.124      340.964       15.344      848.114
12/11/2014  08:04:00      155.957     -243.158      -15.342      214.467      191.910      108.686    45996.138    36829.469    11812.632        8.914        4.732      288.875      113.376        0.154      340.947       15.317      848.045
12/11/2014  08:05:00      151.706      -72.474       67.418      140.001      227.755      124.379    19600.150    51872.423    15470.181        5.986        4.347      168.129      142.284        0.716      340.937       15.299      847.962
12/11/2014  08:06:00      183.149      -97.961       89.663      191.607      246.043      150.180    36713.258    60536.945    22554.033        8.547        5.990      207.701      188.126        0.820      340.916       15.264      847.878
12/11/2014  08:07:00       79.727      -10.345       86.724       99.413      160.628       97.540     9882.932    25801.271     9514.050        2.958        2.260       80.396      103.923        1.671      340.880       15.203      847.820
12/11/2014  08:08:00      191.216      -45.673      122.212      184.551      281.313      152.843    34058.936    79137.230    23361.050        9.504        6.828      196.594      184.363        0.879      340.932       15.291      847.812
12/11/2014  08:09:00      220.117      -65.278      152.160      256.853      332.961      220.948    65973.539   110862.992    48818.030       15.071       11.283      229.593      254.434        1.228      340.988       15.383      847.745
12/11/2014  08:10:00      143.685       96.840      224.255      222.995      234.264      169.344    49726.581    54879.486    28677.322       10.677        6.664      173.272      172.196        0.988      341.020       15.440      847.639
12/11/2014  08:11:00      347.974     -266.077       55.343      266.873      349.490      246.404    71221.338   122143.166    60714.865       22.446       12.704      438.045      267.229        0.372      341.013       15.429      847.554
12/11/2014  08:12:00      295.111     -380.388       56.022      312.220      394.928      204.284    97481.147   155968.342    41732.120       26.499       14.759      481.441      244.172        0.257      341.035       15.466      847.562
12/11/2014  08:13:00      545.008     -446.231       -7.810      407.486      492.342      237.177   166045.173   242401.091    56252.701       48.036       23.235      704.384      302.857        0.185      340.936       15.298      847.355
12/11/2014  08:14:00      421.564     -380.401       81.258      424.879      481.678      306.785   180522.106   232013.727    94116.838       41.773       25.333      567.822      368.332        0.421      340.881       15.204      847.341
12/11/2014  08:15:00      407.808     -486.963      -21.557      338.619      362.232      180.231   114662.655   131211.676    32483.322       34.108       13.918      635.170      235.313        0.137      340.884       15.210      847.601
12/11/2014  08:16:00      279.359     -224.747       97.097      294.910      371.079      220.318    86971.757   137699.837    48540.135       20.554       13.661      358.542      243.352        0.461      340.823       15.107      847.527
12/11/2014  08:17:00      277.687      -25.020      215.078      265.263      382.788      232.202    70364.573   146526.400    53917.678       19.735       13.540      278.812      280.011        1.009      340.797       15.061      847.509
12/11/2014  08:18:00      187.792       69.183      230.688      237.169      356.410      246.857    56249.096   127028.338    60938.198       16.869       12.211      200.130      271.463        1.840      340.749       14.981      847.599
12/11/2014  08:19:00      208.467     -101.372      190.193      243.257      405.667      215.470    59174.187   164565.556    46427.397       17.998       13.508      231.808      273.499        1.392      340.715       14.924      847.579
12/11/2014  08:20:00      235.108      182.215      413.187      284.250      493.323      291.684    80797.940   243367.912    85079.707       33.414       20.462      297.453      347.557        1.365      340.725       14.940      847.415
12/11/2014  08:21:00      280.228     -132.647      106.073      212.263      307.878      252.141    45055.511    94788.849    63575.132       15.536       10.171      310.037      245.055        0.625      340.876       15.196      847.696
12/11/2014  08:22:00      161.214     -227.574       10.785      187.261      188.761      154.178    35066.747    35630.755    23770.785        8.616        4.723      278.891      145.971        0.274      340.906       15.247      847.874
12/11/2014  08:23:00      124.187      164.579      230.598      195.178      185.675      126.951    38094.489    34475.349    16116.441        9.217        4.434      206.176      146.255        0.503      340.811       15.087      847.944
12/11/2014  08:24:00      121.752       57.554       91.880      137.398      139.978       98.969    18878.237    19593.852     9794.909        3.741        2.413      134.670       96.031        0.508      340.759       14.998      847.908
12/11/2014  08:25:00      131.749       43.984      138.955      197.988      198.737       98.270    39199.147    39496.310     9656.912        6.346        4.418      138.897      138.251        0.991      340.795       15.059      847.845
12/11/2014  08:26:00      206.128       27.214      136.339      212.416      235.562      134.309    45120.732    55489.452    18038.871        9.021        5.932      207.917      144.836        0.485      340.808       15.082      847.805
12/11/2014  08:27:00      146.031     -247.090       63.002      156.079      253.011      129.629    24360.790    64014.677    16803.654        9.574        5.259      287.016      144.283        0.253      340.940       15.304      847.799
12/11/2014  08:28:00       94.503      159.664      214.070      169.722      157.902      113.104    28805.535    24932.938    12792.484        7.338        3.327      185.536       86.588        0.218      340.917       15.267      847.708
12/11/2014  08:29:00      238.098       90.862      227.502      254.474      264.481      155.587    64757.115    69950.383    24207.255       13.778        7.946      254.846      176.002        0.477      340.967       15.350      847.640
12/11/2014  08:30:00      163.532      -81.263      120.744      198.542      287.245      158.005    39418.877    82509.933    24965.643        9.738        7.345      182.610      190.552        1.089      340.991       15.390      847.640
12/11/2014  08:31:00      140.105      -19.348      132.848      161.313      283.001      134.438    26021.907    80089.437    18073.482        8.089        6.209      141.434      174.101        1.515      341.016       15.433      847.670
12/11/2014  08:32:00      146.337      -63.945      128.599      179.541      261.326      143.122    32234.879    68291.056    20483.846        8.150        6.050      159.698      162.580        1.036      341.028       15.455      847.668
12/11/2014  08:33:00      140.048        3.615      131.700      150.528      197.327      129.925    22658.678    38937.780    16880.473        5.771        3.924      140.095      139.678        0.994      340.998       15.403      847.704
12/11/2014  08:34:00      218.778       37.999      144.958      190.929      177.582      114.230    36453.741    31535.505    13048.542        7.566        4.052      222.053       98.267        0.196      340.961       15.340      847.654
12/11/2014  08:35:00      183.815      -14.355      109.577      169.407      191.557      138.016    28698.771    36693.990    19048.491        6.520        4.222      184.375      145.427        0.622      341.005       15.416      847.561
12/11/2014  08:36:00      157.563       22.753      115.070      133.080      155.105       98.093    17710.229    24057.705     9622.229        4.498        2.570      159.197      100.205        0.396      341.008       15.419      847.519
12/11/2014  08:37:00       80.395       -1.061       76.807      101.204      103.895       64.865    10242.251    10794.228     4207.444        1.880        1.262       80.402       61.282        0.581      340.979       15.371      847.553
12/11/2014  08:38:00      141.213     -146.600       31.870      113.850      194.505       89.880    12961.874    37832.269     8078.351        5.065        2.944      203.550      112.685        0.306      340.989       15.389      847.662
12/11/2014  08:39:00      117.674       76.109      170.672      132.781      148.448      112.804    17630.666    22036.750    12724.717        5.057        2.620      140.142       94.509        0.455      341.023       15.445      847.674
12/11/2014  08:40:00      217.624     -197.755      100.344      227.480      275.033      177.163    51747.096    75643.246    31386.670       12.762        7.939      294.053      182.767        0.386      341.055       15.500      847.799
12/11/2014  08:41:00      130.857     -320.409       85.468      310.204      300.277      175.092    96226.809    90166.046    30657.293       17.203       10.853      346.100      199.543        0.332      340.981       15.372      847.739
12/11/2014  08:42:00      438.907     -249.925      151.968      372.762      546.224      340.274   138951.398   298361.089   115786.693       41.554       27.655      505.076      400.542        0.629      340.860       15.170      847.378
12/11/2014  08:43:00      278.773     -248.634       56.712      262.236      331.951      224.035    68767.564   110191.343    50191.489       18.590       11.458      373.541      253.582        0.461      340.868       15.182      847.582
12/11/2014  08:44:00      260.739     -184.814      120.437      279.151      375.285      211.133    77925.376   140838.466    44577.111       18.994       13.167      319.595      260.518        0.664      340.902       15.239      847.719
12/11/2014  08:45:00      139.788      -88.117      144.369      183.121      263.174      145.929    33533.410    69260.351    21295.281        8.609        6.204      165.243      176.509        1.141      340.908       15.251      847.729
12/11/2014  08:46:00      246.611     -164.179       80.670      204.570      274.302      166.417    41848.957    75241.346    27694.548       11.950        7.239      296.263      171.513        0.335      340.872       15.188      847.710
12/11/2014  08:47:00       47.197      -76.461      105.584      133.553      258.516      176.788    17836.272    66830.557    31254.062        6.755        5.796       89.855      189.424        4.444      340.893       15.225      847.709
12/11/2014  08:48:00      177.807     -270.064      -11.946      140.045      155.392       94.370    19612.666    24146.785     8905.625        7.867        2.633      323.341       94.804        0.086      340.892       15.223      847.840
12/11/2014  08:49:00       65.512      -79.438      135.028      120.680      224.131      146.192    14563.686    50234.636    21372.246        5.749        4.309      102.967      153.440        2.221      340.849       15.150      847.857
12/11/2014  08:50:00      250.855     -218.717        1.098      205.880      198.122      106.893    42386.402    39252.262    11426.180       10.190        4.653      332.814      107.671        0.105      340.840       15.137      847.921
12/11/2014  08:51:00      159.023       86.408      148.787      178.976      148.912       95.932    32032.296    22174.915     9202.980        5.914        3.171      180.982      114.371        0.399      340.828       15.115      847.867
12/11/2014  08:52:00      139.198      -12.637       72.434      132.159      139.035      105.200    17465.955    19330.702    11066.939        3.631        2.393      139.770       89.490        0.410      340.821       15.107      847.841
12/11/2014  08:53:00      220.546     -229.959       -3.528      150.885      179.068      107.124    22766.189    32065.391    11475.516        8.391        3.315      318.625       94.665        0.088      340.845       15.143      847.825
12/11/2014  08:54:00      -10.534      -12.391       74.762       87.594      109.698       67.158     7672.640    12033.665     4510.156        1.503        1.211       16.264       60.285       13.740      340.841       15.139      847.844
12/11/2014  08:55:00      172.173     -125.580       28.675      136.686      185.479       92.507    18683.174    34402.557     8557.519        5.393        3.082      213.105      108.936        0.261      340.887       15.216      847.786
12/11/2014  08:56:00       68.654      111.964      134.591      117.146      143.423      107.668    13723.283    20570.283    11592.452        4.062        2.294      131.336      109.723        0.698      340.977       15.366      847.672
12/11/2014  08:57:00      142.296     -114.373       89.294      156.428      215.686      125.988    24469.725    46520.622    15872.901        6.407        4.343      182.563      139.376        0.583      340.986       15.382      847.610
12/11/2014  08:58:00       96.979      -73.525       61.395      103.938      163.296      114.234    10803.029    26665.559    13049.313        3.454        2.526      121.700      123.195        1.025      341.024       15.449      847.549
12/11/2014  08:59:00      203.586     -155.155       13.751      153.259      140.109       97.281    23488.346    19630.443     9463.615        5.914        2.629      255.970      111.235        0.189      341.020       15.442      847.477
12/11/2014  09:00:00      193.828      -48.926       85.298      199.902      220.084      165.525    39960.717    48437.052    27398.385        8.149        5.790      199.907      188.445        0.889      340.991       15.391      847.491
12/11/2014  09:01:00      331.449      -97.904      165.670      325.899      365.571      210.081   106210.117   133642.352    44134.047       21.538       14.199      345.606      262.217        0.576      340.923       15.274      847.155
12/11/2014  09:02:00      208.355     -121.781      134.669      242.762      335.099      214.097    58933.587   112291.643    45837.449       14.668       10.853      241.335      238.266        0.975      340.940       15.303      847.310
12/11/2014  09:03:00       17.228     -160.562       61.085      189.620      238.900      129.457    35955.556    57073.200    16759.195        6.978        5.489      161.484      129.331        0.641      340.972       15.358      847.361
12/11/2014  09:04:00      272.029     -234.113       71.403      218.153      253.878      179.154    47590.616    64454.116    32096.161       13.900        7.207      358.899      179.303        0.250      340.965       15.348      847.348
12/11/2014  09:05:00       50.195     -110.978       50.354      195.067      215.329      143.821    38051.038    46366.495    20684.605        6.122        5.255      121.801      150.741        1.532      340.996       15.399      847.496
12/11/2014  09:06:00      -26.710     -272.193       33.986      221.516      212.503      110.342    49069.426    45157.324    12175.305        9.116        5.320      273.500       71.113        0.068      341.021       15.442      847.525
12/11/2014  09:07:00       96.659     -303.307       -3.221      110.618      160.355       76.555    12236.334    25713.748     5860.725        7.257        2.191      318.336       60.503        0.036      341.143       15.646      847.549
12/11/2014  09:08:00       27.724       28.494       84.281       56.334       94.921       66.413     3173.550     9009.980     4410.749        1.264        0.830       39.756       71.388        3.224      341.113       15.599      847.548
12/11/2014  09:09:00      124.091      -84.686       47.888      107.010      158.172       79.096    11451.053    25018.330     6256.109        3.379        2.136      150.234       99.410        0.438      341.100       15.576      847.534
12/11/2014  09:10:00      192.513       50.353      135.489      190.755      243.975      178.650    36387.325    59523.943    31915.790        9.286        6.391      198.989      198.596        0.996      341.094       15.566      847.565
12/11/2014  09:11:00      228.715     -262.084      -16.032      174.709      157.682       98.598    30523.074    24863.495     9721.591        9.317        3.255      347.848      107.803        0.096      341.106       15.586      847.630
12/11/2014  09:12:00      129.601     -205.193       13.950      135.915      221.775      117.957    18472.984    49184.094    13913.926        7.032        4.079      242.695      113.124        0.217      341.126       15.619      847.730
12/11/2014  09:13:00      -10.802     -369.049      -14.692      199.844      217.851      131.076    39937.533    47459.047    17180.889       12.053        5.229      369.208      127.071        0.118      341.076       15.535      847.842
12/11/2014  09:14:00       29.347     -188.343       47.525      166.136      258.422      147.292    27601.230    66781.823    21694.964        7.731        5.804      190.616      162.078        0.723      341.101       15.577      847.825
12/11/2014  09:15:00        9.167      -63.954      180.733      183.849      297.699      220.435    33800.352    88624.802    48591.443       10.389        8.551       64.608      218.286       11.415      340.955       15.329      847.766
12/11/2014  09:16:00      175.486     -118.312       96.647      204.429      323.995      167.963    41791.236   104972.705    28211.464       11.452        8.749      211.644      211.376        0.997      340.877       15.198      847.926
12/11/2014  09:17:00      165.495     -150.614      116.791      206.539      349.138      218.482    42658.461   121897.460    47734.285       13.796       10.615      223.770      263.543        1.387      340.736       14.958      847.924
12/11/2014  09:18:00      191.214     -326.824        3.278      197.288      261.157      131.841    38922.639    68203.025    17381.985       13.392        6.225      378.651      164.751        0.189      340.649       14.811      847.952
12/11/2014  09:19:00       71.878     -187.046       41.346      266.253      227.355      129.845    70890.487    51690.137    16859.715        9.062        6.972      200.381      112.658        0.316      340.626       14.772      847.869
12/11/2014  09:20:00      144.217     -278.419      -23.129      182.889      188.001      107.834    33448.247    35344.313    11628.278        8.962        4.021      313.553      107.302        0.117      340.631       14.781      848.023
12/11/2014  09:21:00       68.361     -101.815       -1.282      127.542      111.386       70.748    16266.979    12406.766     5005.332        2.435        1.684      122.636       57.904        0.223      340.637       14.794      848.089
12/11/2014  09:22:00      207.764     -254.162       -1.345      188.954      247.485      125.439    35703.784    61248.950    15734.831       11.020        5.634      328.274      168.062        0.262      340.604       14.736      848.163
12/11/2014  09:23:00       72.598     -154.600       55.051      173.092      293.495      132.568    29960.938    86139.499    17574.183        8.291        6.684      170.797      179.671        1.107      340.636       14.792      848.184
12/11/2014  09:24:00       72.764     -121.872       61.177      191.035      166.489      119.678    36494.383    27718.561    14322.843        5.120        3.927      141.941      118.552        0.698      340.668       14.845      847.887
12/11/2014  09:25:00      -89.068      -18.780      176.381      162.563      323.850      259.299    26426.577   104878.861    67235.988       11.893        9.927       91.026      259.165        8.106      340.695       14.890      847.697
12/11/2014  09:26:00      113.817     -337.127       40.311      173.082      228.403      115.389    29957.307    52167.991    13314.546       11.182        4.772      355.822      125.624        0.125      340.712       14.919      847.955
12/11/2014  09:27:00      -69.535     -282.526       20.305      152.742      193.122       80.414    23330.203    37295.967     6466.393        7.607        3.355      290.957       66.781        0.053      340.733       14.956      848.147
12/11/2014  09:28:00     -106.131      -74.026       -6.438      175.448      122.208       55.363    30781.961    14934.738     3065.102        3.277        2.439      129.397       60.518        0.219      340.767       15.013      847.940
12/11/2014  09:29:00        2.715     -154.688      -14.498      100.925       87.056       48.512    10185.886     7578.814     2353.447        2.213        1.006      154.712       43.318        0.078      340.870       15.187      848.111
12/11/2014  09:30:00      141.105     -139.776       41.202      189.791      274.164      133.373    36020.673    75166.112    17788.363        8.503        6.449      198.616      154.184        0.603      340.938       15.300      848.112
12/11/2014  09:31:00     -230.108     -363.117       -3.348      251.832      245.915       96.913    63419.370    60474.282     9392.107       15.902        6.664      429.888      120.562        0.079      340.857       15.164      848.430
12/11/2014  09:32:00      205.810     -273.775       93.148      295.569      413.356      202.868    87361.247   170863.129    41155.551       21.262       14.969      342.506      255.657        0.557      341.038       15.469      848.361
12/11/2014  09:33:00        0.331     -373.363       11.455      312.583      340.407      133.243    97707.821   115876.743    17753.570       18.539       11.567      373.363      115.925        0.096      341.105       15.585      848.389
12/11/2014  09:34:00      -49.621     -228.642       -3.284      230.823      253.796      115.444    53279.410    64412.329    13327.342        9.286        6.551      233.965      112.780        0.232      341.056       15.503      848.589
12/11/2014  09:35:00     -161.271     -149.165       24.997      241.535      204.360      102.603    58338.991    41763.145    10527.378        7.973        5.531      219.679       87.757        0.160      340.985       15.383      848.681
12/11/2014  09:36:00       20.866     -110.822       35.686      163.932      186.568       96.619    26873.539    34807.671     9335.293        4.249        3.551      112.769      101.349        0.808      340.890       15.222      848.570
12/11/2014  09:37:00     -167.786     -374.226      -28.574      255.726      255.298      133.760    65395.840    65176.834    17891.764       15.871        7.423      410.118      115.976        0.080      340.683       14.870      848.610
12/11/2014  09:38:00       31.032     -372.703      -10.856      207.593      261.301      124.449    43094.783    68278.107    15487.499       13.340        6.343      373.992      104.700        0.078      340.497       14.555      848.713
12/11/2014  09:39:00     -580.868     -581.012      -15.758      416.379      410.004      173.087   173371.721   168103.221    29959.004       52.326       18.572      821.573      195.733        0.057      340.236       14.114      848.160
12/11/2014  09:40:00      135.134     -438.877       16.026      273.052      237.181      143.835    74557.311    56254.747    20688.619       18.129        7.575      459.211      118.817        0.067      340.277       14.182      848.598
12/11/2014  09:41:00      -55.163      -90.148       26.214      105.837      183.464       93.284    11201.432    33658.868     8701.821        3.270        2.678      105.686       76.363        0.522      340.306       14.235      848.307
12/11/2014  09:42:00       66.422     -193.280       30.420      195.157      176.011      109.447    38086.246    30979.783    11978.689        6.185        4.052      204.375      114.366        0.313      340.296       14.214      848.328
12/11/2014  09:43:00       44.486     -278.517      -17.291      208.543      153.686       86.023    43490.153    23619.264     7399.887        7.716        3.725      282.048       73.301        0.068      340.263       14.159      848.403
12/11/2014  09:44:00     -189.347     -120.889       -5.316      119.792      125.282       55.659    14350.103    15695.496     3097.973        4.181        1.657      224.647       44.469        0.039      340.319       14.256      848.419
12/11/2014  09:45:00      -33.937       39.594       20.221      117.609       90.624       57.563    13831.953     8212.632     3313.447        1.424        1.268       52.148       55.748        1.143      340.344       14.299      848.452
12/11/2014  09:46:00       11.639       88.410      233.037      152.606      307.512      205.608    23288.647    94563.781    42274.596       11.116        8.006       89.173      225.534        6.397      340.316       14.248      848.443
12/11/2014  09:47:00     -111.959     -414.692       -4.465      202.639      325.886      129.442    41062.434   106201.769    16755.124       17.424        8.201      429.540      110.044        0.066      340.278       14.186      848.636
12/11/2014  09:48:00      222.223     -632.734        1.343      322.430      409.779      194.699   103960.783   167918.730    37907.875       37.970       15.489      670.623      206.974        0.095      340.129       13.933      848.585
12/11/2014  09:49:00      105.343     -237.948       63.637      360.079      368.912      174.214   129656.547   136095.714    30350.580       18.387       14.805      260.224      181.494        0.486      340.054       13.806      848.492
12/11/2014  09:50:00       57.727     -242.834        7.639      235.078      237.211      115.669    55261.601    56269.180    13379.285        9.361        6.246      249.601      110.149        0.195      340.095       13.875      848.437
12/11/2014  09:51:00      157.955     -351.347       45.416      230.267      404.286      193.088    53023.017   163447.229    37283.051       20.205       12.688      385.220      175.416        0.207      339.984       13.689      848.376
12/11/2014  09:52:00      191.371     -366.109       49.739      258.446      257.040      156.158    66794.372    66069.485    24385.469       16.516        7.862      413.109      141.877        0.118      339.915       13.571      848.407
12/11/2014  09:53:00     -173.377     -274.227       28.248      220.867      261.777       93.421    48782.435    68527.317     8727.574       11.602        6.302      324.438       91.934        0.080      339.878       13.511      848.370
12/11/2014  09:54:00      161.142     -220.661       66.922      232.628      369.986      189.635    54115.561   136889.830    35961.612       15.301       11.348      273.236      234.193        0.735      339.880       13.514      848.394
12/11/2014  09:55:00       81.705     -376.490       42.351      291.801      320.307      214.358    85148.099   102596.683    45949.503       19.191       11.685      385.254      194.777        0.256      339.896       13.540      848.079
12/11/2014  09:56:00       12.437     -218.463       30.315      260.709      251.202      142.627    67969.008    63102.197    20342.446       10.008        7.571      218.817      131.053        0.359      339.899       13.544      848.065
12/11/2014  09:57:00      102.233     -230.858       84.960      236.422      372.659      166.381    55895.507   138874.381    27682.770       14.666       11.123      252.482      205.361        0.662      339.923       13.586      847.965
12/11/2014  09:58:00       12.835       37.704      161.022      149.591      233.462      151.361    22377.477    54504.712    22910.246        6.363        4.990       39.829      165.643       17.296      339.994       13.705      847.870
12/11/2014  09:59:00       44.646     -319.192      -29.870      184.297      211.335      110.135    33965.327    44662.388    12129.744        9.775        4.538      322.299       95.011        0.087      340.004       13.723      847.823
12/11/2014  10:00:00       39.887     -307.565       -4.084      210.815      252.575       95.920    44443.093    63793.955     9200.665       10.680        5.872      310.140       85.135        0.075      340.090       13.866      847.889
12/11/2014  10:01:00        0.865      -36.059       86.606       90.728      140.879       91.422     8231.575    19847.021     8357.960        2.261        1.822       36.070       82.990        5.294      340.202       14.058      847.770
12/11/2014  10:02:00      -40.762      -48.247       26.507      159.789      101.554       63.533    25532.404    10313.243     4036.499        2.228        1.994       63.161       55.726        0.778      340.164       13.994      847.814
12/11/2014  10:03:00        4.535     -124.656       38.370      258.296      238.878      168.256    66716.885    57062.723    28310.200        8.453        7.604      124.739      145.771        1.366      340.168       13.998      847.756
12/11/2014  10:04:00     -249.714     -178.740       21.693      283.558      216.907      118.392    80404.941    47048.561    14016.733       11.810        7.074      307.092      136.677        0.198      340.173       14.006      847.697
12/11/2014  10:05:00     -171.540     -155.410       17.476      195.073      158.944      103.534    38053.567    25263.270    10719.349        6.394        3.702      231.470       95.686        0.171      340.178       14.016      847.640
12/11/2014  10:06:00      -12.776     -169.118       29.783      196.015      184.784       86.634    38421.881    34145.023     7505.473        5.485        4.004      169.599       81.190        0.229      340.261       14.157      847.522
12/11/2014  10:07:00      -12.619     -278.902       34.292      269.497      254.690      165.079    72628.541    64867.010    27251.185       12.190        8.237      279.187      104.818        0.141      340.300       14.222      847.371
12/11/2014  10:08:00     -140.475     -112.365        8.717      158.776      143.011       74.250    25209.734    20452.233     5513.125        4.179        2.559      179.887       67.199        0.140      340.324       14.263      847.503
12/11/2014  10:09:00     -174.682     -259.146        3.098      152.234      172.766       65.576    23175.039    29848.120     4300.196        7.749        2.866      312.523       66.710        0.046      340.288       14.203      847.690
12/11/2014  10:10:00      -23.103      -63.441       52.467      177.847      254.085      113.814    31629.553    64559.327    12953.662        5.821        5.457       67.517      116.149        2.959      340.403       14.396      847.851
12/11/2014  10:11:00      -51.885     -175.359       29.746      114.138      217.435      123.878    13027.505    47277.942    15345.829        5.497        3.783      182.873      134.563        0.541      340.591       14.715      847.793
12/11/2014  10:12:00     -251.483     -167.092      -23.161      240.070      199.614      104.907    57633.466    39845.868    11005.447       10.007        5.424      301.933       94.911        0.099      340.634       14.786      847.834
12/11/2014  10:13:00      -54.769     -242.395       -7.803      179.570      194.112      100.265    32245.343    37679.343    10053.029        7.088        3.999      248.505       58.142        0.055      340.803       15.072      847.789
12/11/2014  10:14:00        3.360     -142.765       32.036      187.506      148.444      128.785    35158.671    22035.615    16585.518        4.758        3.689      142.804      123.179        0.744      340.889       15.217      847.899
12/11/2014  10:15:00     -106.507      -84.521      -35.911      146.672      122.446       72.877    21512.665    14992.921     5311.126        3.079        2.091      135.969       64.000        0.222      340.854       15.161      847.921
12/11/2014  10:16:00     -165.958     -375.798        1.833      324.837      306.878      120.399   105518.763    94173.944    14495.880       19.144       10.709      410.812      167.883        0.167      340.915       15.261      848.155
12/11/2014  10:17:00     -243.146     -369.077       -5.375      287.030      368.378      137.673    82386.134   135702.262    18953.862       21.616       11.852      441.971      150.227        0.116      341.007       15.416      848.049
12/11/2014  10:18:00      -89.982     -241.553        3.319      160.498      255.426      104.430    25759.545    65242.402    10905.694        8.416        5.095      257.769       91.306        0.125      341.188       15.725      848.013
12/11/2014  10:19:00     -131.343      -81.014       22.427      155.285      173.376       81.446    24113.502    30059.344     6633.478        4.255        3.040      154.319       85.911        0.310      341.269       15.863      847.945
12/11/2014  10:20:00      -63.966     -262.501       12.849      197.691      217.227      114.925    39081.538    47187.374    13207.682        8.630        4.974      270.182      125.143        0.215      341.127       15.622      847.913
12/11/2014  10:21:00       45.250     -157.712      -15.336      140.843      176.866       89.318    19836.707    31281.754     7977.701        4.311        2.955      164.075       45.603        0.077      341.209       15.762      848.006
12/11/2014  10:22:00       38.043     -274.392       14.253      219.486      267.274      127.441    48174.012    71435.597    16241.262       10.637        6.793      277.017      107.357        0.150      341.049       15.489      847.516
12/11/2014  10:23:00     -204.751     -225.269      -38.452      187.907      185.628       83.828    35309.153    34457.823     7027.129        8.546        3.840      304.416       73.335        0.058      340.980       15.375      847.743
12/11/2014  10:24:00     -179.123     -136.574       -5.361      167.569      195.555       86.386    28079.400    38241.843     7462.518        6.226        3.689      225.250       80.506        0.128      341.076       15.537      847.865
12/11/2014  10:25:00     -271.961     -248.913       -6.196      218.705      228.782       84.517    47831.739    52341.257     7143.144       12.162        5.366      368.674       91.038        0.061      341.099       15.574      847.850
12/11/2014  10:26:00     -113.740     -191.170       13.831      128.255      176.559       70.385    16449.261    31173.185     4954.077        5.111        2.629      222.447       60.372        0.074      341.150       15.659      847.810
12/11/2014  10:27:00     -154.879     -116.010       14.890      124.235      109.652       64.324    15434.218    12023.636     4137.581        3.463        1.580      193.510       72.681        0.141      341.217       15.774      847.938
12/11/2014  10:28:00       50.170       43.942      132.938      153.490      197.659      154.181    23559.080    39068.975    23771.865        5.424        4.320       66.692      160.602        5.799      341.390       16.067      847.897
12/11/2014  10:29:00       49.630     -118.605       43.141      183.698      205.531      117.140    33745.069    42242.969    13721.728        5.403        4.485      128.570      111.367        0.750      341.469       16.199      847.821
12/11/2014  10:30:00      -11.990        5.857       32.648      147.199      163.090       69.358    21667.528    26598.335     4810.498        2.715        2.654       13.344       77.043       33.336      341.633       16.481      847.691
12/11/2014  10:31:00      -31.646     -146.066       76.587      289.580      306.158      151.394    83856.757    93732.575    22920.040       11.432       10.025      149.455      131.752        0.777      341.587       16.401      847.488
12/11/2014  10:32:00      134.168     -242.457      -13.393      336.577      246.133      153.489   113284.086    60581.275    23558.818       13.716        9.871      277.104      145.858        0.277      341.541       16.323      847.627
12/11/2014  10:33:00       54.601     -226.561       73.689      206.976      294.322      172.585    42839.160    86625.569    29785.724       10.946        7.963      233.048      177.166        0.578      341.608       16.436      847.503
12/11/2014  10:34:00       59.574     -179.253       46.389      144.134      232.323      126.147    20774.693    53974.096    15912.969        6.423        4.533      188.893      135.783        0.517      341.650       16.507      847.534
12/11/2014  10:35:00      -66.163     -173.961       53.486      202.419      265.134      138.997    40973.466    70296.238    19320.242        8.402        6.529      186.118      171.219        0.846      341.670       16.541      847.477
12/11/2014  10:36:00       13.022     -255.474        5.612      225.693      354.558      131.752    50937.267   125711.338    17358.563       12.970        9.700      255.805      135.641        0.281      341.487       16.231      847.671
12/11/2014  10:37:00      -67.390     -178.537       47.632      217.764      313.194      224.502    47421.151    98090.175    50400.966       11.726        9.796      190.832      240.694        1.591      341.428       16.132      847.485
12/11/2014  10:38:00     -166.804     -284.395        0.054      221.959      192.329       95.609    49265.760    36990.378     9140.989       10.203        4.770      329.702       85.542        0.067      341.370       16.033      847.565
12/11/2014  10:39:00      -12.068      -70.727       16.550       38.820      100.252       51.554     1507.003    10050.427     2657.789        0.982        0.711       71.749       44.523        0.385      341.622       16.461      847.757
12/11/2014  10:40:00     -278.209     -236.333      -19.375      235.383      260.635       86.439    55405.284    67930.568     7471.677       13.219        6.540      365.039       77.419        0.045      341.387       16.061      847.835
12/11/2014  10:41:00      -74.661     -113.802       13.179      339.096      362.844      142.242   114986.411   131655.979    20232.794       14.273       13.344      136.107       83.738        0.379      341.380       16.050      847.752
12/11/2014  10:42:00       22.412     -212.103       45.722      278.855      249.241      136.224    77760.045    62121.307    18557.050       10.298        7.922      213.283      128.625        0.364      341.293       15.902      847.826
12/11/2014  10:43:00        6.049     -529.723       -1.070      247.014      376.783      165.139    61016.056   141965.553    27270.991       25.540       11.513      529.757      172.862        0.106      341.207       15.755      847.878
12/11/2014  10:44:00      -12.883     -279.409       15.945      162.769      210.636      109.937    26493.782    44367.349    12086.173        8.070        4.147      279.706       74.918        0.072      341.226       15.789      847.888
12/11/2014  10:45:00      -50.916     -295.293       11.711      313.807      310.188      150.238    98474.648    96216.711    22571.554       15.355       10.863      299.651      167.952        0.314      341.093       15.562      847.961
12/11/2014  10:46:00     -155.546     -404.791        7.284      291.802      246.895      114.885    85148.390    60957.145    13198.479       17.367        7.965      433.648      115.833        0.071      340.904       15.244      847.821
12/11/2014  10:47:00       -2.958      -97.081       80.163      197.388      225.621      124.340    38961.977    50904.672    15460.486        6.057        5.266       97.126      122.744        1.597      341.031       15.459      847.808
12/11/2014  10:48:00      -64.360     -380.635      -13.517      223.464      283.430      114.072    49936.167    80332.601    13012.327       14.622        7.164      386.038      106.736        0.076      340.687       14.876      847.728
12/11/2014  10:49:00       34.846     -457.249       44.937      370.627      352.601      229.868   137364.388   124327.371    52839.463       26.336       15.727      458.575      233.923        0.260      340.602       14.733      847.545
12/11/2014  10:50:00      -17.320     -726.070      -35.740      296.653      389.231      152.340    88002.986   151500.807    23207.418       39.568       13.136      726.276      156.004        0.046      340.467       14.505      847.842
12/11/2014  10:51:00     -359.755     -471.451      -15.767      420.821      243.619      135.049   177090.186    59350.200    18238.352       30.326       12.734      593.035       64.859        0.012      340.343       14.294      847.668
12/11/2014  10:52:00     -373.856     -407.520      -35.545      260.936      360.258      122.991    68087.431   129785.683    15126.800       26.001       10.650      553.029      127.255        0.053      340.279       14.187      847.600
12/11/2014  10:53:00     -138.674     -300.761      -19.874      159.427      186.264      107.646    25416.986    34694.286    11587.681        9.088        3.585      331.191      104.483        0.100      340.327       14.268      847.693
12/11/2014  10:54:00     -287.128     -317.928      -20.612      246.870      294.037      119.447    60944.719    86457.719    14267.507       17.278        8.083      428.394      123.818        0.084      340.331       14.275      847.757
12/11/2014  10:55:00      -30.490     -139.079       32.676      127.622      187.587      116.561    16287.466    35188.788    13586.362        4.319        3.253      142.382      124.636        0.766      340.531       14.613      847.753
12/11/2014  10:56:00        6.172      -97.491       39.647      149.767      118.449       85.041    22430.037    14030.177     7232.001        2.739        2.185       97.686       79.110        0.656      340.588       14.711      847.673
12/11/2014  10:57:00     -163.484     -248.140      -11.609      171.916      164.555       82.525    29554.954    27078.433     6810.382        7.593        3.172      297.154       73.226        0.061      340.443       14.464      847.731
12/11/2014  10:58:00     -302.969     -404.996      -16.259      262.014      304.770      107.606    68651.155    92884.967    11578.954       21.456        8.656      505.778       92.940        0.034      340.364       14.331      847.600
12/11/2014  10:59:00     -107.955     -248.748      -17.902      237.194      197.742       81.448    56261.209    39102.035     6633.834        8.790        5.100      271.164       41.634        0.024      340.495       14.551      847.627
12/11/2014  11:00:00     -145.636     -318.026       30.955      271.036      315.277      127.968    73460.320    99399.710    16375.833       15.623        9.462      349.786      138.301        0.156      340.416       14.418      847.527
12/11/2014  11:01:00     -354.998     -421.926       34.332      472.023      325.900      156.917   222805.721   106210.657    24622.870       32.936       17.682      551.403      150.356        0.074      340.386       14.367      847.559
12/11/2014  11:02:00      -51.315     -517.373      -16.690      282.094      331.042      120.154    79576.844   109588.739    14437.047       23.705       10.180      519.911       79.976        0.024      340.421       14.426      847.677
12/11/2014  11:03:00     -149.828     -126.229        7.651      221.024      246.487      101.442    48851.773    60756.001    10290.502        7.915        5.995      195.914       99.104        0.256      340.474       14.517      847.736
12/11/2014  11:04:00     -140.926     -176.234       -4.120      218.403      244.539      107.857    47699.700    59799.464    11633.031        8.501        5.957      225.652      107.653        0.228      340.528       14.608      847.734
12/11/2014  11:05:00      -85.218     -279.437       -4.458      210.878      246.122      126.218    44469.506    60576.213    15930.996       10.315        6.049      292.142       48.670        0.028      340.432       14.447      848.010
12/11/2014  11:06:00     -202.942     -152.913       21.893      263.396      230.393      120.041    69377.610    53080.903    14409.906       10.093        6.843      254.102      114.738        0.204      340.404       14.398      848.064
12/11/2014  11:07:00      -64.346     -319.908        4.268      256.302      298.693      124.894    65690.559    89217.770    15598.495       13.847        8.525      326.315       96.036        0.087      340.413       14.413      847.898
12/11/2014  11:08:00     -192.460     -382.585      -18.196      270.351      255.186      105.345    73089.859    65120.095    11097.572       16.650        7.465      428.266       61.313        0.020      340.229       14.102      847.947
12/11/2014  11:09:00     -404.144     -649.507      -32.887      395.652      340.438      189.159   156540.248   115897.944    35781.022       44.718       15.411      764.978      162.232        0.045      340.023       13.755      848.039
12/11/2014  11:10:00     -209.601     -446.668        3.425      259.688      354.984      128.216    67438.026   126013.453    16439.238       22.663       10.495      493.402      131.849        0.071      339.864       13.486      847.946
12/11/2014  11:11:00     -168.752      -82.471       38.796      244.112      186.157       94.392    59590.716    34654.565     8909.791        6.995        5.158      187.827      103.144        0.302      339.949       13.629      847.759
12/11/2014  11:12:00       94.804     -406.965      -54.642      278.686      222.943      128.384    77666.037    49703.630    16482.408       16.069        7.193      417.861      115.514        0.076      339.941       13.614      847.699
12/11/2014  11:13:00     -267.886     -366.736      -17.355      311.533      216.645      101.020    97052.900    46935.103    10205.085       18.035        7.710      454.157      119.767        0.070      339.726       13.254      847.858
12/11/2014  11:14:00     -147.361     -449.422      -30.493      205.099      205.833      114.941    42065.759    42367.270    13211.540       16.112        4.882      472.965       90.892        0.037      339.610       13.056      848.158
12/11/2014  11:15:00     -160.913     -377.402      -11.605      194.330      247.396       96.130    37764.258    61204.858     9240.962       13.831        5.411      410.275       98.347        0.057      339.493       12.861      848.255
12/11/2014  11:16:00      -87.121      -73.786        4.681      108.801       87.646       54.366    11837.687     7681.875     2955.687        1.776        1.124      114.169       54.340        0.227      339.619       13.075      848.210
12/11/2014  11:17:00     -174.352     -185.764       14.062      190.971      156.680       71.467    36469.902    24548.751     5107.585        6.560        3.306      254.768       68.287        0.072      339.516       12.898      848.133
12/11/2014  11:18:00      -84.494      -95.922      -17.556      108.687      155.799       63.251    11812.781    24273.288     4000.628        2.836        2.004      127.829       68.986        0.291      339.603       13.048      848.032
12/11/2014  11:19:00     -116.296      -17.710       14.316      168.620      104.125       77.168    28432.791    10842.110     5954.948        2.963        2.261      117.637       58.509        0.247      339.714       13.234      847.990
12/11/2014  11:20:00     -134.095     -144.433       26.107      161.006      167.088      106.573    25922.774    27918.403    11357.889        5.235        3.260      197.085      102.221        0.269      339.729       13.260      847.946
12/11/2014  11:21:00      167.462     -284.885      -14.434      302.710      403.724      154.952    91633.074   162993.289    24010.157       19.397       13.932      330.459      176.182        0.284      339.830       13.430      847.656
12/11/2014  11:22:00     -123.971      -78.933        8.017      207.610      178.753       84.324    43101.770    31952.646     7110.455        5.190        4.108      146.967       60.520        0.170      339.840       13.446      847.616
12/11/2014  11:23:00     -272.927     -267.666       -6.938      189.107      187.967       81.050    35761.362    35331.714     6569.150       11.191        3.883      382.275       94.110        0.061      339.878       13.510      847.663
12/11/2014  11:24:00     -326.863     -194.290        7.856      269.451      273.984      132.828    72603.650    75067.003    17643.338       15.495        8.266      380.247      166.441        0.192      339.958       13.645      847.637
12/11/2014  11:25:00      -85.700     -143.276       31.469      214.888      169.871      102.288    46176.783    28856.216    10462.766        5.716        4.275      166.950       94.043        0.317      340.233       14.109      847.502
12/11/2014  11:26:00     -400.710     -318.466        7.673      243.356      255.753      127.726    59222.274    65409.347    16313.951       20.147        7.047      511.848      128.786        0.063      340.092       13.871      847.587
12/11/2014  11:27:00     -325.651     -254.288        6.186      212.642      157.812       87.067    45216.559    24904.587     7580.623       12.421        3.885      413.172       73.410        0.032      340.119       13.918      847.671
12/11/2014  11:28:00      -86.343     -235.829       -3.917      173.699      223.498       85.783    30171.320    49951.225     7358.781        7.527        4.374      251.138       92.980        0.137      340.286       14.199      847.627
12/11/2014  11:29:00     -253.602     -213.290       -5.649      220.878      160.081       96.411    48787.204    25625.831     9295.175        9.676        4.185      331.371       86.776        0.069      340.256       14.146      847.517
12/11/2014  11:30:00       52.688     -336.474      -13.105      305.035      258.272      142.213    93046.481    66704.190    20224.578       14.803        8.999      340.574      124.784        0.134      340.372       14.344      847.479
12/11/2014  11:31:00     -104.500     -303.781      -13.379      255.174      197.468      129.361    65113.761    38993.549    16734.334       11.209        6.042      321.253       73.220        0.052      340.392       14.379      847.402
12/11/2014  11:32:00      -63.161     -251.805       -2.423      191.441      257.641      105.637    36649.558    66378.826    11159.193        9.077        5.709      259.606      119.918        0.213      340.518       14.592      847.477
12/11/2014  11:33:00      -40.045     -267.658       16.248      191.438      205.950       98.447    36648.688    42415.310     9691.802        8.111        4.438      270.637       92.142        0.116      340.481       14.528      847.291
12/11/2014  11:34:00      -21.391     -302.750        7.820      225.476      223.481      115.066    50839.304    49943.536    13240.090       10.308        5.701      303.505      108.160        0.127      340.491       14.545      847.185
12/11/2014  11:35:00      -61.402     -184.940        6.994      160.685      192.006       91.362    25819.692    36866.454     8346.928        5.451        3.552      194.866       76.470        0.154      340.625       14.772      847.147
12/11/2014  11:36:00       77.233     -362.117      -24.238      156.240      158.009       95.715    24411.000    24966.954     9161.337        9.810        2.927      370.262       75.507        0.042      340.548       14.641      847.223
12/11/2014  11:37:00     -149.177      -64.494        6.856      196.119      154.358       91.214    38462.735    23826.499     8319.916        4.852        3.530      162.522       68.351        0.177      340.573       14.684      847.216
12/11/2014  11:38:00     -169.383     -208.263        5.154      147.240      181.692       87.978    21679.603    33011.954     7740.189        6.725        3.122      268.447       98.155        0.134      340.597       14.723      847.349
12/11/2014  11:39:00     -222.518     -313.865      -22.397      130.469      138.189       71.150    17022.083    19096.163     5062.370        9.485        2.059      384.741       65.348        0.029      340.422       14.428      847.343
12/11/2014  11:40:00     -381.547     -311.165      -32.615      215.775      170.056       93.451    46558.835    28919.207     8733.170       16.382        4.211      492.343      102.074        0.043      340.302       14.225      847.237
12/11/2014  11:41:00     -276.055     -294.435       -1.352      247.033      227.945       88.472    61025.139    51958.897     7827.350       14.183        6.041      403.607      114.002        0.080      340.150       13.969      847.218
12/11/2014  11:42:00      -47.194     -121.027       27.397      224.375      208.367      106.271    50343.922    43417.000    11293.517        6.132        5.253      129.903      100.010        0.593      340.286       14.200      847.101
12/11/2014  11:43:00       20.173     -301.268       23.089      333.192      445.994      141.335   111016.868   198910.850    19975.718       21.074       16.495      301.943      160.201        0.282      340.317       14.251      846.926
12/11/2014  11:44:00     -122.629     -373.960       -4.155      260.736      216.054      120.548    67983.256    46679.221    14531.857       14.202        6.460      393.553      100.029        0.065      340.395       14.383      846.995
12/11/2014  11:45:00     -206.100     -437.757       45.542      442.956      426.191      178.794   196210.349   181638.612    31967.292       32.292       20.491      483.848      203.298        0.177      340.369       14.339      846.884
12/11/2014  11:46:00     -382.920     -493.044        4.838      296.933      312.806      147.024    88169.148    97847.782    21615.994       29.865       10.382      624.275      154.961        0.062      340.290       14.204      846.879
12/11/2014  11:47:00     -278.920     -427.214      -12.089      179.605      208.839      105.348    32257.901    43613.865    11098.160       17.369        4.348      510.204       98.261        0.037      340.279       14.186      847.084
12/11/2014  11:48:00     -362.054     -396.099       -9.130      283.856      361.094      149.217    80573.980   130389.234    22265.739       26.060       11.661      536.636      152.177        0.080      340.193       14.041      847.101
12/11/2014  11:49:00     -378.157     -358.351      -17.197      393.393      266.938      125.421   154758.343    71256.119    15730.353       25.668       12.087      520.978      135.563        0.068      340.137       13.946      847.033
12/11/2014  11:50:00     -133.048     -307.907        0.483      282.249      176.700      102.651    79664.745    31222.951    10537.217       11.694        6.071      335.423       82.548        0.061      340.162       13.990      847.105
12/11/2014  11:51:00      -61.729     -635.272       10.871      295.971      382.073      196.976    87598.707   145979.927    38799.670       33.988       13.619      638.264      201.268        0.099      339.965       13.656      847.136
12/11/2014  11:52:00     -116.121     -402.525       30.548      395.766      342.518      166.175   156630.702   117318.741    27614.066       23.894       15.078      418.940      180.197        0.185      339.875       13.504      847.259
12/11/2014  11:53:00     -161.195     -343.447        2.108      307.793      259.109      148.853    94736.729    67137.681    22157.336       16.395        9.202      379.394      148.750        0.154      339.789       13.360      847.251
12/11/2014  11:54:00       50.384     -515.590      -40.633      231.799      231.914      121.486    53730.900    53784.064    14758.879       19.612        6.114      518.045       76.875        0.022      339.733       13.266      847.252
12/11/2014  11:55:00      -74.060     -306.355        0.223      142.171      188.189       98.332    20212.523    35415.036     9669.102        8.230        3.265      315.179       71.750        0.052      339.771       13.330      847.209
12/11/2014  11:56:00       29.876     -441.866        8.929      184.925      339.467      140.994    34197.227   115237.864    19879.319       18.273        8.466      442.875      161.922        0.134      339.721       13.247      847.125
12/11/2014  11:57:00      -29.675     -388.725       -7.684      200.311      183.906       99.622    40124.297    33821.305     9924.530       11.794        4.194      389.856       43.860        0.013      339.706       13.220      847.014
12/11/2014  11:58:00      -79.636     -287.816      -13.365      214.746      199.967       99.001    46115.803    39986.998     9801.167        9.261        4.795      298.630       88.977        0.089      339.734       13.268      847.098
12/11/2014  11:59:00     -329.282     -223.407        2.143      254.969      214.576      119.917    65009.329    46042.695    14380.053       14.186        6.272      397.916      136.452        0.118      339.572       12.994      847.070
12/11/2014  12:00:00     -278.897     -289.711        5.309      346.521      205.178      141.392   120077.143    42098.027    19991.671       17.192        9.108      402.139      139.217        0.120      339.495       12.865      846.966
12/11/2014  12:01:00     -375.393     -219.457       11.318      259.617      181.977      132.439    67400.970    33115.810    17540.171       15.361        5.903      434.835      119.158        0.075      339.344       12.609      847.102
12/11/2014  12:02:00     -305.698     -349.389        8.450      263.335      176.038      104.628    69345.213    30989.451    10946.966       16.342        5.564      464.246      100.754        0.047      339.182       12.336      847.270
12/11/2014  12:03:00     -116.399     -183.391       30.111      238.398      245.250      111.603    56833.807    60147.653    12455.288        8.874        6.472      217.212      119.845        0.304      339.227       12.414      847.222
12/11/2014  12:04:00      -23.646     -252.007       -7.331      257.127      263.936      124.461    66114.379    69662.281    15490.593       10.766        7.563      253.114      131.055        0.268      339.359       12.636      847.270
12/11/2014  12:05:00     -108.477      -47.868       47.688      168.899      141.718       87.293    28526.802    20084.101     7620.044        3.627        2.812      118.569       85.983        0.526      339.362       12.641      847.092
12/11/2014  12:06:00     -262.432     -206.995       -3.350      198.293      160.920       69.885    39320.173    25895.125     4883.930        9.090        3.505      334.242       84.075        0.063      339.259       12.466      847.252
12/11/2014  12:07:00     -309.768     -364.522      -22.385      251.302      214.729       88.201    63152.885    46108.498     7779.398       17.316        5.852      478.365       70.182        0.022      339.074       12.155      847.423
12/11/2014  12:08:00     -116.374     -205.144       20.411      252.983      201.324      127.814    64000.193    40531.410    16336.484        8.843        6.043      235.853      122.743        0.271      339.138       12.264      847.466
12/11/2014  12:09:00        8.602     -327.818       20.238      318.695      335.921      142.327   101566.517   112842.813    20256.913       17.126       11.733      327.931      165.300        0.254      339.285       12.510      847.388
12/11/2014  12:10:00      -69.129     -555.048      -45.282      291.565      365.880      135.966    85010.118   133867.897    18486.876       27.609       11.868      559.336       97.286        0.030      339.237       12.430      847.430
12/11/2014  12:11:00      -99.296     -281.790      -20.691      303.100      212.844      133.488    91869.580    45302.696    17819.068       12.231        7.750      298.773      127.330        0.182      339.284       12.508      847.498
12/11/2014  12:12:00      -13.442     -183.322        8.148      240.891      271.736      124.491    58028.455    73840.211    15497.913        9.058        7.368      183.814       92.088        0.251      339.289       12.517      847.462
12/11/2014  12:13:00      -28.898     -269.798      -21.393      330.842      324.437      119.323   109456.367   105259.177    14237.911       15.147       11.448      271.341       97.833        0.130      339.134       12.257      847.593
12/11/2014  12:14:00       86.407     -643.294       -6.758      283.665      432.991      185.047    80465.779   187481.264    34242.299       36.170       15.109      649.071      197.094        0.092      338.910       11.879      847.639
12/11/2014  12:15:00      -26.557     -297.773       14.294      280.873      247.037      146.038    78889.757    61027.497    21327.044       12.538        8.062      298.955      133.651        0.200      338.865       11.803      847.547
12/11/2014  12:16:00      -41.876     -385.734       25.938      223.370      254.706      121.964    49894.223    64875.299    14875.145       14.040        6.482      388.001      124.028        0.102      338.786       11.672      847.571
12/11/2014  12:17:00      -77.009     -157.008       22.231      183.985      195.863      125.959    33850.417    38362.358    15865.617        5.956        4.404      174.877      137.392        0.617      338.845       11.771      847.414
12/11/2014  12:18:00       20.468     -261.015       32.625      185.937      201.485       93.879    34572.436    40596.347     8813.336        7.678        4.199      261.816       93.864        0.129      338.733       11.582      847.308
12/11/2014  12:19:00      -90.111     -108.640       62.574      125.842      234.396      111.302    15836.131    54941.405    12388.166        5.349        4.158      141.148      126.271        0.800      338.827       11.740      847.386
12/11/2014  12:20:00      -84.918     -435.004      -20.982      199.625      220.873      104.899    39850.228    48784.746    11003.905       14.824        4.982      443.215       78.933        0.032      338.641       11.427      847.465
12/11/2014  12:21:00       62.362     -286.291      -22.836      173.114      209.968      118.306    29968.346    44086.363    13996.305        8.719        4.403      293.004       99.796        0.116      338.726       11.571      847.485
12/11/2014  12:22:00       82.604     -324.273      -23.624      298.055      231.688      133.255    88836.898    53679.176    17757.018       13.637        8.014      334.629      106.378        0.101      338.706       11.536      847.494
12/11/2014  12:23:00      -86.581     -112.117      -15.446      210.685      126.189       85.562    44388.265    15923.539     7320.806        4.396        3.382      141.657       71.437        0.254      338.684       11.501      847.588
12/11/2014  12:24:00       39.764     -100.537       43.824      132.723      118.994       91.292    17615.305    14159.491     8334.232        2.685        2.005      108.115       71.170        0.433      338.816       11.722      847.601
12/11/2014  12:25:00      -69.919      -56.688       26.675      164.338       91.282       76.865    27006.891     8332.470     5908.192        2.502        2.062       90.012       88.079        0.958      338.828       11.744      847.602
12/11/2014  12:26:00       -1.735     -268.056       16.965      263.086      360.355      119.723    69214.184   129855.435    14333.673       14.273       10.670      268.061      131.176        0.239      338.780       11.662      847.450
12/11/2014  12:27:00       76.555     -595.630        7.327      254.187      276.655      136.413    64610.799    76537.968    18608.483       26.019        7.988      600.529      113.956        0.036      338.716       11.553      847.398
12/11/2014  12:28:00       91.703     -272.318       35.657      222.131      181.582      118.837    49342.254    32971.965    14122.200        9.012        4.822      287.343      109.248        0.145      338.728       11.573      847.379
12/11/2014  12:29:00      -60.684     -446.597       10.613      203.379      284.129      141.868    41362.827    80729.216    20126.547       17.270        7.111      450.701      129.053        0.082      338.693       11.516      847.255
12/11/2014  12:30:00      -18.815     -407.645      -39.984      288.010      228.529      108.969    82949.696    52225.501    11874.333       15.756        7.352      408.079      126.020        0.095      338.605       11.367      847.164
12/11/2014  12:31:00      -22.064      -24.588       49.336      180.626      128.584       79.471    32625.660    16533.963     6315.705        2.949        2.774       33.036       72.532        4.820      338.766       11.639      847.039
12/11/2014  12:32:00      112.259     -171.598       22.100      130.451      197.803       97.280    17017.378    39126.164     9463.475        5.406        3.280      205.056       96.510        0.222      338.694       11.517      846.874
12/11/2014  12:33:00       16.727       53.141      169.550       97.233      225.609      144.203     9454.172    50899.449    20794.417        5.648        4.057       55.711      168.970        9.199      338.645       11.433      846.753
12/11/2014  12:34:00      -62.964     -113.287       11.067      269.891      239.842      130.385    72840.989    57524.155    17000.278        8.211        7.368      129.609      143.509        1.226      338.619       11.389      846.809
12/11/2014  12:35:00        3.040     -312.659       51.691      212.399      365.070      138.293    45113.148   133275.902    19124.888       14.894        9.876      312.674      193.900        0.385      338.685       11.501      846.772
12/11/2014  12:36:00     -234.066     -308.207      -35.572      245.387      188.323       78.748    60214.765    35465.436     6201.199       12.644        5.094      387.012       39.867        0.011      338.552       11.277      847.021
12/11/2014  12:37:00       90.411     -225.655       11.181      257.993      314.838      117.289    66560.612    99123.269    13756.620       11.929        8.972      243.093      147.381        0.368      338.642       11.429      847.095
12/11/2014  12:38:00     -103.857      -50.916       16.235      187.053      200.360       90.859    34988.956    40144.327     8255.386        4.850        4.169      115.666       81.883        0.501      338.629       11.407      847.106
12/11/2014  12:39:00     -265.736     -170.552        0.047      154.647      135.307       74.029    23915.646    18307.949     5480.245        7.369        2.385      315.759       55.421        0.031      338.557       11.287      847.175
12/11/2014  12:40:00     -218.627     -285.600        0.909      190.111      180.947       84.498    36142.295    32741.724     7139.925       10.268        3.801      359.674       73.100        0.041      338.601       11.360      847.156
12/11/2014  12:41:00     -136.018     -181.844        3.948      168.120      185.983       85.417    28264.195    34589.776     7295.993        6.085        3.507      227.086       88.601        0.152      338.815       11.719      847.195
12/11/2014  12:42:00     -188.065     -165.996       -6.417      131.563      110.564       59.581    17308.788    12224.402     3549.929        4.802        1.654      250.845       69.494        0.077      338.779       11.660      847.228
12/11/2014  12:43:00     -228.947     -137.611      -21.055      149.566      122.805       55.990    22370.111    15080.977     3134.863        5.618        2.029      267.121       52.754        0.039      338.793       11.685      847.129
12/11/2014  12:44:00     -181.903     -353.303      -28.177      248.063      183.078       89.019    61535.353    33517.402     7924.357       13.082        5.149      397.382       73.616        0.034      338.896       11.857      847.120
12/11/2014  12:45:00       48.241        2.179       72.347      108.947      112.462       96.206    11869.539    12647.701     9255.654        2.066        1.689       48.290       91.693        3.605      339.203       12.375      847.002
12/11/2014  12:46:00     -130.477     -229.194       22.691      347.387      238.926      116.645   120677.442    57085.859    13606.157       13.068        9.568      263.731      133.701        0.257      339.052       12.120      847.115
12/11/2014  12:47:00      220.373     -310.263       -7.917      306.557      303.578      154.459    93976.951    92159.389    23857.723       17.740       10.500      380.562      187.074        0.242      339.089       12.179      847.094
12/11/2014  12:48:00     -135.178     -112.831       -3.372      290.936      141.338       80.656    84643.586    19976.469     6505.386        7.105        5.556      176.080       73.454        0.174      339.301       12.539      847.228
12/11/2014  12:49:00     -447.884     -400.962      -30.078      249.683      258.803      123.078    62341.659    66978.809    15148.189       25.334        7.223      601.141      116.443        0.038      339.089       12.180      847.390
12/11/2014  12:50:00     -250.863     -418.051      -17.500      322.799      283.152      142.888   104199.446    80175.198    20417.021       22.136       10.240      487.544      132.635        0.074      339.108       12.213      847.471
12/11/2014  12:51:00     -216.812     -382.713      -16.084      316.823      223.639      155.074   100376.822    50014.527    24048.007       18.405        8.722      439.860      118.001        0.072      339.223       12.405      847.405
12/11/2014  12:52:00       -2.641     -301.975        2.475      268.033      165.937      117.436    71841.861    27535.073    13791.257       10.216        5.658      301.986       92.076        0.093      339.289       12.517      847.348
12/11/2014  12:53:00      -41.113     -210.095       -5.150      158.786      142.828       67.012    25212.961    20399.960     4490.634        4.797        2.505      214.080       60.702        0.080      339.384       12.678      847.235
12/11/2014  12:54:00       -4.503     -318.632       -7.393      161.907      208.864       68.856    26213.995    43624.119     4741.104        8.808        3.729      318.664       59.005        0.034      339.343       12.607      847.142
12/11/2014  12:55:00      -92.325     -206.395       -9.862      159.653      178.520       79.924    25489.209    31869.567     6387.914        5.747        3.187      226.104       62.663        0.077      339.472       12.826      847.140
12/11/2014  12:56:00      -52.555     -168.219        5.799      252.925      221.189       88.962    63970.817    48924.773     7914.154        7.593        6.040      176.237      100.617        0.326      339.513       12.896      847.040
12/11/2014  12:57:00        6.130      -21.226      -10.219      109.431      117.579       51.641    11975.190    13824.829     2666.844        1.452        1.423       22.094       41.950        3.605      339.572       12.998      846.974
12/11/2014  12:58:00       -9.842      -74.111       27.198      114.816      133.915       65.457    13182.715    17933.148     4284.554        2.086        1.770       74.761       80.168        1.150      339.599       13.043      847.121
12/11/2014  12:59:00      -14.986     -298.384        6.338      181.377      192.690      103.078    32897.451    37129.490    10625.139        8.496        4.033      298.760       81.939        0.075      339.385       12.679      847.162
12/11/2014  13:00:00     -117.609      -96.703       21.902      199.473      170.614      103.637    39789.528    29109.131    10740.636        5.164        3.982      152.261       75.788        0.248      339.364       12.644      847.084
12/11/2014  13:01:00        9.081     -267.721      -18.446      174.700      198.321       81.909    30519.967    39331.324     6709.088        7.431        3.828      267.875       71.945        0.072      339.341       12.604      847.116
12/11/2014  13:02:00       79.314     -297.694       11.451      224.313      248.607      121.491    50316.467    61805.243    14760.023       11.094        6.344      308.079      121.457        0.155      339.379       12.668      847.134
12/11/2014  13:03:00     -478.535     -493.082      -22.019      313.759      344.269      137.876    98444.716   118520.808    19009.787       35.424       11.799      687.114      151.002        0.048      339.187       12.346      847.210
12/11/2014  13:04:00     -204.964     -207.364       14.261      190.393      240.950      108.412    36249.469    58057.063    11753.132        9.562        5.303      291.565      123.384        0.179      339.303       12.542      847.260
12/11/2014  13:05:00      -62.312     -286.408      -13.805      168.922      198.475       94.542    28534.692    39392.161     8938.246        8.147        3.843      293.108       79.938        0.074      339.347       12.616      847.291
12/11/2014  13:06:00      -88.418     -429.659        0.805      138.815      233.174       84.385    19269.477    54369.948     7120.832       13.658        4.038      438.662       65.562        0.022      339.289       12.518      847.219
12/11/2014  13:07:00     -126.593      -77.891       -3.632      120.553       84.445       48.078    14532.911     7130.922     2311.454        2.304        1.199      148.637       45.174        0.092      339.423       12.744      847.176
12/11/2014  13:08:00      -29.431     -147.795       -9.438      132.277      116.542       70.216    17497.112    13582.027     4930.289        2.940        1.800      150.697       51.279        0.116      339.487       12.850      847.239
12/11/2014  13:09:00     -121.376      -61.772       -4.863       93.896       93.873       59.829     8816.506     8812.048     3579.475        1.989        1.060      136.191       46.194        0.115      339.468       12.820      847.285
12/11/2014  13:10:00     -248.434     -278.216      -24.341      200.732      209.603       91.198    40293.258    43933.496     8317.010       11.611        4.627      372.993      104.949        0.079      339.327       12.580      847.243
12/11/2014  13:11:00      -42.047     -103.956       -0.911       92.409      112.314       59.725     8539.379    12614.546     3567.026        1.864        1.236      112.138       59.874        0.285      339.640       13.111      847.419
12/11/2014  13:12:00       21.260      -56.177       35.200       90.806      123.480       78.079     8245.693    15247.249     6096.287        1.721        1.479       60.065       75.642        1.586      339.768       13.326      847.379
12/11/2014  13:13:00      -57.832       -5.473       22.967       88.189       85.212       54.532     7777.326     7261.137     2973.732        1.095        0.901       58.090       50.746        0.763      339.879       13.516      847.515
12/11/2014  13:14:00       31.537     -296.386      -19.352      176.951      244.823      131.099    31311.536    59938.169    17186.927        9.880        5.422      298.059       94.722        0.101      339.652       13.128      847.612
12/11/2014  13:15:00      -23.227     -243.231       52.373      203.623      238.016      128.790    41462.454    56651.396    16586.811        8.855        5.735      244.338      127.750        0.273      339.635       13.102      847.521
12/11/2014  13:16:00       65.081     -214.829       95.110      230.717      347.304      209.769    53230.334   120619.870    44003.111       13.860       10.893      224.471      219.374        0.955      339.600       13.043      847.408
12/11/2014  13:17:00       20.173     -212.874       46.498      159.100      246.353      112.219    25312.926    60689.652    12593.164        7.322        4.930      213.827      106.773        0.249      339.639       13.107      847.565
12/11/2014  13:18:00      -38.840      -95.388      115.867      181.243      270.946      172.267    32849.186    73411.855    29675.779        7.996        6.797      102.992      192.375        3.489      339.654       13.132      847.498
12/11/2014  13:19:00      126.415     -198.256       29.066      163.488      232.337      105.243    26728.244    53980.422    11076.052        7.394        4.589      235.130      117.820        0.251      339.619       13.075      847.546
12/11/2014  13:20:00      101.032     -257.244       31.912      223.933      285.243      154.658    50146.109    81363.839    23919.218       11.638        7.771      276.372      146.995        0.283      339.442       12.774      847.432
12/11/2014  13:21:00       21.462     -542.718      -17.735      224.847      305.544      128.632    50556.014    93357.143    16546.241       22.786        8.023      543.142      126.950        0.055      339.351       12.620      847.363
12/11/2014  13:22:00      -56.455     -102.889       29.574      133.467      161.730       98.592    17813.496    26156.703     9720.377        3.416        2.685      117.359       97.915        0.696      339.502       12.875      847.408
12/11/2014  13:23:00       17.363     -266.842       -3.543      140.942      148.380       90.627    19864.539    22016.699     8213.299        6.080        2.505      267.407       86.886        0.106      339.472       12.825      847.422
12/11/2014  13:24:00      -68.704     -172.405        1.773      163.598      144.515       98.351    26764.432    20884.638     9672.838        4.587        2.866      185.590       83.330        0.202      339.476       12.833      847.497
12/11/2014  13:25:00     -208.136     -251.082      -11.203      135.675      233.859       80.651    18407.800    54690.078     6504.574        9.303        3.980      326.133       92.664        0.081      339.338       12.599      847.571
12/11/2014  13:26:00     -216.899     -380.050      -24.241      314.162      194.366      106.855    98698.000    37778.278    11418.054       16.995        7.395      437.588       82.904        0.036      339.220       12.401      847.505
12/11/2014  13:27:00      -40.610     -197.916      -15.862      139.396      124.643       77.805    19431.319    15535.976     6053.546        4.104        2.051      202.040       66.690        0.109      339.361       12.639      847.625
12/11/2014  13:28:00       76.510     -221.790       -5.941      112.251      143.656       77.222    12600.349    20636.919     5963.293        4.713        1.960      234.616       66.663        0.081      339.303       12.542      847.683
12/11/2014  13:29:00       47.151     -248.565       -3.119      171.378      229.350       95.104    29370.305    52601.392     9044.746        7.750        4.551      252.997      104.863        0.172      339.321       12.572      847.728
12/11/2014  13:30:00       25.784     -104.625       19.639      155.111      168.127      103.818    24059.398    28266.779    10778.113        3.754        3.155      107.755       93.779        0.757      339.362       12.641      847.736
12/11/2014  13:31:00        5.854     -332.284        7.646      202.837      246.005      108.864    41142.895    60518.436    11851.432       11.199        5.676      332.336      115.004        0.120      339.231       12.419      847.776
12/11/2014  13:32:00       14.828     -477.726      -25.375      210.761      236.595      116.140    44420.163    55977.364    13488.512       17.146        5.694      477.956       93.089        0.038      339.161       12.300      847.775
12/11/2014  13:33:00       47.495     -217.887       75.398      204.240      286.530      161.743    41714.018    82099.332    26160.871       10.267        7.499      223.004      171.240        0.590      339.245       12.445      847.725
12/11/2014  13:34:00       23.658     -342.625      -24.279      203.419      140.431      117.921    41379.091    19720.885    13905.363        9.676        3.750      343.441      104.133        0.092      339.263       12.472      847.689
12/11/2014  13:35:00       26.626     -319.187       -9.644      155.992      172.063      108.895    24333.656    29605.548    11858.190        8.423        3.290      320.296       78.407        0.060      339.173       12.322      847.707
12/11/2014  13:36:00      -45.723     -257.502        1.218      139.983      143.026       80.377    19595.218    20456.391     6460.496        5.745        2.326      261.529       67.659        0.067      339.191       12.352      847.674
12/11/2014  13:37:00        5.347     -336.288       -0.077      251.757      288.322      132.572    63381.652    83129.477    17575.456       13.857        8.204      336.330      145.283        0.187      339.079       12.164      847.538
12/11/2014  13:38:00       62.957     -228.184       -2.266      145.409      173.456       94.150    21143.697    30086.836     8864.235        5.805        3.005      236.710       93.448        0.156      339.229       12.416      847.626
12/11/2014  13:39:00      -27.194     -292.324      -22.466      167.147      167.335       91.256    27938.218    28001.011     8327.612        7.547        3.213      293.586       66.419        0.051      339.245       12.442      847.732
12/11/2014  13:40:00      -45.895     -296.037        2.573      211.292      187.085      114.019    44644.463    35000.792    13000.304        9.118        4.632      299.574       88.808        0.088      339.125       12.242      847.873
12/11/2014  13:41:00      -67.235     -280.292       -6.601      173.640      203.536       94.797    30150.828    41426.786     8986.561        8.183        4.028      288.243       73.400        0.065      339.170       12.317      847.967
12/11/2014  13:42:00      -15.044     -348.179        7.938      192.430      252.222      113.334    37029.429    63615.848    12844.635       11.748        5.674      348.504      129.814        0.139      339.113       12.221      847.902
12/11/2014  13:43:00       17.270     -433.984      -19.474      237.384      202.679      105.722    56351.340    41078.859    11177.147       14.879        5.430      434.328       76.886        0.031      339.098       12.195      847.800
12/11/2014  13:44:00      -47.054     -177.044       21.602      288.097      187.314      111.568    82999.877    35086.637    12447.467        8.225        6.527      183.190       99.479        0.295      339.092       12.185      847.721
12/11/2014  13:45:00       28.623     -176.234        8.614      205.070      148.291       78.220    42053.642    21990.316     6118.328        5.104        3.508      178.543       85.514        0.229      339.119       12.231      847.623
12/11/2014  13:46:00       -9.621     -248.415       25.873      227.811      267.811      144.504    51898.045    71722.957    20881.527       10.346        7.225      248.601      161.339        0.421      339.120       12.233      847.566
12/11/2014  13:47:00      -91.478     -510.782       -9.065      244.897      283.669      127.883    59974.530    80467.857    16354.165       21.304        7.840      518.909       92.559        0.032      339.099       12.199      847.507
12/11/2014  13:48:00      -75.233     -277.348        1.488      178.164      190.059       96.334    31742.561    36122.350     9280.330        7.985        3.857      287.371       64.873        0.051      339.138       12.264      847.597
12/11/2014  13:49:00      -66.320     -656.565      -20.124      308.422      291.526      138.611    95123.915    84987.418    19213.084       31.756        9.966      659.906       79.500        0.015      339.088       12.179      847.593
12/11/2014  13:50:00      -28.807     -286.848        6.906      188.080      172.661       92.278    35374.197    29811.989     8515.172        7.842        3.685      288.291       68.398        0.056      339.208       12.381      847.478
12/11/2014  13:51:00      -65.161     -170.310       -7.737      124.438      131.526       69.249    15484.736    17299.016     4795.397        3.544        1.879      182.350       63.979        0.123      339.329       12.584      847.545
12/11/2014  13:52:00      -11.739     -168.077       23.656      229.456      215.303       94.626    52650.122    46355.498     8954.058        6.843        5.398      168.487      100.136        0.353      339.255       12.460      847.554
12/11/2014  13:53:00     -253.572     -323.014       -4.251      232.318      210.150      103.986    53971.555    44163.218    10813.077       13.878        5.447      410.654      117.487        0.082      339.111       12.217      847.586
12/11/2014  13:54:00     -373.243     -345.838       -2.793      245.015      222.251      116.063    60032.297    49395.632    13470.650       19.089        6.145      508.836      126.741        0.062      339.025       12.072      847.561
12/11/2014  13:55:00     -249.644     -320.687        3.817      209.672      242.102      110.341    43962.392    58613.594    12175.219       13.994        5.738      406.402      104.723        0.066      338.998       12.028      847.497
12/11/2014  13:56:00     -170.235     -237.317       25.458      190.022      157.964       98.410    36108.372    24952.575     9684.555        7.833        3.537      292.060      104.478        0.128      339.062       12.135      847.362
12/11/2014  13:57:00     -220.846     -555.691      -31.534      305.892      338.194      143.894    93569.899   114374.995    20705.525       29.356       11.433      597.968      143.001        0.057      339.060       12.131      847.441
12/11/2014  13:58:00       60.074     -354.258      -15.312      323.328      289.090      132.178   104540.946    83572.842    17471.065       16.742       10.279      359.315      127.906        0.127      339.144       12.274      847.233
12/11/2014  13:59:00     -274.905     -306.684      -17.008      217.386      235.874       95.729    47256.872    55636.378     9164.051       14.096        5.603      411.859       61.552        0.022      339.065       12.140      847.213
12/11/2014  14:00:00     -241.186     -296.212      -15.308      220.591      255.678      126.611    48660.197    65371.279    16030.372       13.808        6.503      381.985      132.964        0.121      339.104       12.207      847.170
12/11/2014  14:01:00     -172.088     -339.980       27.880      275.278      262.372      136.670    75778.242    68838.924    18678.640       15.460        8.165      381.052      107.449        0.080      339.064       12.138      847.149
12/11/2014  14:02:00     -418.795     -274.354       10.758      350.747      196.730      125.102   123023.667    38702.558    15650.487       21.404        8.869      500.659      147.022        0.086      339.074       12.155      846.885
12/11/2014  14:03:00     -389.299     -497.716       -4.027      336.519      411.603      164.215   113244.942   169416.656    26966.605       35.440       15.481      631.882      187.785        0.088      339.113       12.220      846.877
12/11/2014  14:04:00     -260.570     -428.442      -16.647      351.811      294.416      140.933   123771.021    86681.044    19862.015       24.098       11.516      501.457      106.861        0.045      339.151       12.285      846.765
12/11/2014  14:05:00     -400.327     -474.469      -14.553      320.119      357.352      131.657   102475.934   127700.337    17333.518       31.650       12.375      620.791      158.204        0.065      339.108       12.212      846.743
12/11/2014  14:06:00     -300.754     -594.827       -6.941      386.114      540.922      176.550   149083.891   292596.788    31169.878       45.849       23.643      666.538      223.636        0.113      339.072       12.152      846.627
12/11/2014  14:07:00     -266.862     -428.612      -11.914      307.183      255.989      121.213    94361.220    65530.145    14692.488       21.479        8.729      504.899      100.639        0.040      339.114       12.222      846.612
12/11/2014  14:08:00     -229.074     -438.131       -6.443      312.716      320.614      117.221    97791.547   102793.494    13740.798       22.936       10.716      494.402       97.668        0.039      339.071       12.151      846.582
12/11/2014  14:09:00     -385.720     -509.307      -19.219      321.829      350.158      174.121   103573.674   122610.395    30318.152       33.247       12.825      638.885      172.840        0.073      338.981       11.999      846.591
12/11/2014  14:10:00     -378.004     -261.166        7.544      281.419      259.004      113.652    79196.686    67083.085    12916.883       18.514        7.960      459.451      139.984        0.093      339.010       12.046      846.617
12/11/2014  14:11:00     -272.823     -408.485       17.452      349.313      327.775      157.331   122019.232   107436.437    24753.142       24.785       12.710      491.215      136.324        0.077      338.990       12.014      846.660
12/11/2014  14:12:00     -237.355     -414.438       -2.106      359.219      311.691      144.856   129038.226    97151.564    20983.140       23.759       12.359      477.595       99.820        0.044      339.013       12.052      846.708
12/11/2014  14:13:00     -152.793     -330.613       21.735      187.089      234.956       85.813    35002.356    55204.165     7363.911       11.533        4.879      364.213       86.169        0.056      339.068       12.146      846.748
12/11/2014  14:14:00     -277.429     -421.136       -3.584      280.228      244.511      116.891    78527.769    59785.833    13663.539       20.313        7.599      504.303      119.392        0.056      338.998       12.028      846.693
12/11/2014  14:15:00     -253.957     -252.363       -6.825      211.883      260.831      109.015    44894.348    68033.071    11884.367       12.649        6.241      358.025      100.295        0.078      339.072       12.152      846.651
12/11/2014  14:16:00     -321.920     -186.700       13.442      291.696      194.560      114.756    85086.624    37853.704    13169.015       13.736        6.805      372.142       98.950        0.071      339.070       12.150      846.599
12/11/2014  14:17:00     -316.636     -312.734       30.552      352.403      253.306      147.219   124188.034    64164.053    21673.493       20.447       10.501      445.040      164.243        0.136      339.090       12.183      846.641
12/11/2014  14:18:00     -423.272     -295.097       16.538      314.002      257.387      126.348    98597.296    66248.176    15963.775       22.363        9.040      515.986      135.173        0.069      339.091       12.183      846.612
12/11/2014  14:19:00     -453.243     -397.305       -6.228      313.287      223.974      128.716    98148.635    50164.564    16567.831       26.407        8.244      602.727      153.911        0.065      339.085       12.173      846.623
12/11/2014  14:20:00     -530.867     -501.087      -14.800      342.749      326.649      176.377   117476.569   106699.570    31108.851       39.415       12.764      730.005      168.723        0.053      339.190       12.351      846.470
12/11/2014  14:21:00     -297.195     -315.279       27.324      292.472      338.172      133.771    85539.598   114360.111    17894.698       20.309       10.890      433.273      124.158        0.082      339.294       12.526      846.613
12/11/2014  14:22:00     -283.710     -357.049       -7.245      329.733      296.003      123.108   108723.562    87617.757    15155.699       20.972       10.575      456.043      121.455        0.071      339.300       12.536      846.672
12/11/2014  14:23:00     -326.659     -340.380        8.624      271.502      357.172      131.313    73713.407   127571.489    17243.008       22.054       10.926      471.768      112.663        0.057      339.208       12.382      846.640
12/11/2014  14:24:00     -119.476     -379.515       29.671      199.540      239.103      112.437    39816.248    57170.285    12642.049       13.439        5.481      397.877       81.122        0.042      339.284       12.509      846.778
12/11/2014  14:25:00     -134.324     -214.459        3.431      256.734      264.000      141.953    65912.281    69695.823    20150.539       10.987        7.788      253.052      156.319        0.382      339.256       12.461      846.920
12/11/2014  14:26:00     -187.650     -171.291       -7.704      210.418      119.584       91.151    44275.754    14300.359     8308.514        6.574        3.344      254.073       93.009        0.134      339.198       12.364      847.082
12/11/2014  14:27:00     -280.549     -339.294        2.178      243.576      247.830       99.866    59329.414    61419.838     9973.271       16.225        6.536      440.259       79.813        0.033      339.120       12.234      847.161
12/11/2014  14:28:00     -447.417     -476.051      -20.516      283.335      344.165      120.061    80278.729   118449.328    14414.624       32.014       10.657      653.305      124.688        0.036      338.961       11.965      847.179
12/11/2014  14:29:00     -234.340     -205.304       16.593      219.706      165.665      107.755    48270.552    27444.976    11611.195        9.232        4.366      311.553       89.820        0.083      338.943       11.935      847.288
12/11/2014  14:30:00      -55.332     -222.642       21.482      310.190      245.822      140.377    96218.064    60428.521    19705.596       11.469        8.818      229.415      152.881        0.444      338.977       11.992      847.384
12/11/2014  14:31:00     -264.419     -175.057       62.498      292.097      207.898      132.173    85320.846    43221.627    17469.617       12.521        7.301      317.116      131.282        0.171      338.986       12.009      847.191
12/11/2014  14:32:00     -190.485     -329.554      -22.945      245.563      243.503      100.930    60301.370    59293.817    10186.809       13.757        6.489      380.645       96.718        0.065      338.928       11.911      847.205
12/11/2014  14:33:00     -209.520     -365.907        0.576      377.314      260.638      157.603   142365.596    67932.106    24838.664       20.642       11.757      421.648      166.562        0.156      338.922       11.899      847.178
12/11/2014  14:34:00      -47.854     -113.657        5.448      222.116      140.518      116.318    49335.328    19745.342    13529.786        4.891        4.131      123.321       73.441        0.355      339.037       12.092      847.206
12/11/2014  14:35:00      -84.158     -274.208       -5.140      291.986      300.337      126.657    85255.688    90202.228    16042.009       13.686        9.575      286.832      112.685        0.154      339.079       12.164      847.193
12/11/2014  14:36:00     -141.753     -115.348       17.587      299.851      211.072      121.002    89910.885    44551.527    14641.483        9.138        7.455      182.754      152.446        0.696      339.081       12.168      847.388
12/11/2014  14:37:00      174.932     -470.971       32.504      246.565      411.073      152.534    60794.530   168980.977    23266.666       25.321       12.652      502.409      170.801        0.116      339.096       12.191      847.430
12/11/2014  14:38:00       73.675     -397.397        1.941      306.163      292.399      147.864    93735.478    85496.928    21863.649       18.219       10.055      404.169      152.214        0.142      339.017       12.059      847.409
12/11/2014  14:39:00      -63.799     -505.369      -33.595      211.976      282.456      113.465    44933.858    79781.437    12874.240       19.907        6.879      509.380      115.698        0.052      339.018       12.062      847.488
12/11/2014  14:40:00      -10.174     -531.489        5.443      208.401      323.176      115.490    43430.827   104443.043    13337.896       22.188        8.061      531.587       98.274        0.034      338.957       11.957      847.470
12/11/2014  14:41:00       78.490     -398.226       15.305      242.836      222.656      113.590    58969.188    49575.836    12902.714       14.319        6.072      405.887       99.929        0.061      338.935       11.922      847.430
12/11/2014  14:42:00      -40.321     -217.489       23.021      222.838      257.393      117.566    49656.985    66251.111    13821.727        8.957        6.486      221.195      121.599        0.302      338.908       11.877      847.542
12/11/2014  14:43:00     -165.826     -244.800       -5.210      231.530      205.730       91.154    53606.171    42324.838     8309.142        9.583        5.212      295.677       99.377        0.113      338.882       11.833      847.518
12/11/2014  14:44:00      -36.730      -21.820       58.513      117.903      124.468       79.205    13901.027    15492.312     6273.477        2.045        1.783       42.723       57.899        1.837      338.976       11.993      847.572
12/11/2014  14:45:00      -91.462      -68.706       -4.089      157.013       90.365       59.723    24653.201     8165.766     3566.821        2.474        1.819      114.393       50.719        0.197      338.977       11.994      847.689
12/11/2014  14:46:00      -28.846      -43.551       18.128       93.387      109.255       54.849     8721.208    11936.684     3008.359        1.336        1.183       52.237       34.247        0.430      338.879       11.830      847.672
12/11/2014  14:47:00       26.329      -74.553       68.828      186.372      227.313      119.743    34734.352    51671.142    14338.362        5.585        5.037       79.066      134.847        2.909      338.874       11.819      847.727
12/11/2014  14:48:00      -83.064     -322.040       17.889      210.965      274.747      172.477    44506.235    75485.922    29748.234       13.030        7.487      332.580      164.683        0.245      338.755       11.619      847.692
12/11/2014  14:49:00      -79.834     -140.990        5.945      143.352      146.351       94.382    20549.911    21418.620     8907.870        3.857        2.544      162.023       72.777        0.202      338.762       11.633      847.745
12/11/2014  14:50:00       15.701     -183.539        9.581      130.259      194.716       82.095    16967.286    37914.476     6739.621        4.781        3.081      184.210       97.449        0.280      338.820       11.728      847.818
12/11/2014  14:51:00       45.721     -251.203        1.573      160.647      217.421      127.218    25807.560    47271.733    16184.329        7.721        4.463      255.329      111.455        0.191      338.721       11.561      847.762
12/11/2014  14:52:00      111.663     -204.435       -1.873      134.833      160.956       91.468    18179.830    25906.783     8366.385        5.335        2.623      232.942       74.269        0.102      338.723       11.565      847.758
12/11/2014  14:53:00      -45.822     -448.437       11.993      225.095      268.677      128.928    50667.953    72187.369    16622.418       17.138        6.974      450.772      122.959        0.074      338.654       11.448      847.722
12/11/2014  14:54:00      -58.436     -169.558        0.987      161.715      123.736       89.746    26151.882    15310.621     8054.349        4.083        2.476      179.345       58.632        0.107      338.671       11.477      847.703
12/11/2014  14:55:00      -63.717     -245.076       -0.652      185.545      182.393      104.749    34426.857    33267.028    10972.318        7.138        3.933      253.224       67.976        0.072      338.663       11.464      847.754
12/11/2014  14:56:00       66.890        2.286       89.044      113.141      131.938      101.499    12800.941    17407.573    10302.113        2.645        2.026       66.929       99.294        2.201      338.667       11.472      847.562
12/11/2014  14:57:00      -82.185     -126.645       -1.336      122.952      154.893       80.692    15117.238    23991.817     6511.258        3.420        2.281      150.974       59.785        0.157      338.728       11.575      847.673
12/11/2014  14:58:00       50.116     -180.685       19.245      136.293      219.111      113.512    18575.840    48009.650    12885.062        5.748        3.974      187.507      123.203        0.432      338.711       11.546      847.771
12/11/2014  14:59:00       -4.294     -183.906        4.954      189.220      162.340       82.703    35804.355    26354.260     6839.834        5.142        3.450      183.956       62.889        0.117      338.674       11.483      847.832
12/11/2014  15:00:00      165.432     -372.655       -5.873      135.425      167.736       90.540    18340.061    28135.255     8197.428       11.046        2.734      407.725       67.864        0.028      338.630       11.408      847.751
12/11/2014  15:01:00       91.364     -123.176      107.368      226.102      264.623      169.112    51122.312    70025.349    28598.886        9.237        7.487      153.362      164.960        1.157      338.641       11.429      847.581
12/11/2014  15:02:00       -8.213     -276.759        0.990      201.931      250.663      109.746    40775.943    62832.158    12044.094        9.614        5.783      276.881      126.414        0.208      338.707       11.540      847.651
12/11/2014  15:03:00       57.669     -188.254      -16.274      150.819      165.620       96.362    22746.372    27430.127     9285.639        4.923        2.973      196.889       78.637        0.160      338.671       11.478      847.755
12/11/2014  15:04:00      149.736     -220.629       37.284      230.699      201.773      100.722    53221.967    40712.213    10144.821        8.826        5.204      266.642      129.297        0.235      338.652       11.446      847.777
12/11/2014  15:05:00       61.264     -129.274       50.027      103.717      133.275       77.129    10757.271    17762.173     5948.908        2.871        1.723      143.056       61.177        0.183      338.715       11.553      847.701
12/11/2014  15:06:00       73.281     -129.560       24.850       74.741      167.486       72.732     5586.218    28051.452     5289.905        3.084        1.946      148.849       78.138        0.276      338.635       11.419      847.692
12/11/2014  15:07:00       28.535     -292.673      -34.452      146.119      118.417       79.748    21350.750    14022.654     6359.806        6.469        2.087      294.061       31.815        0.012      338.683       11.498      847.740
12/11/2014  15:08:00     -114.663     -133.201        7.843      179.055      121.322       73.608    32060.641    14719.076     5418.151        4.156        2.610      175.755       63.767        0.132      338.646       11.436      847.758
12/11/2014  15:09:00       34.490       12.379       34.919       46.159       57.488       40.892     2130.670     3304.913     1672.181        0.483        0.355       36.645       30.717        0.703      338.762       11.633      847.805
12/11/2014  15:10:00      152.224      -82.875      110.049      203.992      294.542      200.676    41612.858    86754.955    40270.968       10.536        8.432      173.322      198.815        1.316      338.602       11.362      847.654
12/11/2014  15:11:00       22.349     -308.586      -30.266      252.472      227.040      136.158    63741.909    51547.227    18539.134       11.521        6.691      309.395      134.567        0.189      338.631       11.410      847.646
12/11/2014  15:12:00       94.538     -499.670        3.086      251.898      352.021      107.835    63452.396   123918.907    11628.340       22.877        9.950      508.535      106.125        0.044      338.578       11.322      847.727
12/11/2014  15:13:00       36.475     -225.113        2.721      232.233      291.706      153.018    53932.390    85092.279    23414.518       10.719        8.122      228.049      156.650        0.472      338.607       11.372      847.617
12/11/2014  15:14:00      -86.048     -222.832       32.835      199.280      192.910      119.532    39712.419    37214.299    14287.998        7.466        4.561      238.869       86.900        0.132      338.600       11.359      847.523
12/11/2014  15:15:00      175.432     -399.077      -17.644      236.499      219.113      135.152    55931.872    48010.676    18265.945       15.625        6.110      435.935      130.429        0.090      338.559       11.291      847.497
12/11/2014  15:16:00       29.496       54.058      154.706       90.404      150.127       88.613     8172.941    22537.974     7852.347        3.314        1.928       61.581       95.678        2.414      338.576       11.321      847.530
12/11/2014  15:17:00       68.083     -157.388       34.813      134.423      205.468      124.165    18069.629    42217.129    15416.916        5.315        3.785      171.482      137.347        0.642      338.524       11.232      847.483
12/11/2014  15:18:00     -120.004     -241.750       38.421      271.362      219.523      108.193    73637.523    48190.140    11705.677       10.390        6.677      269.896      112.851        0.175      338.584       11.332      847.479
12/11/2014  15:19:00       80.418      -48.801       56.544      112.208      151.394       97.087    12590.736    22920.256     9425.944        2.848        2.247       94.067      107.903        1.316      338.540       11.258      847.463
12/11/2014  15:20:00       52.088      -37.308      103.044      115.818      180.337      108.565    13413.741    32521.580    11786.296        3.621        2.886       64.071      122.486        3.655      338.492       11.179      847.418
12/11/2014  15:21:00      125.957     -229.856       22.464      247.352      269.195      136.462    61182.863    72465.933    18621.843       11.071        7.614      262.105      146.410        0.312      338.514       11.213      847.491
12/11/2014  15:22:00     -120.465      -85.089       28.995      170.498      134.198       88.451    29069.465    18009.111     7823.636        3.874        2.745      147.486       63.337        0.184      338.577       11.320      847.376
12/11/2014  15:23:00      271.129     -211.163       22.061      258.613      325.459      194.664    66880.595   105923.612    37894.197       16.460       10.535      343.658      234.113        0.464      338.463       11.129      847.449
12/11/2014  15:24:00      119.115     -147.836       55.923      133.383      228.623      126.040    17791.049    52268.256    15886.156        6.254        4.297      189.852      147.034        0.600      338.468       11.138      847.546
12/11/2014  15:25:00       33.861     -459.115      -14.399      160.194      146.791       75.010    25662.116    21547.577     5626.425       13.248        2.642      460.362       58.733        0.016      338.512       11.209      847.590
12/11/2014  15:26:00     -122.605     -149.411      -13.027      100.538      104.161       61.758    10107.839    10849.515     3814.073        3.114        1.239      193.276       44.997        0.054      338.531       11.245      847.633
12/11/2014  15:27:00       -6.720     -191.794      -14.820      108.604      168.502       77.621    11794.742    28392.900     6025.051        4.162        2.311      191.912       47.791        0.062      338.544       11.264      847.643
12/11/2014  15:28:00      -55.184     -204.608      -11.146      184.105      159.757       94.497    33894.475    25522.363     8929.755        5.668        3.417      211.919       68.772        0.105      338.469       11.137      847.560
12/11/2014  15:29:00     -126.762      -84.092       17.753      144.456      115.025       71.370    20867.472    13230.864     5093.686        3.132        1.960      152.118       77.551        0.260      338.406       11.034      847.484
12/11/2014  15:30:00     -448.729     -322.385      -16.239      244.361      210.104       95.019    59712.218    44143.676     9028.655       20.920        5.644      552.531      103.952        0.035      338.338       10.918      847.454
12/11/2014  15:31:00     -336.099     -293.429        2.579      270.777      266.195      129.834    73320.077    70859.735    16856.825       18.002        8.052      446.165      138.471        0.096      338.406       11.031      847.351
12/11/2014  15:32:00     -191.396     -252.311        8.490      218.524      203.777       91.135    47752.791    41524.953     8305.521        9.895        4.879      316.691       96.238        0.092      338.486       11.168      847.412
12/11/2014  15:33:00     -189.048     -280.074      -19.266      300.594      233.340      113.105    90356.858    54447.571    12792.731       13.604        7.880      337.906       81.235        0.058      338.463       11.127      847.535
12/11/2014  15:34:00     -298.930     -293.064      -20.694      264.608      221.632       96.309    70017.529    49120.611     9275.402       15.202        6.421      418.624       99.286        0.056      338.420       11.056      847.607
12/11/2014  15:35:00     -255.745     -158.810       19.324      281.459      176.733      111.002    79219.067    31234.686    12321.539       10.686        6.139      301.042      138.043        0.210      338.497       11.186      847.646
12/11/2014  15:36:00     -176.519     -104.116        3.029      235.483      164.333      100.306    55452.095    27005.456    10061.226        6.724        4.626      204.937       81.708        0.159      338.460       11.125      847.649
12/11/2014  15:37:00     -676.583     -391.969      -41.414      377.018      315.927      155.541   142142.199    99810.011    24192.876       43.958       13.307      781.924      177.642        0.052      338.404       11.029      847.514
12/11/2014  15:38:00     -581.374     -493.604      -13.745      335.695      338.771      155.235   112690.955   114766.052    24097.886       41.664       12.578      762.654      152.083        0.040      338.499       11.188      847.585
12/11/2014  15:39:00     -408.804     -430.645       -2.825      317.995      277.618      131.611   101120.791    77071.889    17321.345       27.401        9.776      593.781      136.632        0.053      338.510       11.208      847.714
12/11/2014  15:40:00     -436.534     -294.558      -35.687      234.261      161.725       93.246    54878.113    26154.920     8694.732       18.415        4.486      526.618       89.348        0.029      338.467       11.133      847.631
12/11/2014  15:41:00      -85.557     -249.931       15.623      205.724      238.815      117.522    42322.403    57032.722    13811.376        9.158        5.658      264.169      121.279        0.211      338.544       11.265      847.708
12/11/2014  15:42:00      -54.088     -131.363        5.414      175.395      204.037      116.308    30763.374    41630.897    13527.446        5.305        4.296      142.063      112.466        0.627      338.545       11.267      847.544
12/11/2014  15:43:00      -65.220     -212.876        1.881      141.975      147.174       67.154    20156.963    21660.124     4509.647        4.794        2.316      222.643       39.142        0.031      338.592       11.344      847.508
12/11/2014  15:44:00     -345.584     -292.683       29.460      322.439      265.151      139.565   103967.102    70305.148    19478.258       19.982        9.688      452.870      161.618        0.127      338.428       11.069      847.478
12/11/2014  15:45:00     -345.203     -292.718        4.471      290.718      266.763      108.985    84516.959    71162.362    11877.780       18.618        8.378      452.603      128.199        0.080      338.408       11.036      847.554
12/11/2014  15:46:00     -345.445     -453.459      -36.542      382.465      376.408      142.276   146279.610   141682.786    20242.487       31.719       15.410      570.050      171.932        0.091      338.443       11.094      847.724
12/11/2014  15:47:00     -243.749     -370.247        9.520      211.300      241.022      113.455    44647.818    58091.445    12872.125       15.608        5.781      443.280      115.704        0.068      338.438       11.085      847.800
12/11/2014  15:48:00     -358.354     -292.729       -5.238      255.241      315.047      110.793    65148.188    99254.680    12275.089       19.537        8.834      462.718      134.678        0.085      338.389       11.003      847.771
12/11/2014  15:49:00     -341.138     -335.376        1.304      359.040      272.020      129.746   128909.643    73995.135    16834.120       22.425       10.987      478.385      107.561        0.051      338.397       11.018      847.815
12/11/2014  15:50:00     -316.863     -510.012      -32.705      351.981      403.516      149.800   123890.439   162825.014    22440.019       33.531       15.458      600.429      142.415        0.056      338.478       11.155      847.833
12/11/2014  15:51:00      -81.208     -126.223       22.821      188.553      151.559      115.217    35552.338    22970.202    13275.043        4.741        3.590      150.090      107.923        0.517      338.516       11.217      847.832
12/11/2014  15:52:00       37.497     -276.597       -7.270      238.683      218.713       96.406    56969.376    47835.564     9294.133        9.601        5.705      279.127       65.152        0.054      338.548       11.271      847.826
12/11/2014  15:53:00       12.870     -333.439       -2.227      157.731      195.214      112.250    24878.924    38108.494    12600.099        9.345        3.779      333.687       74.335        0.050      338.542       11.261      847.916
12/11/2014  15:54:00       98.626     -209.187       46.472      178.840      256.671      154.879    31983.828    65879.935    23987.449        8.872        6.093      231.271      151.473        0.429      338.479       11.154      847.971
12/11/2014  15:55:00      180.640     -194.298       71.242      227.095      283.959      183.967    51572.239    80632.435    33843.983       12.072        8.302      265.297      209.054        0.621      338.392       11.008      847.879
12/11/2014  15:56:00      116.732     -176.936       34.179      141.791      217.408      123.452    20104.659    47266.023    15240.329        6.434        4.131      211.973      139.878        0.435      338.450       11.105      848.028
12/11/2014  15:57:00      171.557     -345.889       -6.875      280.144      236.270      148.186    78480.671    55823.545    21959.086       15.266        7.813      386.097      140.726        0.133      338.407       11.033      848.121
12/11/2014  15:58:00      167.336     -382.455      -18.331      231.421      213.999      136.006    53555.544    45795.421    18497.589       14.621        5.892      417.460      137.137        0.108      338.403       11.026      848.125
12/11/2014  15:59:00      -28.872      -51.464       87.871       84.715      206.500      123.263     7176.609    42642.108    15193.744        3.809        3.251       59.010      141.556        5.754      338.448       11.103      848.168
12/11/2014  16:00:00      -10.153     -145.360      -18.796      109.005      113.059       65.010    11882.165    12782.384     4226.329        2.523        1.445      145.714       61.445        0.178      338.466       11.135      848.152
12/11/2014  16:01:00       86.872     -183.043       26.424      191.563      210.667      116.238    36696.344    44380.641    13511.178        6.815        4.729      202.612      116.607        0.331      338.440       11.090      848.187
12/11/2014  16:02:00      267.261     -462.055       -0.903      215.753      311.086      166.510    46549.440    96774.197    27725.499       22.795        8.552      533.783      190.417        0.127      338.410       11.039      848.054
12/11/2014  16:03:00      190.362     -371.136      -28.007      224.638      247.901      138.383    50462.399    61454.808    19149.916       15.289        6.553      417.108      126.029        0.091      338.423       11.061      847.954
12/11/2014  16:04:00       85.545     -315.869       17.725      200.530      210.516      138.432    40212.294    44316.956    19163.372       10.553        5.185      327.248      119.776        0.134      338.443       11.094      847.925
12/11/2014  16:05:00       27.352     -195.095        1.867      121.992      149.764       90.122    14882.158    22429.196     8122.049        4.211        2.272      197.003       70.870        0.129      338.500       11.191      847.962
12/11/2014  16:06:00      -34.915     -145.755        8.788      102.070      134.779       59.847    10418.254    18165.295     3581.654        2.735        1.608      149.879       58.346        0.152      338.449       11.106      847.881
12/11/2014  16:07:00     -127.353     -319.795      -16.124      166.403      177.832       94.682    27689.823    31624.056     8964.688        9.350        3.414      344.220       78.679        0.052      338.435       11.081      847.769
12/11/2014  16:08:00     -167.096     -282.129       -2.991      133.078      237.252       83.472    17709.682    56288.424     6967.590        9.423        4.048      327.899       50.966        0.024      338.393       11.010      847.627
12/11/2014  16:09:00     -326.489     -236.418       -3.644      315.826      154.088      106.742    99746.352    23743.040    11393.958       14.867        6.744      403.099       98.825        0.060      338.487       11.166      847.447
12/11/2014  16:10:00     -240.675     -275.983       -3.741      202.853      236.761      113.072    41149.382    56055.762    12785.367       12.203        5.500      366.184       84.499        0.053      338.536       11.252      847.498
12/11/2014  16:11:00     -282.449     -250.897        4.601      203.404      189.603       86.353    41373.241    35949.127     7456.757       11.375        4.239      377.792       89.891        0.057      338.546       11.269      847.256
12/11/2014  16:12:00     -447.879     -181.051        2.425      266.108      207.450       99.172    70813.333    43035.495     9835.089       17.851        6.184      483.089      101.334        0.044      338.573       11.312      847.261
12/11/2014  16:13:00     -180.107     -251.413       47.211      247.383      206.831      114.876    61198.358    42779.010    13196.551       10.750        5.859      309.269      119.462        0.149      338.632       11.412      847.157
12/11/2014  16:14:00     -295.626     -415.377      -13.218      150.198      259.216       93.133    22559.309    67192.703     8673.839       17.925        4.921      509.836       68.403        0.018      338.640       11.426      847.354
12/11/2014  16:15:00     -382.057     -438.541       10.227      368.364      310.219      156.154   135691.679    96236.039    24384.217       29.730       12.816      581.623      168.122        0.084      338.697       11.521      847.352
12/11/2014  16:16:00     -449.584     -274.275        6.958      358.187      250.271      133.740   128298.190    62635.534    17886.375       24.307       10.441      526.643      144.459        0.075      338.724       11.568      847.375
12/11/2014  16:17:00     -438.730     -421.949      -40.819      294.863      277.671      108.508    86944.060    77101.438    11774.077       27.397        8.791      608.708      121.981        0.040      338.688       11.506      847.518
12/11/2014  16:18:00     -355.173     -446.515       -4.681      268.388      244.519      151.936    72031.903    59789.727    23084.410       24.019        7.745      570.547      141.404        0.061      338.710       11.543      847.575
12/11/2014  16:19:00     -109.004     -360.298      -13.493      217.926      189.656      100.138    47491.754    35969.540    10027.553       11.767        4.674      376.426       86.231        0.052      338.733       11.581      847.531
12/11/2014  16:20:00     -107.270     -268.269      -18.634      201.942      189.498       88.948    40780.385    35909.642     7911.725        8.419        4.230      288.921       82.631        0.082      338.757       11.622      847.561
12/11/2014  16:21:00       67.827     -302.542      -38.148      162.462      138.880      115.121    26393.871    19287.711    13252.732        7.825        2.947      310.052       81.128        0.068      338.715       11.552      847.436
12/11/2014  16:22:00        2.798      -77.552       -7.294      181.366      103.146       69.489    32893.666    10639.029     4828.712        2.721        2.418       77.603       70.536        0.826      338.767       11.641      847.406
12/11/2014  16:23:00     -200.589      -72.532        6.896      123.419      116.547       70.943    15232.237    13583.131     5032.977        3.969        1.692      213.300       74.610        0.122      338.670       11.476      847.363
12/11/2014  16:24:00     -173.413     -233.414        8.019      172.651      193.298       77.328    29808.214    37364.174     5979.597        7.887        3.658      290.782       89.423        0.095      338.686       11.504      847.323
12/11/2014  16:25:00     -301.741     -314.582      -25.475      201.795      181.145       80.239    40721.133    32813.646     6438.356       13.530        3.999      435.900       78.364        0.032      338.731       11.579      847.428
12/11/2014  16:26:00     -102.042     -261.806        0.563      179.974      161.460       86.214    32390.777    26069.396     7432.866        7.241        3.295      280.989       81.321        0.084      338.808       11.707      847.507
12/11/2014  16:27:00     -131.941     -298.338       -7.796      204.985      128.899       81.197    42018.657    16614.874     6592.935        8.584        3.261      326.212       57.799        0.031      338.840       11.761      847.491
12/11/2014  16:28:00     -163.447     -153.869       26.923      139.299      107.651       86.165    19404.086    11588.647     7424.400        4.476        1.921      224.479       76.891        0.117      338.804       11.704      847.605
12/11/2014  16:29:00     -365.490     -149.113        3.805      200.745      190.902       80.777    40298.535    36443.758     6524.894       11.953        4.163      394.737       99.298        0.063      338.727       11.573      847.696
12/11/2014  16:30:00     -163.045     -130.883       -6.119      129.107      153.875       67.258    16668.503    23677.384     4523.606        4.430        2.243      209.080       75.267        0.130      338.700       11.527      847.691
12/11/2014  16:31:00      -21.880      -44.850       11.206       71.847       52.646       34.561     5161.946     2771.553     1194.472        0.587        0.456       49.903       39.249        0.619      338.597       11.356      847.779
12/11/2014  16:32:00      -75.339      -28.490        6.517      115.507      108.556       52.053    13341.841    11784.339     2709.550        1.718        1.392       80.546       61.847        0.590      338.867       11.809      847.625
12/11/2014  16:33:00      -62.648       40.713       -8.995      128.074      126.955       75.151    16402.845    16117.667     5647.707        2.191        1.908       74.715       75.653        1.025      338.745       11.604      847.590
12/11/2014  16:34:00     -175.160     -157.934       -5.379       86.418      145.214       47.940     7468.156    21086.968     2298.275        4.325        1.543      235.848       44.832        0.036      338.728       11.574      847.583
12/11/2014  16:35:00     -133.208     -147.964       -7.473       91.109       94.338       49.623     8300.891     8899.697     2462.446        2.967        0.983      199.092       65.161        0.107      338.627       11.404      847.613
12/11/2014  16:36:00     -118.939       71.109       44.969      162.416      106.693      102.112    26378.888    11383.493    10426.890        3.470        2.409      138.575       93.981        0.460      338.826       11.739      847.572
12/11/2014  16:37:00      -89.559     -226.146      -15.075      104.046       87.068       51.697    10825.531     7580.877     2672.625        4.023        1.054      243.234       52.269        0.046      338.838       11.758      847.607
12/11/2014  16:38:00     -190.022     -248.781      -22.225      107.360      127.576       64.399    11526.114    16275.554     4147.219        6.521        1.597      313.050       70.357        0.051      338.819       11.727      847.602
12/11/2014  16:39:00     -109.549     -142.609       -4.667       62.227       63.785       51.255     3872.219     4068.546     2627.095        2.146        0.528      179.828       44.016        0.060      338.886       11.841      847.526
12/11/2014  16:40:00      -48.196      -73.884       -1.767      101.240       75.481       48.119    10249.570     5697.346     2315.391        1.302        0.913       88.214       36.254        0.169      338.920       11.899      847.562
12/11/2014  16:41:00     -114.768      -51.498       10.335       67.128       62.579       36.393     4506.118     3916.180     1324.417        1.284        0.487      125.792       30.546        0.059      338.865       11.807      847.614
12/11/2014  16:42:00     -222.320      -29.875      -14.197      104.541       75.130       41.713    10928.833     5644.503     1739.944        3.441        0.916      224.318       43.017        0.037      338.965       11.974      847.525
12/11/2014  16:43:00     -145.713      -94.728        0.022      103.498       67.246       43.234    10711.810     4522.059     1869.191        2.365        0.855      173.798       34.701        0.040      338.772       11.649      847.451
12/11/2014  16:44:00     -121.608     -202.412       -1.548      115.923       99.482       55.720    13438.076     9896.684     3104.710        4.110        1.322      236.134       38.014        0.026      338.887       11.842      847.525
12/11/2014  16:45:00      -94.592     -150.640       14.930      137.223      144.833       57.644    18830.188    20976.555     3322.792        3.749        2.156      177.876       60.153        0.114      338.869       11.812      847.574
12/11/2014  16:46:00     -128.313      -78.726      -18.215      177.321      175.920       62.276    31442.735    30947.691     3878.306        4.462        3.313      150.540       66.597        0.196      339.086       12.175      847.500
12/11/2014  16:47:00     -150.542      -94.545        2.044       98.976       67.776       46.150     9796.331     4593.524     2129.791        2.406        0.826      177.768       49.353        0.077      338.930       11.914      847.530
12/11/2014  16:48:00      -62.275     -171.205        8.715       95.247       65.921       52.667     9072.074     4345.555     2773.793        2.473        0.810      182.179       34.176        0.035      338.880       11.831      847.484
12/11/2014  16:49:00     -155.867     -359.393       -3.151      139.942      146.293       65.377    19583.752    21401.641     4274.188        9.935        2.263      391.737       62.416        0.025      338.836       11.755      847.367
12/11/2014  16:50:00     -233.949      -95.513       -6.880      105.156       94.527       51.409    11057.832     8935.411     2642.919        4.326        1.132      252.695       44.015        0.030      338.771       11.646      847.332
12/11/2014  16:51:00      -96.641      -21.102       -3.727       85.336       55.056       38.474     7282.148     3031.149     1480.256        1.079        0.590       98.918       42.499        0.185      338.648       11.443      847.351
12/11/2014  16:52:00     -271.144      -24.490      -21.825      108.274      108.053       49.229    11723.224    11675.548     2423.459        5.020        1.291      272.248       52.671        0.037      338.527       11.236      847.414
12/11/2014  16:53:00     -390.160     -126.536      -22.217      119.727      115.414       53.834    14334.545    13320.469     2898.111        9.964        1.528      410.166       50.141        0.015      338.329       10.903      847.390
12/11/2014  16:54:00     -468.546      -49.458      -23.221      144.179      126.139       84.930    20787.682    15910.996     7213.068       13.321        2.196      471.149       71.831        0.023      338.310       10.872      847.315
12/11/2014  16:55:00     -260.129     -115.582       -3.727      111.811       98.103       49.060    12501.762     9624.131     2406.865        5.278        1.227      284.651       52.599        0.034      338.275       10.814      847.159
12/11/2014  16:56:00     -232.219      -59.314       -0.989       97.663       98.350       48.848     9537.978     9672.738     2386.112        3.952        1.080      239.675       38.947        0.026      338.407       11.035      847.194
12/11/2014  16:57:00     -154.898      -29.854       -2.357       86.631       69.829       41.934     7504.905     4876.113     1758.444        1.951        0.707      157.749       24.939        0.025      338.187       10.666      847.232
12/11/2014  16:58:00     -215.237       68.941      -27.616       88.238       77.071       46.759     7785.990     5940.014     2186.422        3.387        0.796      226.009       34.303        0.023      338.228       10.733      847.105
12/11/2014  16:59:00     -233.009      150.696      -36.559      109.595      103.338       52.833    12011.148    10678.679     2791.368        5.191        1.274      277.493       56.038        0.041      337.880       10.149      847.002
12/11/2014  17:00:00     -323.439      281.155      -58.377      212.474      119.897       72.021    45145.264    14375.246     5187.074       12.588        3.235      428.557       73.669        0.030      337.758        9.944      846.902
12/11/2014  17:01:00     -327.393      109.460      -40.388      142.769      123.713       61.016    20383.087    15304.817     3722.916        8.010        1.971      345.206       58.689        0.029      337.758        9.944      846.806
12/11/2014  17:02:00     -157.666      119.356      -19.757      117.837      197.531       73.709    13885.490    39018.458     5433.015        4.890        2.917      197.748       73.739        0.139      337.710        9.866      846.812
12/11/2014  17:03:00     -159.487      358.653      -53.788       93.994      112.132       57.821     8834.925    12573.682     3343.255        9.085        1.238      392.515       58.796        0.022      337.625        9.720      846.880
12/11/2014  17:04:00     -172.688      304.327      -37.172       89.952      132.689       70.490     8091.291    17606.292     4968.878        7.724        1.533      349.908       77.311        0.049      337.560        9.612      846.987
12/11/2014  17:05:00     -148.394      241.701      -32.648       87.822      137.760       54.362     7712.778    18977.939     2955.267        5.557        1.482      283.620       59.082        0.043      337.595        9.671      847.105
12/11/2014  17:06:00      -80.417      355.556      -51.230      107.860      154.517       44.516    11633.747    23875.499     1981.685        8.649        1.875      364.537       62.882        0.030      337.562        9.617      847.185
12/11/2014  17:07:00      -92.402      203.055      -23.998       69.306      113.102       55.619     4803.258    12792.081     3093.514        3.551        1.034      223.091       51.815        0.054      337.668        9.796      847.259
12/11/2014  17:08:00      -73.060      132.425      -18.189       74.782       89.203       48.323     5592.341     7957.189     2335.107        1.954        0.794      151.241       50.018        0.109      337.533        9.569      847.303
12/11/2014  17:09:00     -147.051      129.915      -35.605       65.626       75.335       36.234     4306.804     5675.294     1312.907        2.553        0.565      196.219       31.646        0.026      337.557        9.609      847.303
12/11/2014  17:10:00     -125.383      181.589      -39.957       90.248      144.003       58.185     8144.689    20736.806     3385.457        4.127        1.613      220.671       61.795        0.078      337.629        9.728      847.334
12/11/2014  17:11:00     -168.508       83.634      -23.552       82.438       70.622       52.684     6796.073     4987.496     2775.617        2.525        0.728      188.121       35.476        0.036      337.715        9.873      847.317
12/11/2014  17:12:00     -252.086      260.108      -47.299       96.759      148.200       58.719     9362.388    21963.172     3447.932        8.410        1.739      362.220       68.052        0.035      337.455        9.438      847.238
12/11/2014  17:13:00     -269.877      243.715      -56.797      132.830       91.868       65.109    17643.692     8439.718     4239.232        8.288        1.516      363.635       76.175        0.044      337.489        9.494      847.155
12/11/2014  17:14:00     -146.270      277.993      -38.831       92.143      147.219       59.188     8490.261    21673.367     3503.243        6.692        1.683      314.126       45.608        0.021      337.443        9.417      847.118
12/11/2014  17:15:00      -66.277      103.196       -7.882       85.391       67.859       51.087     7291.586     4604.820     2609.864        1.480        0.725      122.646       34.419        0.079      337.515        9.541      847.163
12/11/2014  17:16:00     -167.334       69.502       -8.291      100.796      148.489       51.723    10159.815    22049.009     2675.282        3.389        1.744      181.194       41.842        0.053      337.565        9.621      847.240
12/11/2014  17:17:00     -478.619      -21.468      -50.551      177.775      150.005       77.891    31603.917    22501.623     6067.051       14.612        3.009      479.101       78.484        0.027      337.479        9.478      847.272
12/11/2014  17:18:00     -361.254     -124.967      -26.660      135.943      134.111       78.879    18480.385    17985.790     6221.933        9.475        2.134      382.258       69.080        0.033      337.509        9.526      847.275
12/11/2014  17:19:00     -444.685     -217.149      -47.081      208.649      130.907       88.057    43534.208    17136.529     7754.062       15.776        3.421      494.872       90.373        0.033      337.447        9.424      847.224
12/11/2014  17:20:00     -415.043     -162.444      -19.916      167.493      145.401       84.090    28054.017    21141.371     7071.067       12.764        2.813      445.701       72.172        0.026      337.472        9.464      847.170
12/11/2014  17:21:00     -396.573     -229.149      -23.241      163.571      147.743       95.247    26755.535    21827.947     9071.971       13.398        2.883      458.017       63.155        0.019      337.421        9.380      847.136
12/11/2014  17:22:00     -278.039      -75.139      -26.529      152.583       92.901       69.497    23281.540     8630.686     4829.860        6.019        1.837      288.013       68.992        0.057      337.519        9.545      847.156
12/11/2014  17:23:00     -393.104     -132.788       -9.523      172.008      122.870       71.213    29586.717    15097.134     5071.337       11.099        2.488      414.926       79.070        0.036      337.451        9.431      847.099
12/11/2014  17:24:00     -312.739      -52.809      -21.092      156.187      120.769       74.653    24394.405    14585.140     5573.139        7.279        2.228      317.166       80.023        0.064      337.452        9.434      847.041
12/11/2014  17:25:00     -264.049      -72.060      -20.928      132.521      125.657       66.343    17561.728    15789.687     4401.367        5.654        1.888      273.705       64.124        0.055      337.464        9.453      846.905
12/11/2014  17:26:00     -402.230     -195.678      -22.841      134.154       87.008       59.698    17997.382     7570.357     3563.911       11.486        1.457      447.302       66.421        0.022      337.389        9.327      846.757
12/11/2014  17:27:00     -526.090     -118.666      -35.400      197.763      149.880       81.556    39110.134    22463.985     6651.367       18.015        3.411      539.307       95.314        0.031      337.439        9.411      846.701
12/11/2014  17:28:00     -516.747     -176.482      -24.990      196.671      165.858       93.316    38679.313    27508.745     8707.799       18.683        3.745      546.052      106.498        0.038      337.469        9.460      846.720
12/11/2014  17:29:00     -508.420       -2.905      -15.616      232.874      203.933      102.043    54230.454    41588.683    10412.863       18.247        5.312      508.429      107.061        0.044      337.537        9.574      846.757
12/11/2014  17:30:00     -546.837      -67.722      -33.140      244.746      208.215      105.762    59900.630    43353.621    11185.701       20.955        5.722      551.014      106.580        0.037      337.519        9.544      846.737
12/11/2014  17:31:00     -447.341     -116.904      -35.816      211.526      165.327       94.405    44743.416    27332.888     8912.237       14.801        4.049      462.364       99.932        0.047      337.562        9.616      846.708
12/11/2014  17:32:00     -512.447      -39.980      -57.069      171.162      168.353       83.382    29296.515    28342.664     6952.608       16.601        3.230      514.005       78.709        0.023      337.454        9.436      846.630
12/11/2014  17:33:00     -386.113     -134.941      -33.090      176.373      127.282       75.507    31107.573    16200.646     5701.295       11.069        2.650      409.014       63.031        0.024      337.453        9.434      846.554
12/11/2014  17:34:00     -367.087      -64.804      -21.874      182.998      151.224       67.716    33488.189    22868.621     4585.393       10.017        3.047      372.764       73.616        0.039      337.445        9.420      846.680
12/11/2014  17:35:00     -349.294      -42.932      -10.096      172.375      117.343       74.108    29713.287    13769.284     5491.992        8.645        2.449      351.923       82.318        0.055      337.581        9.648      846.737
12/11/2014  17:36:00     -487.188      -10.085      -46.141      182.997      122.167       74.822    33488.074    14924.764     5598.393       14.679        2.701      487.292       91.138        0.035      337.608        9.692      846.654
12/11/2014  17:37:00     -386.083      -31.792      -36.173      149.151      119.690       67.235    22245.988    14325.606     4520.550        9.623        2.055      387.390       77.336        0.040      337.539        9.578      846.532
12/11/2014  17:38:00     -208.979      -22.657       -7.840      125.215      119.289       71.985    15678.791    14229.813     5181.833        3.966        1.755      210.204       68.214        0.105      337.508        9.527      846.601
12/11/2014  17:39:00     -199.725      -66.259       -6.233      146.235      100.747       60.452    21384.694    10149.915     3654.391        3.975        1.759      210.429       62.550        0.088      337.545        9.590      846.673
12/11/2014  17:40:00     -241.206      -28.741        8.319      147.239      104.978       56.417    21679.435    11020.346     3182.926        4.747        1.794      242.912       71.706        0.087      337.563        9.618      846.621
12/11/2014  17:41:00     -274.725      -68.256      -11.145      165.157      115.321       67.501    27276.972    13298.882     4556.357        6.269        2.257      283.077       76.560        0.073      337.747        9.928      846.573
12/11/2014  17:42:00     -450.621     -179.902       -7.660      230.325      141.797       75.646    53049.689    20106.401     5722.256       15.716        3.944      485.205       69.501        0.021      337.752        9.935      846.518
12/11/2014  17:43:00     -296.663      -83.105        5.155      216.797      117.534       83.238    47001.064    13814.200     6928.547        8.133        3.387      308.083      102.247        0.110      337.811       10.035      846.446
12/11/2014  17:44:00     -513.175      126.356      -57.792      136.036       99.623       69.480    18505.794     9924.661     4827.477       15.795        1.663      528.502       54.333        0.011      338.025       10.394      846.394
12/11/2014  17:45:00     -304.626       18.665      -37.976      118.513       66.116       47.607    14045.332     4371.345     2266.380        5.763        1.034      305.198       50.337        0.027      338.078       10.481      846.263
12/11/2014  17:46:00     -269.490      -99.969      -11.893      181.066      120.786       76.324    32784.915    14589.361     5825.367        6.797        2.660      287.434       85.899        0.089      337.918       10.215      846.134
12/11/2014  17:47:00     -464.358     -115.292      -56.500      147.615      122.430       73.880    21790.278    14989.200     5458.288       13.717        2.112      478.457       77.568        0.026      337.746        9.925      846.065
12/11/2014  17:48:00     -401.342     -202.952      -19.657      104.655      112.779       75.379    10952.610    12719.119     5681.958       11.600        1.468      449.739       69.084        0.024      337.744        9.923      846.131
12/11/2014  17:49:00     -421.845     -118.753      -11.309      113.958      122.055       60.285    12986.408    14897.518     3634.333       11.184        1.576      438.242       57.438        0.017      337.802       10.017      846.255
12/11/2014  17:50:00     -261.031      -79.942      -10.194      126.263      111.170       58.224    15942.311    12358.660     3390.025        5.316        1.585      272.998       45.870        0.028      337.823       10.053      846.312
12/11/2014  17:51:00     -132.553       27.197       11.464       97.428       58.036       49.287     9492.226     3368.152     2429.257        1.686        0.764      135.315       57.049        0.178      338.043       10.426      846.312
12/11/2014  17:52:00      -58.961      -44.497        6.056       57.847       56.028       33.941     3346.294     3139.158     1151.986        0.656        0.382       73.867       36.480        0.244      337.798       10.015      846.217
12/11/2014  17:53:00     -256.925      -62.551      -26.205      157.312       90.383       56.424    24746.956     8169.079     3183.664        5.335        1.805      264.430       53.609        0.041      337.748        9.929      846.139
12/11/2014  17:54:00     -336.438     -132.836        7.274      189.503      154.450       78.341    35911.386    23854.760     6137.365        9.838        3.295      361.713       82.006        0.051      337.703        9.853      846.070
12/11/2014  17:55:00     -495.724      -69.343      -14.059      187.948      117.303       83.112    35324.345    13759.909     6907.632       15.336        2.800      500.550      101.444        0.041      337.615        9.705      846.068
12/11/2014  17:56:00     -446.022     -127.440      -10.966      139.896      135.288       64.515    19570.894    18302.948     4162.164       12.866        2.102      463.871       58.198        0.016      337.710        9.865      846.219
12/11/2014  17:57:00     -340.677      -38.770      -26.390      160.771      112.562       59.032    25847.284    12670.269     3484.832        8.012        2.100      342.876       61.236        0.032      337.886       10.160      846.375
12/11/2014  17:58:00     -336.590     -158.568      -16.419      238.802      163.333      108.798    57026.327    26677.587    11836.985       11.710        4.777      372.071      119.785        0.104      337.640        9.749      846.450
12/11/2014  17:59:00     -430.537      -90.728      -13.276      232.536      170.475       97.114    54072.802    29061.892     9431.218       14.315        4.628      439.993      117.415        0.071      337.704        9.854      846.465
12/11/2014  18:00:00     -397.385      -89.059        2.500      226.230      177.692      108.789    51180.142    31574.344    11834.956       13.020        4.729      407.243      116.697        0.082      337.600        9.680      846.392
12/11/2014  18:01:00     -443.055      -34.138      -16.455      275.894      161.600       89.458    76117.544    26114.483     8002.758       15.396        5.512      444.369      102.260        0.053      337.605        9.690      846.296
12/11/2014  18:02:00     -279.119      -22.003      -18.751      185.743      128.118       71.071    34500.532    16414.203     5051.084        6.734        2.798      279.985       81.128        0.084      337.613        9.703      846.256
12/11/2014  18:03:00     -270.692       66.584      -11.513      229.696      135.283       82.741    52760.355    18301.440     6846.018        7.786        3.895      278.761       99.648        0.128      337.621        9.715      846.151
12/11/2014  18:04:00     -518.922     -166.181      -11.512      176.265      176.396       90.117    31069.255    31115.608     8121.115       18.365        3.515      544.882       96.606        0.031      337.558        9.610      846.152
12/11/2014  18:05:00     -411.033      -68.343      -20.021      188.534      144.092       81.110    35544.932    20762.601     6578.753       11.844        3.144      416.676       94.424        0.051      337.617        9.710      846.263
12/11/2014  18:06:00     -501.669      -81.939      -17.408      193.297      155.904       85.777    37363.597    24305.974     7357.701       16.384        3.451      508.316       88.558        0.030      337.552        9.600      846.280
12/11/2014  18:07:00     -367.456      -88.167       -8.184      186.510      147.823       79.306    34785.803    21851.610     6289.471       10.288        3.146      377.886       90.192        0.057      337.531        9.564      846.247
12/11/2014  18:08:00     -408.231      -34.655      -25.604      164.319      173.547       75.015    27000.693    30118.401     5627.222       11.561        3.137      409.699       74.192        0.033      337.629        9.729      846.227
12/11/2014  18:09:00     -362.327      -73.573      -26.434      145.495      136.735       80.313    21168.816    18696.542     6450.104        9.184        2.316      369.722       67.854        0.034      337.583        9.652      846.197
12/11/2014  18:10:00     -560.003     -138.548      -50.532      142.975      117.433       69.719    20441.803    13790.502     4860.807       18.721        1.955      576.887       64.206        0.012      337.543        9.584      846.204
12/11/2014  18:11:00     -223.690       16.471      -33.484      102.241       90.559       41.624    10453.274     8200.951     1732.586        3.590        1.019      224.295       42.587        0.036      337.667        9.792      846.272
12/11/2014  18:12:00     -244.971      -54.066      -19.660       95.611      126.745       56.183     9141.485    16064.272     3156.477        4.584        1.418      250.867       36.233        0.021      337.909       10.199      846.234
12/11/2014  18:13:00     -269.843     -121.163      -44.519      152.302      104.828       63.328    23195.854    10988.949     4010.438        6.383        1.910      295.797       87.269        0.087      337.700        9.848      846.238
12/11/2014  18:14:00     -297.734     -124.322      -17.957      142.014      111.105       64.523    20167.863    12344.285     4163.154        7.054        1.834      322.647       52.509        0.026      337.678        9.812      846.374
12/11/2014  18:15:00     -399.617      -71.547      -23.189      167.532       99.908       79.619    28066.995     9981.671     6339.183       10.486        2.219      405.971       75.415        0.035      337.756        9.941      846.331
12/11/2014  18:16:00     -365.023     -131.723      -22.324      139.432      114.800       75.095    19441.415    13178.949     5639.311        9.467        1.913      388.063       75.349        0.038      337.999       10.350      846.209
12/11/2014  18:17:00     -478.432     -156.591      -41.414      112.409      108.529       63.953    12635.675    11778.492     4090.045       14.181        1.425      503.407       45.312        0.008      338.133       10.574      846.280
12/11/2014  18:18:00     -109.038     -135.902       15.216      179.766       94.372       53.286    32315.992     8906.129     2839.449        3.732        2.203      174.237       53.316        0.094      338.428       11.070      846.354
12/11/2014  18:19:00      -45.449      -86.286       -6.386       50.843       76.145       30.016     2585.041     5798.043      900.932        0.942        0.464       97.524       29.601        0.092      338.353       10.947      846.409
12/11/2014  18:20:00      -40.485      -29.398       -6.929       72.446       59.795       37.288     5248.366     3575.436     1390.370        0.638        0.511       50.033       30.342        0.368      338.319       10.890      846.470
12/11/2014  18:21:00      -44.470      -28.446       14.144       60.654       39.586       26.375     3678.848     1567.052      695.633        0.446        0.297       52.789       27.398        0.269      338.316       10.885      846.515
12/11/2014  18:22:00     -150.534      -43.526       -1.627       75.944       59.104       32.797     5767.550     3493.337     1075.642        1.745        0.517      156.701       32.959        0.044      338.356       10.951      846.570
12/11/2014  18:23:00     -133.019      -99.774       15.744      117.049       88.803       53.839    13700.353     7886.004     2898.621        2.619        1.224      166.279       60.703        0.133      338.201       10.688      846.588
12/11/2014  18:24:00     -137.530      -52.596        2.913       80.509       65.642       39.503     6481.668     4308.932     1560.455        1.702        0.618      147.244       35.317        0.058      338.277       10.819      846.578
12/11/2014  18:25:00     -158.293      -93.509        1.512       74.275       80.694       39.050     5516.738     6511.463     1524.877        2.368        0.678      183.849       32.583        0.031      338.213       10.709      846.546
12/11/2014  18:26:00     -206.045      -12.509      -16.645      122.465       83.302       47.063    14997.791     6939.159     2214.882        3.352        1.208      206.425       61.097        0.088      338.270       10.805      846.465
12/11/2014  18:27:00     -215.364        5.829      -18.751       89.204       73.452       42.077     7957.362     5395.200     1770.440        3.094        0.756      215.443       44.805        0.043      338.452       11.110      846.246
12/11/2014  18:28:00     -109.204      131.276      -16.006       53.800       79.626       41.534     2894.390     6340.279     1725.035        2.019        0.548      170.760       39.698        0.054      338.234       10.745      845.945
12/11/2014  18:29:00      -77.355      201.250      -33.919       46.586       47.864       27.103     2170.267     2290.969      734.571        2.641        0.260      215.604       19.857        0.008      338.152       10.607      845.650
12/11/2014  18:30:00      -24.301      178.020      -35.676       63.883       63.748       26.349     4081.079     4063.744      694.286        2.120        0.442      179.671       34.672        0.037      338.182       10.658      845.557
12/11/2014  18:31:00      -42.169       65.374       -6.180       32.709       79.561       35.251     1069.856     6329.988     1242.623        0.736        0.432       77.795       26.409        0.115      338.241       10.759      845.681
12/11/2014  18:32:00      -27.000      -20.083        8.614       41.411       28.700       25.135     1714.884      823.715      631.764        0.219        0.159       33.650       17.091        0.258      338.178       10.652      845.823
12/11/2014  18:33:00     -119.405      -44.200       -6.307       83.321       44.307       28.649     6942.374     1963.142      820.773        1.299        0.486      127.323       34.496        0.073      338.121       10.556      845.966
12/11/2014  18:34:00     -197.661     -100.367       -5.659       74.639       52.241       35.163     5571.048     2729.112     1236.448        2.935        0.477      221.683       39.109        0.031      338.073       10.474      845.975
12/11/2014  18:35:00     -249.758      106.246      -29.617      109.071       96.669       53.185    11896.380     9344.950     2828.602        4.930        1.203      271.417       58.584        0.047      338.389       11.006      845.796
12/11/2014  18:36:00      -91.689      256.027      -28.385      161.383      100.034       60.140    26044.508    10006.739     3616.786        5.721        1.983      271.949       47.333        0.030      338.136       10.578      845.750
12/11/2014  18:37:00      121.315      230.723      187.787      153.673      104.096      107.722    23615.449    10836.039    11604.006        7.463        2.303      260.673      102.934        0.156      337.940       10.249      845.832
12/11/2014  18:38:00      172.371      147.893      102.212      120.831      102.473      109.533    14600.238    10500.696    11997.506        4.956        1.855      227.122      101.456        0.200      338.001       10.354      845.950
12/11/2014  18:39:00       84.356      119.197       94.664       99.401       70.827       80.187     9880.594     5016.511     6430.023        2.580        1.066      146.026       79.664        0.298      338.037       10.415      845.970
12/11/2014  18:40:00       99.341       70.967       64.589      108.370       68.519       56.520    11744.155     4694.908     3194.514        1.935        0.982      122.086       54.011        0.196      338.282       10.826      846.034
12/11/2014  18:41:00       28.067       44.825       58.577       48.546       34.270       26.423     2356.707     1174.415      698.183        0.523        0.211       52.887       17.002        0.103      338.148       10.602      846.168
12/11/2014  18:42:00        8.683       41.976       45.012       43.206       51.678       51.686     1866.791     2670.595     2671.416        0.553        0.360       42.865       29.293        0.467      338.103       10.528      846.218
12/11/2014  18:43:00      110.647       87.231       61.590       74.537       35.958       37.286     5555.724     1293.009     1390.232        1.594        0.412      140.898       37.942        0.073      338.054       10.446      846.114
12/11/2014  18:44:00      158.133       57.681       36.895       56.411       52.231       43.703     3182.217     2728.067     1909.930        1.876        0.391      168.324       30.600        0.033      337.971       10.305      846.014
12/11/2014  18:45:00       94.524       67.277       28.339       51.142       42.791       40.590     2615.548     1831.086     1647.552        1.018        0.305      116.022       26.891        0.054      337.959       10.286      846.031
12/11/2014  18:46:00       94.982       64.817       20.266       47.468       38.127       27.538     2253.251     1453.661      758.335        0.905        0.223      114.991       24.514        0.045      337.926       10.231      846.114
12/11/2014  18:47:00      105.245       94.284        2.437       54.112       43.492       26.792     2928.057     1891.574      717.814        1.275        0.277      141.301       16.344        0.013      337.937       10.248      846.156
12/11/2014  18:48:00       52.151      114.516       -6.075       44.520       92.094       45.417     1982.050     8481.284     2062.708        1.420        0.626      125.831       54.052        0.185      337.897       10.180      846.106
12/11/2014  18:49:00       37.908      197.984      -35.394       43.344       49.378       26.787     1878.732     2438.235      717.544        2.346        0.252      201.580       26.326        0.017      337.914       10.209      846.150
12/11/2014  18:50:00       37.864      185.651      -26.020       41.037       49.267       28.947     1684.012     2427.204      837.915        2.076        0.247      189.473       28.424        0.023      337.947       10.265      846.205
12/11/2014  18:51:00      -52.841      327.725      -49.069       74.998       89.712       44.671     5624.683     8048.269     1995.463        6.413        0.783      331.957       51.088        0.024      338.136       10.578      846.084
12/11/2014  18:52:00       32.274      301.312      -40.224       77.471      127.172       55.790     6001.741    16172.735     3112.571        5.936        1.264      303.036       63.800        0.044      337.987       10.330      846.022
12/11/2014  18:53:00       63.745      173.751        3.479       99.655      105.443       66.901     9931.211    11118.295     4475.677        2.989        1.276      185.075       69.955        0.143      337.944       10.258      846.038
12/11/2014  18:54:00       23.023      245.372      -27.831       54.139      106.385       53.275     2931.004    11317.706     2838.207        3.930        0.854      246.450       58.465        0.056      337.925       10.225      846.052
12/11/2014  18:55:00       45.370      177.501      -21.482       65.686       87.882       43.396     4314.617     7723.308     1883.198        2.397        0.696      183.207       43.893        0.057      337.912       10.203      846.112
12/11/2014  18:56:00      102.617       77.664        1.201       60.102       35.494       32.103     3612.194     1259.826     1030.629        1.123        0.295      128.693       18.556        0.021      337.883       10.157      846.180
12/11/2014  18:57:00      111.917      149.512      101.699       90.428       68.429       70.807     8177.154     4682.465     5013.601        3.154        0.894      186.760       65.390        0.123      337.830       10.065      846.231
12/11/2014  18:58:00      115.933      110.456       75.394       97.565       81.109       69.873     9518.885     6578.609     4882.232        2.615        1.049      160.128       58.046        0.131      337.796       10.010      846.300
12/11/2014  18:59:00      -16.676       70.981       13.078       63.156       68.170       48.562     3988.677     4647.086     2358.265        0.824        0.550       72.913       50.629        0.482      337.827       10.064      846.282
12/11/2014  19:00:00      -97.718      174.729      -38.906       57.548       53.838       28.188     3311.819     2898.486      794.553        2.430        0.350      200.197       29.822        0.022      338.003       10.357      846.164
12/11/2014  19:01:00      -98.141      230.793      -35.215       47.783       81.971       38.085     2283.196     6719.188     1450.498        3.729        0.523      250.793       35.760        0.020      337.990       10.335      845.987
12/11/2014  19:02:00        8.143      299.543      -45.643      106.166      102.373       40.502    11271.270    10480.156     1640.374        5.763        1.170      299.654       36.836        0.015      337.970       10.299      845.930
12/11/2014  19:03:00      136.594      114.235       54.193      108.658       86.724       92.561    11806.662     7521.103     8567.554        3.126        1.395      178.066       81.928        0.212      337.866       10.126      846.052
12/11/2014  19:04:00      171.872      154.816      119.780      143.881       73.163       90.675    20701.816     5352.879     8221.956        5.106        1.714      231.318      101.507        0.193      337.779        9.981      846.211
12/11/2014  19:05:00       92.183       53.762       37.286      124.256       70.692       63.638    15439.474     4997.291     4049.819        1.863        1.224      106.715       37.775        0.125      337.875       10.141      846.203
12/11/2014  19:06:00       14.567       89.794      -25.666       40.135       55.168       23.965     1610.808     3043.528      574.319        0.708        0.261       90.967       28.141        0.096      338.088       10.501      846.212
12/11/2014  19:07:00      -24.227      101.288      -17.071       41.189       46.408       28.150     1696.572     2153.747      792.449        0.789        0.232      104.145       31.083        0.089      338.315       10.884      846.238
12/11/2014  19:08:00       45.924      132.473      -10.200       50.410       28.216       27.483     2541.178      796.129      755.318        1.193        0.205      140.208       17.653        0.016      338.137       10.584      846.278
12/11/2014  19:09:00       69.578       81.252        1.967       42.391       40.670       38.838     1796.981     1654.086     1508.357        0.820        0.248      106.972       28.576        0.071      338.142       10.591      846.271
12/11/2014  19:10:00       98.220      104.759       76.232       85.091       57.109       66.212     7240.543     3261.455     4384.016        2.066        0.744      143.602       47.457        0.109      338.199       10.686      846.218
12/11/2014  19:11:00       40.836       30.682       18.659       57.332       64.976       67.730     3287.012     4221.833     4587.329        0.752        0.605       51.078       58.311        1.303      338.297       10.852      846.211
12/11/2014  19:12:00       68.010       54.492       40.439       74.257       41.977       35.169     5514.102     1762.044     1236.840        0.887        0.426       87.148       30.302        0.121      338.708       11.543      846.247
12/11/2014  19:13:00      162.828       51.861       80.146      114.795      111.666       76.872    13177.975    12469.323     5909.308        3.358        1.578      170.887       74.255        0.189      338.657       11.455      846.268
12/11/2014  19:14:00      112.905      100.516       82.734      100.255       80.688       79.028    10051.049     6510.488     6245.396        2.625        1.140      151.165       73.523        0.237      338.780       11.662      846.181
12/11/2014  19:15:00      122.740      120.436      120.176      156.541       89.424       67.170    24505.148     7996.629     4511.812        4.051        1.851      171.959       52.665        0.094      338.851       11.782      846.163
12/11/2014  19:16:00      122.176        5.200       64.975       92.789      101.479       75.549     8609.847    10298.024     5707.666        2.189        1.231      122.287       73.012        0.356      338.797       11.691      846.224
12/11/2014  19:17:00       84.466        2.871       26.592       48.777       64.951       31.711     2379.232     4218.630     1005.562        0.773        0.380       84.515       25.093        0.088      339.057       12.131      846.163
12/11/2014  19:18:00       19.597       54.842       -4.972       85.271       31.553       31.368     7271.159      995.618      983.979        0.633        0.463       58.238       41.036        0.497      338.652       11.448      846.141
12/11/2014  19:19:00       48.106      101.505       83.642       83.544       83.782       72.466     6979.535     7019.493     5251.264        1.943        0.963      112.327       60.720        0.292      338.766       11.639      846.125
12/11/2014  19:20:00      -56.072        0.100       20.621       68.981       69.196       36.240     4758.371     4788.115     1313.301        0.721        0.543       56.072       27.721        0.244      339.135       12.263      846.044
12/11/2014  19:21:00       47.880       32.267       25.719       46.778       53.141       38.361     2188.135     2823.959     1471.570        0.524        0.324       57.738       33.221        0.331      339.328       12.587      846.072
12/11/2014  19:22:00      115.328     -214.088      -11.359      110.599       93.816       68.091    12232.077     8801.512     4636.319        4.246        1.283      243.175       52.028        0.046      339.382       12.675      846.126
12/11/2014  19:23:00       63.056     -101.876       13.435       74.006       94.700       57.811     5476.920     8968.166     3342.135        1.616        0.889      119.812       60.553        0.255      339.435       12.766      846.050
12/11/2014  19:24:00       -2.551     -156.089       -1.509       91.026       68.277       46.805     8285.737     4661.809     2190.743        1.975        0.757      156.110       33.860        0.047      339.532       12.929      846.142
12/11/2014  19:25:00       14.209      -76.401       11.285       48.964       65.748       35.134     2397.428     4322.757     1234.426        0.706        0.398       77.712       32.695        0.177      339.590       13.028      846.309
12/11/2014  19:26:00      -63.942     -123.372       -5.592       64.008       85.611       45.438     4097.082     7329.314     2064.571        1.641        0.675      138.957       40.327        0.084      339.395       12.697      846.430
12/11/2014  19:27:00      -46.788      -93.177       50.388       65.823      157.857       87.365     4332.695    24918.724     7632.594        2.514        1.844      104.265       90.450        0.753      339.483       12.846      846.491
12/11/2014  19:28:00      161.273     -207.982       -7.397      123.476      133.893       72.663    15246.271    17927.458     5279.885        5.388        1.923      263.184       79.843        0.092      339.536       12.935      846.578
12/11/2014  19:29:00       70.601      -70.135       34.443       82.409       92.209       53.538     6791.304     8502.465     2866.368        1.462        0.908       99.516       58.769        0.349      339.520       12.908      846.591
12/11/2014  19:30:00       69.144     -136.729       -7.789       62.728       77.725       51.815     3934.851     6041.193     2684.763        1.810        0.633      153.218       54.074        0.125      339.434       12.763      846.547
12/11/2014  19:31:00      100.300     -214.182      -23.126      120.896      111.656       66.622    14615.880    12466.998     4438.447        4.399        1.576      236.503       65.524        0.077      339.460       12.805      846.445
12/11/2014  19:32:00      158.433     -184.637        5.984      104.273      153.644       64.940    10872.800    23606.396     4217.209        4.895        1.935      243.294       75.704        0.097      339.550       12.958      846.362
12/11/2014  19:33:00      120.460     -180.936        4.930      117.169      136.984       80.537    13728.682    18764.520     6486.138        4.312        1.949      217.367       96.711        0.198      339.527       12.919      846.298
12/11/2014  19:34:00      181.426     -194.545      -45.603      107.265      106.026       62.410    11505.807    11241.606     3894.992        4.974        1.332      266.014       65.351        0.060      339.420       12.739      846.343
12/11/2014  19:35:00       92.489     -129.722       -5.218      108.909       95.810       69.326    11861.268     9179.573     4806.029        2.562        1.292      159.317       71.116        0.199      339.378       12.669      846.411
12/11/2014  19:36:00       -7.125      -79.679       26.098       75.191       83.046       49.372     5653.621     6896.563     2437.618        1.103        0.749       79.997       33.314        0.173      339.371       12.657      846.460
12/11/2014  19:37:00       92.960     -107.311       28.207      100.613       87.713       50.113    10122.985     7693.513     2511.312        2.064        1.016      141.976       64.522        0.207      339.297       12.530      846.478
12/11/2014  19:38:00       85.462     -102.550       -3.800       43.173       45.697       28.586     1863.910     2088.183      817.144        1.130        0.238      133.492       23.502        0.031      339.250       12.454      846.412
12/11/2014  19:39:00       31.636      -11.746       15.950       41.163       46.996       32.398     1694.374     2208.621     1049.623        0.317        0.248       33.746       25.619        0.576      339.213       12.392      846.304
12/11/2014  19:40:00      -61.860      -32.361       -0.277       47.832       21.428       17.244     2287.887      459.154      297.357        0.396        0.152       69.814       20.418        0.086      339.323       12.577      846.256
12/11/2014  19:41:00      -35.380       -4.182        3.273       34.498       28.596       19.586     1190.116      817.722      383.618        0.184        0.120       35.626       15.915        0.200      339.389       12.688      846.279
12/11/2014  19:42:00      -60.700      -64.851       -8.813       32.163       39.168       17.364     1034.462     1534.112      301.518        0.542        0.144       88.826       18.790        0.045      339.247       12.450      846.323
12/11/2014  19:43:00      -60.387      -35.422        5.724       34.110       33.279       20.709     1163.477     1107.490      428.863        0.382        0.135       70.010       21.300        0.093      339.196       12.362      846.362
12/11/2014  19:44:00      -57.362      -63.572       -3.915       24.128       22.839       17.956      582.137      521.636      322.409        0.439        0.071       85.626        8.457        0.010      339.230       12.419      846.328
12/11/2014  19:45:00      -25.975      -24.369       -6.787       25.155       30.298       16.142      632.764      917.953      260.551        0.156        0.091       35.617        9.213        0.067      339.231       12.422      846.305
12/11/2014  19:46:00      -23.921        4.660        4.864       15.669       12.988       11.858      245.524      168.678      140.601        0.059        0.028       24.371       11.726        0.232      339.204       12.378      846.327
12/11/2014  19:47:00      -35.128      -71.485       -3.689       31.773       66.158       26.387     1009.550     4376.872      696.265        0.622        0.304       79.649       18.728        0.055      339.303       12.544      846.411
12/11/2014  19:48:00      -41.547      -55.223       -6.732       78.078       46.016       24.799     6096.158     2117.494      615.006        0.682        0.441       69.106       22.487        0.106      339.302       12.542      846.476
12/11/2014  19:49:00     -132.352      -68.152        4.222       62.838       33.661       24.888     3948.648     1133.089      619.421        1.394        0.285      148.868       26.631        0.032      339.134       12.258      846.466
12/11/2014  19:50:00     -142.055      -58.135       -7.012       55.500       43.013       31.545     3080.270     1850.085      995.104        1.477        0.296      153.491       29.148        0.036      339.049       12.116      846.427
12/11/2014  19:51:00     -102.122      -58.694       -5.878       59.724       38.266       25.852     3567.014     1464.302      668.339        0.980        0.285      117.788       30.843        0.069      339.001       12.036      846.425
12/11/2014  19:52:00     -135.502      -29.482       -4.982       48.014       50.401       31.556     2305.299     2540.282      995.786        1.255        0.292      138.673       26.323        0.036      339.092       12.190      846.438
12/11/2014  19:53:00     -242.112      -71.032       -5.793       56.580       36.581       33.195     3201.312     1338.154     1101.897        3.467        0.282      252.316       28.734        0.013      338.987       12.008      846.450
12/11/2014  19:54:00     -202.571      -87.888       -5.309       90.810       83.220       47.391     8246.523     6925.501     2245.931        3.310        0.871      220.815       49.746        0.051      338.900       11.862      846.427
12/11/2014  19:55:00     -155.690      -49.405       -1.101       86.049       65.247       42.317     7404.430     4257.188     1790.718        2.006        0.673      163.340       44.640        0.075      338.816       11.721      846.345
12/11/2014  19:56:00     -198.112      -60.163       -8.704       58.564       50.335       28.862     3429.790     2533.640      833.039        2.487        0.340      207.046       26.950        0.017      338.841       11.764      846.294
12/11/2014  19:57:00     -193.817      -29.262      -12.547       41.971       47.309       27.155     1761.561     2238.176      737.418        2.166        0.237      196.013       26.074        0.018      338.842       11.768      846.300
12/11/2014  19:58:00     -185.000      -66.375       -4.633       61.039       44.748       26.313     3725.783     2002.416      692.384        2.253        0.321      196.546       31.588        0.026      338.809       11.711      846.316
12/11/2014  19:59:00     -152.777      -69.245      -12.477       49.021       41.841       23.658     2403.081     1750.629      559.706        1.650        0.236      167.737       20.055        0.014      338.843       11.770      846.356
12/11/2014  20:00:00     -187.203      -29.185       -8.557       47.683       37.165       27.529     2273.629     1381.249      757.865        2.019        0.221      189.464       24.884        0.017      338.856       11.791      846.425
12/11/2014  20:01:00     -211.245      -57.104      -20.852       75.821       49.238       32.024     5748.759     2424.358     1025.561        2.876        0.460      218.828       38.732        0.031      338.844       11.771      846.476
12/11/2014  20:02:00     -225.457      -45.879      -21.648       64.514       37.945       32.919     4162.041     1439.807     1083.628        3.004        0.334      230.078       34.946        0.023      338.837       11.758      846.493
12/11/2014  20:03:00     -233.127      -64.387        1.713       79.236       76.010       48.177     6278.315     5777.587     2320.984        3.643        0.719      241.855       48.991        0.041      338.820       11.727      846.514
12/11/2014  20:04:00     -257.949     -142.944      -17.813      123.827      120.654       57.512    15333.031    14557.487     3307.673        6.024        1.660      294.908       69.952        0.056      338.835       11.754      846.532
12/11/2014  20:05:00     -138.370     -175.713        0.916      156.244       75.862       55.451    24412.045     5754.986     3074.854        4.163        1.662      223.654       66.356        0.088      338.789       11.676      846.495
12/11/2014  20:06:00     -145.413      -51.756       -2.786      112.601       65.750       43.935    12678.981     4323.095     1930.252        2.138        0.947      154.349       47.771        0.096      338.795       11.688      846.449
12/11/2014  20:07:00     -271.740     -150.969       -5.411      148.176      119.263       77.086    21956.206    14223.582     5942.242        6.938        2.106      310.861       81.202        0.068      338.687       11.503      846.508
12/11/2014  20:08:00     -287.999     -231.935      -30.972      153.431      161.191       88.319    23540.968    25982.626     7800.210        9.750        2.866      369.780       81.289        0.048      338.594       11.349      846.537
12/11/2014  20:09:00     -256.996     -103.373       -8.464      143.824      127.955       72.831    20685.279    16372.530     5304.343        5.957        2.118      277.007       74.008        0.071      338.573       11.313      846.519
12/11/2014  20:10:00     -268.647     -129.348       -0.347      162.194      111.020       72.814    26306.835    12325.506     5301.818        6.641        2.197      298.164       92.995        0.097      338.561       11.293      846.413
12/11/2014  20:11:00     -197.146      -62.910      -15.266       88.711       89.468       50.220     7869.655     8004.473     2522.048        3.072        0.920      206.940       44.243        0.046      338.539       11.256      846.312
12/11/2014  20:12:00     -402.485      -35.715      -30.212      195.543      115.514       59.379    38237.064    13343.525     3525.809       10.963        2.755      404.067       80.141        0.039      338.618       11.389      846.184
12/11/2014  20:13:00     -367.165      -70.720      -22.006      135.187      116.391       65.786    18275.634    13546.971     4327.765        8.822        1.808      373.914       58.864        0.025      338.534       11.247      846.054
12/11/2014  20:14:00     -358.511     -138.209      -18.458      122.976      103.208       71.299    15123.088    10651.809     5083.529        8.941        1.543      384.229       54.620        0.020      338.467       11.134      845.896
12/11/2014  20:15:00     -260.335      -41.398      -13.608      105.070       82.468       57.418    11039.719     6800.978     3296.813        4.540        1.057      263.606       45.059        0.029      338.592       11.344      845.797
12/11/2014  20:16:00     -301.451      -32.576      -29.086      167.451      104.436       55.438    28040.001    10906.800     3073.371        6.739        2.101      303.206       50.064        0.027      338.572       11.312      845.792
12/11/2014  20:17:00     -246.519      -31.656        3.086      134.676      104.195       71.397    18137.588    10856.652     5097.496        4.793        1.705      248.543       74.979        0.091      338.895       11.855      845.800
12/11/2014  20:18:00     -177.812      -73.742        6.481       87.781       80.767       41.294     7705.573     6523.324     1705.201        2.651        0.797      192.497       43.889        0.052      338.920       11.896      845.847
12/11/2014  20:19:00     -153.245      -90.706       -5.923       84.521       80.604       46.405     7143.757     6497.014     2153.422        2.377        0.790      178.078       48.317        0.074      338.913       11.887      845.896
12/11/2014  20:20:00     -111.948      -47.585       -7.953       49.249       60.178       31.953     2425.484     3621.374     1021.016        1.096        0.353      121.641       26.411        0.047      338.864       11.805      845.988
12/11/2014  20:21:00     -160.465     -145.006      -11.871       97.349      154.880       50.877     9476.872    23987.736     2588.507        4.148        1.803      216.277       55.963        0.067      338.685       11.500      846.021
12/11/2014  20:22:00     -117.221     -101.216       -6.412       54.232       63.211       36.899     2941.072     3995.618     1361.525        1.616        0.415      154.872       32.369        0.044      338.655       11.453      846.006
12/11/2014  20:23:00      -94.094       44.437      -14.322       50.141       59.651       33.457     2514.111     3558.270     1119.391        0.911        0.360      104.059       32.266        0.096      338.759       11.627      846.009
12/11/2014  20:24:00      -22.718        7.963       12.944       54.269       32.725       31.852     2945.121     1070.919     1014.518        0.289        0.252       24.073       38.163        2.513      338.797       11.693      846.071
12/11/2014  20:25:00       38.568       -3.853       10.004       27.502       15.009       23.608      756.376      225.282      557.330        0.157        0.077       38.760        8.496        0.048      338.673       11.482      846.151
12/11/2014  20:26:00       32.588      117.923       -8.810       37.754       85.179       31.724     1425.362     7255.479     1006.390        1.236        0.484      122.343       38.628        0.100      338.545       11.270      846.218
12/11/2014  20:27:00       53.622      186.481      -21.830       59.243       92.031       44.845     3509.683     8469.769     2011.046        2.606        0.700      194.037       40.034        0.043      338.151       10.604      846.289
12/11/2014  20:28:00       77.650       87.091       -0.178       64.079       55.440       43.889     4106.106     3073.553     1926.272        1.136        0.455      116.680       32.889        0.079      337.891       10.170      846.347
12/11/2014  20:29:00       22.102      163.198      -21.051       73.396       89.062       48.255     5386.949     7932.009     2328.505        2.160        0.782      164.687       52.377        0.101      337.757        9.945      846.382
12/11/2014  20:30:00       45.657      188.462       -5.524       98.876      119.812       68.972     9776.495    14354.809     4757.103        3.325        1.444      193.913       76.346        0.155      337.691        9.835      846.373
12/11/2014  20:31:00       40.148      332.867      -58.810       71.177      100.477       44.584     5066.118    10095.617     1987.777        6.651        0.857      335.280       44.103        0.017      337.599        9.678      846.366
12/11/2014  20:32:00       38.203      247.781      -15.855       84.027      117.934       68.095     7060.559    13908.537     4636.974        4.435        1.280      250.709       73.915        0.087      337.596        9.672      846.429
12/11/2014  20:33:00       -4.600      204.886      -12.602       73.679      145.586       61.720     5428.656    21195.198     3809.393        3.629        1.522      204.938       84.282        0.169      337.671        9.802      846.550
12/11/2014  20:34:00       79.061      172.191      -17.547       76.292      102.802       49.936     5820.414    10568.256     2493.606        2.754        0.944      189.474       59.898        0.100      337.694        9.839      846.647
12/11/2014  20:35:00       83.363      305.429      -37.157       69.029      122.538       67.524     4765.062    15015.493     4559.524        6.297        1.217      316.601       73.922        0.055      337.766        9.959      846.582
12/11/2014  20:36:00       63.295      312.279      -49.985       67.737       94.828       54.094     4588.263     8992.441     2926.128        6.026        0.825      318.629       55.129        0.030      337.802       10.019      846.487
12/11/2014  20:37:00       49.024      300.328      -38.685       42.797       90.605       47.391     1831.593     8209.312     2245.906        5.319        0.614      304.303       47.111        0.024      337.729        9.898      846.443
12/11/2014  20:38:00       18.477      266.235      -33.757       73.173       76.571       44.875     5354.283     5863.111     2013.766        4.279        0.662      266.876       47.380        0.032      337.804       10.022      846.354
12/11/2014  20:39:00        7.181      170.355      -18.148       49.543       72.402       35.255     2454.508     5242.007     1242.886        1.917        0.447      170.506       38.305        0.050      337.923       10.225      846.232
12/11/2014  20:40:00       23.059      189.716      -25.809       47.661       66.100       34.869     2271.532     4369.156     1215.833        2.252        0.393      191.112       36.663        0.037      337.973       10.307      846.090
12/11/2014  20:41:00       39.905      125.845       -9.513       35.883       71.169       34.996     1287.560     5064.986     1224.715        1.255        0.379      132.021       40.786        0.095      338.029       10.402      846.025
12/11/2014  20:42:00       27.580      148.339      -24.120       42.413       49.749       35.002     1798.863     2475.004     1225.122        1.442        0.275      150.881       33.937        0.051      338.164       10.629      845.991
12/11/2014  20:43:00       16.155      122.435      -19.073       27.608       40.285       18.941      762.184     1622.874      358.760        0.918        0.137      123.497       22.190        0.032      338.206       10.699      845.924
12/11/2014  20:44:00       45.015      114.091       -6.248       68.240       57.255       43.963     4656.682     3278.084     1932.718        1.247        0.493      122.650       39.911        0.106      338.404       11.034      845.855
12/11/2014  20:45:00      -15.153       50.668      -10.575       49.120       56.036       24.035     2412.737     3140.027      577.668        0.452        0.307       52.886       22.557        0.182      338.735       11.589      845.846
12/11/2014  20:46:00      -46.107      -25.703      -11.963       37.490       38.881       16.235     1405.485     1511.722      263.575        0.305        0.159       52.787       10.548        0.040      338.493       11.182      845.863
12/11/2014  20:47:00      -34.679       -6.678        1.369       37.665       31.904       29.262     1418.634     1017.837      856.259        0.227        0.165       35.317       21.479        0.370      338.509       11.209      845.870
12/11/2014  20:48:00       38.525      -24.427        3.926       25.229       25.408       16.563      636.479      645.568      274.325        0.183        0.078       45.617       10.435        0.052      338.527       11.240      845.944
12/11/2014  20:49:00       55.869      -75.183      -18.297       29.991       23.261       15.145      899.463      541.075      229.381        0.539        0.083       93.669       12.520        0.018      338.538       11.259      846.058
12/11/2014  20:50:00       33.924      -26.341        8.740       30.168       21.688       17.414      910.102      470.389      303.234        0.180        0.084       42.950       13.833        0.104      338.596       11.353      846.148
12/11/2014  20:51:00       -5.550      -20.408       -0.528       16.240       14.306       12.038      263.747      204.655      144.905        0.053        0.031       21.150        9.754        0.213      338.623       11.401      846.223
12/11/2014  20:52:00       -9.792       -5.835        5.460       15.135        7.060        8.953      229.083       49.840       80.163        0.026        0.018       11.399        4.916        0.186      338.619       11.394      846.252
12/11/2014  20:53:00       -1.496       -1.171        8.226       24.733       18.621        6.898      611.702      346.727       47.577        0.054        0.050        1.899        3.680        3.755      338.709       11.544      846.230
12/11/2014  20:54:00        3.215       29.806        8.260        8.998       12.065        9.039       80.964      145.569       81.705        0.064        0.015       29.978        5.756        0.037      338.720       11.562      846.226
12/11/2014  20:55:00       16.809       31.262       -3.295       18.714       15.326        9.099      350.222      234.889       82.786        0.097        0.033       35.495        7.732        0.047      338.676       11.489      846.243
12/11/2014  20:56:00       57.320       39.432       -2.599       24.833       10.212       11.134      616.664      104.281      123.957        0.285        0.042       69.573       10.800        0.024      338.535       11.251      846.265
12/11/2014  20:57:00       42.364       46.037       -6.401       26.837       18.519       16.151      720.228      342.966      260.863        0.264        0.066       62.562       10.357        0.027      338.599       11.360      846.296
12/11/2014  20:58:00      -34.632       48.145       -2.684       40.381       30.592       19.221     1630.623      935.845      369.436        0.323        0.147       59.307       20.572        0.120      338.744       11.603      846.350
12/11/2014  20:59:00      -72.748       43.543      -11.392       32.180       37.496       22.863     1035.535     1405.945      522.696        0.514        0.148       84.784       19.393        0.052      338.755       11.622      846.378
12/11/2014  21:00:00     -149.346      -15.915      -19.011       36.016       37.177       22.456     1297.176     1382.134      504.267        1.305        0.159      150.192       18.293        0.015      338.726       11.573      846.343
12/11/2014  21:01:00     -149.901      -65.054      -22.653       37.750       57.376       25.290     1425.044     3292.018      639.607        1.628        0.268      163.408       19.422        0.014      338.565       11.304      846.329
12/11/2014  21:02:00     -114.208      -47.496      -14.900       50.330       40.560       27.752     2533.099     1645.126      770.169        1.023        0.247      123.691       12.199        0.010      338.576       11.322      846.340
12/11/2014  21:03:00     -141.977      -45.222       -7.481       56.979       49.077       34.940     3246.566     2408.584     1220.838        1.457        0.344      149.005       37.858        0.065      338.562       11.298      846.359
12/11/2014  21:04:00     -151.218       27.599      -14.700       41.802       69.334       34.181     1747.407     4807.260     1168.323        1.578        0.386      153.716       26.866        0.031      338.670       11.479      846.392
12/11/2014  21:05:00     -108.038       43.223       -9.343       62.597       33.472       25.769     3918.417     1120.348      664.056        0.966        0.285      116.364       30.337        0.068      338.721       11.564      846.347
12/11/2014  21:06:00      -48.660       78.825       -6.997       34.982       42.651       21.311     1223.769     1819.140      454.161        0.606        0.175       92.635       16.337        0.031      338.657       11.458      846.236
12/11/2014  21:07:00      -49.529       96.057      -14.798       49.777       61.491       29.425     2477.717     3781.141      865.842        0.951        0.356      108.074       26.527        0.060      338.695       11.521      846.164
12/11/2014  21:08:00     -108.689      129.283      -11.004       40.727       62.393       40.177     1658.709     3892.894     1614.184        1.791        0.358      168.901       31.869        0.036      338.657       11.457      846.111
12/11/2014  21:09:00      -80.173      148.887      -21.657       60.151       48.610       26.864     3618.153     2362.945      721.680        1.788        0.335      169.101       25.829        0.023      338.578       11.325      846.058
12/11/2014  21:10:00      -52.875      119.092      -14.942       30.621       42.184       26.930      937.647     1779.490      725.202        1.032        0.172      130.302       24.839        0.036      338.597       11.356      845.975
12/11/2014  21:11:00      -64.312      147.899      -26.955       59.256       45.823       26.817     3511.231     2099.738      719.140        1.653        0.317      161.276       19.798        0.015      338.553       11.281      845.912
12/11/2014  21:12:00     -103.171      175.769      -23.433       48.728       72.891       39.261     2374.392     5313.164     1541.432        2.566        0.461      203.812       34.978        0.029      338.511       11.208      845.948
12/11/2014  21:13:00      -84.696      113.843      -20.456       39.499       46.755       32.534     1560.193     2185.989     1058.475        1.268        0.240      141.893       26.565        0.035      338.501       11.195      846.015
12/11/2014  21:14:00      -73.081       93.527      -27.474       35.457       44.994       23.793     1257.193     2024.415      566.103        0.934        0.192      118.693       23.431        0.039      338.438       11.091      846.045
12/11/2014  21:15:00      -89.742      107.486      -23.635       57.919       47.545       35.823     3354.619     2260.574     1283.253        1.353        0.345      140.025       36.357        0.067      338.473       11.147      846.047
12/11/2014  21:16:00      -78.144       64.935       -4.908       41.544       72.177       28.478     1725.891     5209.587      810.996        0.905        0.387      101.602       31.240        0.095      338.502       11.198      846.050
12/11/2014  21:17:00      -74.118        1.276       -9.367       37.483       57.379       21.609     1404.955     3292.296      466.943        0.537        0.258       74.129       22.475        0.092      338.409       11.041      846.090
12/11/2014  21:18:00      -36.945       64.005        5.564       35.751       29.571       22.437     1278.118      874.423      503.409        0.407        0.133       73.903       16.192        0.048      338.502       11.195      846.095
12/11/2014  21:19:00      -14.240      116.067      -20.661       21.692       33.415       15.306      470.548     1116.581      234.273        0.796        0.091      116.938       16.745        0.021      338.377       10.986      846.068
12/11/2014  21:20:00       46.329      104.385      -14.178       51.791       49.282       34.524     2682.357     2428.720     1191.927        0.977        0.315      114.204       33.889        0.088      338.282       10.828      846.093
12/11/2014  21:21:00      168.633       96.479       18.377       64.585       63.872       44.858     4171.224     4079.652     2012.264        2.417        0.513      194.281       34.574        0.032      338.172       10.640      846.113
12/11/2014  21:22:00      208.670      109.603       18.101       82.134       55.690       44.704     6746.019     3101.422     1998.425        3.386        0.592      235.703       35.749        0.023      338.028       10.397      846.182
12/11/2014  21:23:00      105.384       86.662       22.766       61.540       32.822       37.201     3787.206     1077.263     1383.951        1.269        0.312      136.441        9.833        0.005      337.955       10.279      846.293
12/11/2014  21:24:00       22.930       46.931       -5.335       25.300       42.228       22.343      640.093     1783.168      499.212        0.284        0.146       52.233       24.906        0.227      337.927       10.233      846.390
12/11/2014  21:25:00      123.147       86.069       14.356       81.023       45.115       40.072     6564.661     2035.408     1605.735        1.649        0.510      150.243       17.258        0.013      337.890       10.169      846.416
12/11/2014  21:26:00      163.922      129.546       32.897       60.853       42.555       47.808     3703.122     1810.897     2285.615        2.627        0.390      208.932       27.975        0.018      337.891       10.168      846.423
12/11/2014  21:27:00       60.169       96.050        5.664       64.462       53.109       48.642     4155.352     2820.548     2366.054        1.111        0.467      113.340       37.898        0.112      337.929       10.234      846.450
12/11/2014  21:28:00        3.849      160.792      -30.253       52.487       48.183       26.332     2754.837     2321.562      693.388        1.628        0.288      160.838       25.313        0.025      338.011       10.372      846.508
12/11/2014  21:29:00      -37.268      108.165      -27.421       38.177       48.127       14.460     1457.520     2316.230      209.089        0.891        0.199      114.405       17.876        0.024      338.142       10.593      846.583
12/11/2014  21:30:00      -28.640      117.692      -11.948       33.525       53.057       25.088     1123.919     2815.095      629.413        0.969        0.228      121.127       16.854        0.019      338.145       10.598      846.666
12/11/2014  21:31:00      -67.295      132.136      -19.746       45.908       56.569       33.112     2107.518     3200.039     1096.419        1.439        0.320      148.285       34.720        0.055      338.054       10.444      846.756
12/11/2014  21:32:00      -88.428      119.806      -17.633       65.603       56.131       31.439     4303.701     3150.720      988.418        1.546        0.422      148.906       28.633        0.037      337.913       10.208      846.813
12/11/2014  21:33:00     -109.976       -5.985        1.657       67.658       53.228       33.366     4577.551     2833.221     1113.311        1.033        0.426      110.139       33.388        0.092      337.893       10.174      846.864
12/11/2014  21:34:00     -151.147      114.989      -34.481       93.079       71.457       41.693     8663.756     5106.106     1738.337        2.638        0.775      189.916       50.689        0.071      337.799       10.015      846.921
12/11/2014  21:35:00     -146.875       58.113      -21.070      103.114       97.562       45.474    10632.416     9518.289     2067.863        2.380        1.111      157.954       49.280        0.097      337.861       10.120      846.968
12/11/2014  21:36:00     -146.592       43.653      -19.665       68.734       53.354       33.628     4724.396     2846.611     1130.817        1.624        0.435      152.954       33.107        0.047      337.829       10.067      847.001
12/11/2014  21:37:00     -152.963       76.533      -32.490       68.208       89.422       38.610     4652.329     7996.276     1490.756        2.222        0.707      171.041       36.594        0.046      337.784        9.992      847.013
12/11/2014  21:38:00      -83.145       35.861      -14.582       66.781      105.351       44.139     4459.642    11098.855     1948.258        1.296        0.875       90.549       38.554        0.181      337.671        9.803      846.938
12/11/2014  21:39:00     -134.835       99.561      -17.871      107.625       85.888       55.725    11583.162     7376.775     3105.240        2.523        1.103      167.609       65.977        0.155      337.554        9.605      846.867
12/11/2014  21:40:00     -212.427      184.301      -38.125      113.362      144.943       72.895    12851.009    21008.371     5313.672        5.985        1.959      281.233       81.727        0.084      337.487        9.491      846.821
12/11/2014  21:41:00     -204.967      214.331      -48.966       95.691      109.867       53.129     9156.744    12070.654     2822.663        5.719        1.203      296.562       51.068        0.030      337.398        9.341      846.769
12/11/2014  21:42:00     -243.610      208.957      -54.819      107.616       96.138       66.324    11581.226     9242.572     4398.911        6.561        1.261      320.950       66.708        0.043      337.372        9.300      846.698
12/11/2014  21:43:00     -130.918      156.728      -20.227       93.775      132.744       54.248     8793.696    17621.018     2942.876        3.573        1.468      204.214       43.320        0.045      337.377        9.308      846.657
12/11/2014  21:44:00     -230.023      110.544      -58.980       74.502      117.119       63.253     5550.527    13716.873     4000.972        4.593        1.163      255.206       46.421        0.033      337.387        9.322      846.669
12/11/2014  21:45:00     -131.414      174.370      -21.584      118.249      148.100       73.868    13982.751    21933.624     5456.430        4.475        2.069      218.345       85.432        0.153      337.364        9.285      846.696
12/11/2014  21:46:00     -153.185      178.053      -16.859      118.824      129.143       67.180    14119.077    16677.811     4513.175        4.537        1.766      234.880       80.977        0.119      337.398        9.343      846.711
12/11/2014  21:47:00     -157.200      258.779      -42.059      112.986      151.248       65.650    12765.852    22875.973     4309.890        6.669        1.998      302.784       77.432        0.065      337.321        9.212      846.707
12/11/2014  21:48:00     -203.094      302.720      -41.176      107.932       98.841       64.856    11649.233     9769.524     4206.330        8.010        1.281      364.536       55.073        0.023      337.293        9.167      846.697
12/11/2014  21:49:00     -180.233      243.676      -44.509       86.921      116.082       63.463     7555.200    13475.124     4027.572        5.945        1.253      303.088       57.487        0.036      337.325        9.218      846.719
12/11/2014  21:50:00     -189.145      262.150      -44.539       94.174      137.149       64.129     8868.769    18809.738     4112.478        6.913        1.590      323.262       66.320        0.042      337.342        9.249      846.704
12/11/2014  21:51:00     -223.465      264.416      -52.961      130.737      136.259       76.520    17092.159    18566.625     5855.321        8.208        2.076      346.197       89.525        0.067      337.310        9.195      846.707
12/11/2014  21:52:00     -143.438      294.274      -28.907       74.697      110.877       63.736     5579.622    12293.624     4062.263        6.497        1.097      327.371       57.325        0.031      337.280        9.144      846.736
12/11/2014  21:53:00     -179.687      262.502      -37.347      105.687      175.628       70.073    11169.824    30845.056     4910.195        7.475        2.346      318.111       79.131        0.062      337.279        9.143      846.824
12/11/2014  21:54:00     -226.745      256.777      -48.852      133.299      124.180       69.067    17768.674    15420.578     4770.293        7.884        1.898      342.560       80.824        0.056      337.251        9.098      846.888
12/11/2014  21:55:00     -137.477      251.022      -35.544      134.545      160.739       75.145    18102.397    25836.882     5646.845        6.637        2.479      286.203       84.561        0.087      337.325        9.221      846.915
12/11/2014  21:56:00     -147.197      248.898      -22.935      105.933      115.445       63.042    11221.701    13327.524     3974.263        5.633        1.426      289.166       50.160        0.030      337.302        9.181      846.931
12/11/2014  21:57:00     -163.003      384.630      -46.459       85.085      154.881       66.413     7239.444    23988.278     4410.632       10.615        1.782      417.744       64.865        0.024      337.300        9.178      846.887
12/11/2014  21:58:00     -195.591      277.971      -54.918      101.939      140.259       69.162    10391.658    19672.656     4783.368        7.669        1.742      339.888       81.127        0.057      337.326        9.223      846.809
12/11/2014  21:59:00     -199.920      235.541      -53.000       86.020      107.476       62.597     7399.357    11551.124     3918.446        6.056        1.143      308.946       59.905        0.038      337.349        9.261      846.774
12/11/2014  22:00:00     -151.337      249.752      -27.116       89.587      178.863       65.876     8025.828    31992.076     4339.605        6.518        2.218      292.025       73.494        0.063      337.282        9.149      846.744
12/11/2014  22:01:00     -262.651      274.831      -47.839      117.894      104.917       74.074    13898.892    11007.673     5486.944        8.859        1.520      380.155       73.874        0.038      337.214        9.034      846.762
12/11/2014  22:02:00     -184.345      194.086      -38.825       84.473       71.668       49.989     7135.605     5136.293     2498.911        4.396        0.739      267.680       42.289        0.025      337.210        9.027      846.783
12/11/2014  22:03:00     -214.035      209.157      -52.191       85.992       91.321       50.560     7394.616     8339.572     2556.298        5.528        0.915      299.262       49.157        0.027      337.200        9.010      846.749
12/11/2014  22:04:00     -240.429      208.421      -37.382      127.599       90.650       61.588    16281.417     8217.433     3793.048        6.546        1.415      318.191       58.835        0.034      337.194        9.000      846.686
12/11/2014  22:05:00     -273.316      266.289      -66.690       97.162       87.105       57.367     9440.381     7587.291     3290.954        8.518        1.016      381.591       58.089        0.023      337.203        9.015      846.585
12/11/2014  22:06:00     -244.071      269.186      -62.315       96.759      109.377       66.242     9362.346    11963.335     4388.016        8.081        1.286      363.362       60.451        0.028      337.156        8.937      846.463
12/11/2014  22:07:00     -189.484      237.817      -36.823       82.681       92.052       61.075     6836.202     8473.639     3730.146        5.642        0.952      304.075       58.006        0.036      337.121        8.878      846.426
12/11/2014  22:08:00     -195.236      172.236      -37.713      101.787       76.400       47.958    10360.539     5836.905     2299.982        4.385        0.925      260.350       46.431        0.032      337.164        8.948      846.408
12/11/2014  22:09:00     -214.440      226.300      -58.754      108.508      119.697       54.515    11773.906    14327.384     2971.878        6.485        1.454      311.763       63.390        0.041      337.102        8.846      846.410
12/11/2014  22:10:00     -184.704      239.869      -49.506       93.008      104.563       56.235     8650.549    10933.419     3162.410        5.842        1.137      302.742       48.708        0.026      337.115        8.868      846.459
12/11/2014  22:11:00     -255.833      242.498      -42.926       97.439      114.332       70.250     9494.304    13071.816     4935.095        7.679        1.375      352.499       60.712        0.030      337.129        8.892      846.423
12/11/2014  22:12:00     -246.794      235.381      -55.468       78.977      100.430       52.049     6237.325    10086.138     2709.091        6.921        0.952      341.044       46.976        0.019      337.064        8.782      846.334
12/11/2014  22:13:00     -225.489       92.282       -7.315      156.258      112.809       62.769    24416.717    12725.905     3939.910        5.024        2.054      243.641       78.250        0.103      337.017        8.704      846.275
12/11/2014  22:14:00     -144.583       95.848      -32.059       58.011       84.620       53.227     3365.323     7160.474     2833.139        2.224        0.668      173.468       41.753        0.058      337.068        8.792      846.281
12/11/2014  22:15:00     -126.763      107.999      -26.032       68.162      110.784       50.784     4646.027    12273.187     2578.971        2.395        0.975      166.531       52.461        0.099      337.006        8.686      846.338
12/11/2014  22:16:00      -38.675      -12.629       -6.741       73.223       45.209       38.747     5361.548     2043.856     1501.361        0.530        0.445       40.685       33.820        0.691      337.063        8.784      846.434
12/11/2014  22:17:00      -84.303       41.265      -21.952       87.444       57.921       36.824     7646.539     3354.845     1355.990        1.082        0.618       93.861       38.771        0.171      337.000        8.678      846.563
12/11/2014  22:18:00     -109.869      -13.995       -5.591       60.528       68.240       38.484     3663.691     4656.656     1481.019        1.105        0.490      110.757       32.554        0.086      336.900        8.510      846.613
12/11/2014  22:19:00      -84.250      140.152      -38.513       75.047       86.438       35.229     5632.113     7471.582     1241.079        2.128        0.717      163.525       27.384        0.028      336.858        8.439      846.693
12/11/2014  22:20:00       -9.467       35.643        0.126       44.001       66.852       27.241     1936.127     4469.196      742.075        0.425        0.357       36.879       24.463        0.440      336.912        8.532      846.701
12/11/2014  22:21:00      -56.501      146.803      -18.067       61.391       78.736       39.342     3768.885     6199.335     1547.758        1.829        0.576      157.301       47.640        0.092      336.852        8.430      846.653
12/11/2014  22:22:00      -72.127      166.693      -20.637       66.804       65.495       46.122     4462.744     4289.658     2127.265        2.215        0.544      181.628       42.238        0.054      336.909        8.525      846.588
12/11/2014  22:23:00      -90.785      173.514      -32.507       77.358       96.039       50.083     5984.201     9223.412     2508.277        2.856        0.886      195.829       50.190        0.066      336.836        8.402      846.552
12/11/2014  22:24:00     -183.836      145.977      -39.384       56.851       51.525       35.785     3232.084     2654.857     1280.550        3.191        0.358      234.745       29.822        0.016      336.834        8.398      846.526
12/11/2014  22:25:00     -149.356      204.446      -36.716       66.197       79.880       50.469     4382.067     6380.736     2547.071        3.938        0.665      253.190       46.101        0.033      336.753        8.262      846.463
12/11/2014  22:26:00     -180.416      154.244      -32.468       87.112       89.847       44.099     7588.461     8072.492     1944.710        3.750        0.880      237.362       41.621        0.031      336.857        8.436      846.384
12/11/2014  22:27:00     -252.940      239.312      -67.734       79.639      128.903       56.012     6342.388    16615.918     3137.309        7.596        1.305      348.208       70.325        0.041      336.809        8.356      846.328
12/11/2014  22:28:00     -224.603      120.187      -33.044      116.253       74.321       58.890    13514.711     5523.615     3468.020        4.424        1.125      254.737       65.526        0.066      336.864        8.448      846.283
12/11/2014  22:29:00     -238.577      123.914      -40.811      151.549      112.124       70.478    22966.968    12571.822     4967.097        5.721        2.025      268.837       71.708        0.071      336.782        8.312      846.302
12/11/2014  22:30:00     -195.895      133.676      -35.240      110.319       97.774       58.713    12170.196     9559.743     3447.195        4.133        1.259      237.159       53.203        0.050      336.794        8.333      846.367
12/11/2014  22:31:00     -148.362      135.363      -35.396       81.876       92.251       54.891     6703.753     8510.237     3013.039        2.990        0.911      200.834       48.607        0.059      336.791        8.328      846.432
12/11/2014  22:32:00     -157.179       83.829      -13.576      109.299      103.196       69.671    11946.228    10649.370     4853.996        2.968        1.372      178.136       57.906        0.106      336.878        8.474      846.454
12/11/2014  22:33:00     -130.710      144.582      -16.685      110.715      123.392       64.441    12257.854    15225.550     4152.706        3.495        1.582      194.908       60.374        0.096      336.776        8.304      846.446
12/11/2014  22:34:00     -185.004      212.812      -35.883      125.040      128.277       60.301    15634.953    16455.020     3636.225        5.826        1.786      281.985       69.848        0.061      336.740        8.243      846.486
12/11/2014  22:35:00     -211.264      197.429      -44.196       97.901       84.477       58.398     9584.644     7136.385     3410.379        5.284        1.007      289.155       56.033        0.038      336.772        8.296      846.533
12/11/2014  22:36:00     -198.778      213.356      -54.729      111.886       79.319       50.196    12518.386     6291.559     2519.645        5.468        1.066      291.605       56.227        0.037      336.722        8.212      846.561
12/11/2014  22:37:00      -72.900      233.381       -9.967       89.589      138.801       69.671     8026.172    19265.703     4854.035        4.601        1.607      244.502       51.419        0.044      336.716        8.202      846.573
12/11/2014  22:38:00      -75.764      139.620       -9.122      131.661      104.040       58.760    17334.514    10824.253     3452.756        2.846        1.581      158.852       59.610        0.141      336.731        8.229      846.606
12/11/2014  22:39:00        2.315      207.239      -21.077       87.658      119.973       53.270     7683.901    14393.438     2837.717        3.415        1.246      207.252       55.930        0.073      336.701        8.178      846.630
12/11/2014  22:40:00      -37.110      213.506      -12.283       57.652      107.210       54.484     3323.705    11494.001     2968.523        3.245        0.889      216.707       53.785        0.062      336.717        8.204      846.637
12/11/2014  22:41:00       65.775      136.163        2.284      103.346      100.843       49.644    10680.295    10169.409     2464.562        2.309        1.166      151.218       60.433        0.160      336.684        8.152      846.683
12/11/2014  22:42:00      -93.855      207.727      -34.511      122.102       65.579       54.792    14909.010     4300.568     3002.199        3.768        1.111      227.945       42.718        0.035      336.714        8.199      846.745
12/11/2014  22:43:00      -60.157      158.944      -22.728       67.810       80.027       37.628     4598.207     6404.334     1415.856        2.091        0.621      169.948       39.758        0.055      336.747        8.255      846.698
12/11/2014  22:44:00     -113.018      203.646      -32.608       75.245       88.998       47.520     5661.774     7920.705     2258.167        3.557        0.792      232.905       45.191        0.038      336.756        8.269      846.642
12/11/2014  22:45:00     -156.739      149.033      -26.177       59.263       83.320       43.117     3512.122     6942.278     1859.048        2.989        0.616      216.283       40.616        0.035      336.907        8.522      846.591
12/11/2014  22:46:00     -188.074      147.211      -36.049       84.791       87.319       48.705     7189.474     7624.682     2372.217        3.776        0.859      238.836       39.497        0.027      336.781        8.310      846.495
12/11/2014  22:47:00     -184.887      178.619      -41.931       83.668       75.797       42.685     7000.280     5745.242     1822.038        4.120        0.728      257.076       44.786        0.030      336.813        8.364      846.391
12/11/2014  22:48:00     -247.586      259.920      -52.402      112.665      140.662       79.300    12693.294    19785.760     6288.460        8.518        1.938      358.967       86.424        0.058      336.762        8.279      846.314
12/11/2014  22:49:00     -263.283      258.382      -54.386       94.371      117.300       64.289     8905.806    13759.312     4133.113        8.291        1.340      368.889       56.085        0.023      336.776        8.301      846.301
12/11/2014  22:50:00     -265.986      303.842      -66.971      140.760      132.542       68.259    19813.398    17567.441     4659.327       10.479        2.102      403.818       88.267        0.048      336.746        8.251      846.321
12/11/2014  22:51:00     -181.911      157.670      -23.648      122.799       93.235       63.205    15079.529     8692.731     3994.928        4.313        1.388      240.731       53.139        0.049      336.830        8.391      846.363
12/11/2014  22:52:00     -207.918       68.090      -37.671      101.342      139.596       55.324    10270.146    19487.011     3060.775        4.105        1.641      218.784       55.787        0.065      336.803        8.348      846.453
12/11/2014  22:53:00     -129.440       67.564      -27.123       75.720       90.094       42.735     5733.465     8117.015     1826.302        1.886        0.784      146.012       35.829        0.060      336.914        8.534      846.524
12/11/2014  22:54:00     -129.261      134.573      -29.070      104.495      113.400       58.982    10919.154    12859.607     3478.854        3.146        1.363      186.597       57.396        0.095      336.880        8.477      846.553
12/11/2014  22:55:00     -213.550       13.337      -24.154       90.383      105.461       59.211     8169.078    11121.948     3505.934        3.458        1.140      213.966       46.500        0.047      336.899        8.508      846.639
12/11/2014  22:56:00     -257.015       -5.753      -30.341      129.452      125.564       60.481    16757.827    15766.232     3657.891        5.159        1.809      257.079       63.361        0.061      336.734        8.233      846.782
12/11/2014  22:57:00     -203.368      -11.436      -43.772       73.381      120.848       50.143     5384.820    14604.219     2514.320        3.295        1.125      203.689       41.993        0.043      336.794        8.331      846.797
12/11/2014  22:58:00     -226.596      -17.722      -21.488       84.701      127.860       47.752     7174.249    16348.112     2280.255        3.896        1.290      227.288       33.619        0.022      336.755        8.268      846.710
12/11/2014  22:59:00     -139.727      196.760      -20.445      113.357      137.610       66.559    12849.860    18936.397     4430.049        4.743        1.811      241.325       60.331        0.062      336.788        8.323      846.572
12/11/2014  23:00:00     -224.297      271.192      -57.303      107.406      101.095       65.671    11536.058    10220.250     4312.739        7.660        1.303      351.929       67.021        0.036      336.738        8.240      846.435
12/11/2014  23:01:00     -170.305      214.237      -26.340      123.178      113.042       67.788    15172.773    12778.430     4595.198        5.406        1.627      273.681       66.373        0.059      336.777        8.305      846.417
12/11/2014  23:02:00     -204.934      176.283      -41.847      121.338      114.817       60.007    14722.894    13182.936     3600.838        5.316        1.575      270.321       60.856        0.051      336.689        8.157      846.537
12/11/2014  23:03:00     -168.733      -20.930       -8.197       93.812       77.703       50.396     8800.636     6037.713     2539.774        2.317        0.869      170.026       38.184        0.050      336.822        8.382      846.677
12/11/2014  23:04:00     -169.498      127.897      -19.647      101.086      141.601       64.563    10218.360    20050.709     4168.324        3.995        1.722      212.338       56.569        0.071      336.720        8.209      846.790
12/11/2014  23:05:00     -182.310      135.750      -39.946       93.348       77.895       48.478     8713.868     6067.606     2350.076        3.519        0.857      227.300       37.135        0.027      336.680        8.142      846.835
12/11/2014  23:06:00      -83.756       64.744      -12.331       57.015       88.749       28.299     3250.685     7876.411      800.840        1.164        0.596      105.863       26.231        0.061      336.724        8.218      846.744
12/11/2014  23:07:00      -29.611      237.799      -31.991       68.812      103.060       58.296     4735.030    10621.300     3398.408        3.860        0.938      239.635       54.582        0.052      336.710        8.195      846.701
12/11/2014  23:08:00      -20.126      222.703      -17.851       65.979      124.161       50.438     4353.177    15415.882     2543.960        3.631        1.116      223.611       56.641        0.064      336.676        8.136      846.707
12/11/2014  23:09:00       -8.641      344.792      -49.610       82.475      109.781       47.202     6802.110    12051.883     2228.026        7.125        1.054      344.900       51.714        0.022      336.630        8.058      846.734
12/11/2014  23:10:00      -71.294      209.710      -32.381       53.592       57.356       33.472     2872.090     3289.745     1120.358        2.869        0.364      221.498       18.410        0.007      336.675        8.135      846.681
12/11/2014  23:11:00      -92.533      106.706      -21.024       51.964       50.269       29.417     2700.288     2526.960      865.337        1.324        0.305      141.239       21.328        0.023      336.814        8.367      846.558
12/11/2014  23:12:00      -82.022      146.526      -30.828       69.499       66.892       36.853     4830.047     4474.474     1358.119        1.990        0.533      167.921       34.798        0.043      336.720        8.211      846.436
12/11/2014  23:13:00      -90.457      194.949      -33.544      117.868      105.402       63.053    13892.979    11109.538     3975.636        3.814        1.449      214.913       73.404        0.117      336.668        8.123      846.406
12/11/2014  23:14:00      -32.342      244.602      -28.924       52.211      103.784       45.032     2725.944    10771.188     2027.915        3.862        0.776      246.731       48.018        0.038      336.669        8.124      846.406
12/11/2014  23:15:00       12.618      297.930      -34.550       60.638       98.212       43.502     3676.936     9645.503     1892.386        5.266        0.761      298.197       50.961        0.029      336.567        7.953      846.373
12/11/2014  23:16:00       -4.116      295.814      -36.902       86.389      110.219       48.835     7463.072    12148.301     2384.831        5.544        1.100      295.842       53.359        0.033      336.532        7.894      846.354
12/11/2014  23:17:00      -28.138      338.861      -55.077       72.621      157.959       60.395     5273.745    24951.074     3647.508        7.626        1.694      340.028       63.975        0.035      336.504        7.846      846.296
12/11/2014  23:18:00      -68.912      249.823      -13.644      103.570      143.425       75.344    10726.758    20570.690     5676.755        5.215        1.849      259.153       83.573        0.104      336.496        7.833      846.294
12/11/2014  23:19:00     -166.393      205.185      -39.163      115.639      123.109       62.411    13372.381    15155.804     3895.110        5.187        1.621      264.173       60.414        0.052      336.604        8.014      846.367
12/11/2014  23:20:00     -206.257      303.345      -54.416      103.505      159.619       71.040    10713.371    25478.288     5046.691        8.937        2.062      366.824       77.394        0.045      336.543        7.912      846.461
12/11/2014  23:21:00     -220.966      159.503      -45.286       97.431       89.185       51.621     9492.729     7954.042     2664.776        4.821        1.006      272.520       44.997        0.027      336.578        7.970      846.481
12/11/2014  23:22:00     -215.855      202.263      -32.859       88.035      104.564       64.740     7750.194    10933.540     4191.300        5.572        1.144      295.810       67.853        0.053      336.597        8.005      846.455
12/11/2014  23:23:00     -180.015      185.970      -31.294      103.876      129.059       69.852    10790.219    16656.131     4879.300        5.014        1.616      258.825       63.683        0.061      336.544        7.914      846.424
12/11/2014  23:24:00     -160.749      282.547      -34.153      105.923      119.948       63.456    11219.695    14387.639     4026.727        6.823        1.482      325.074       71.234        0.048      336.487        7.818      846.411
12/11/2014  23:25:00     -202.591      234.311      -43.552      135.257      104.443       64.307    18294.559    10908.318     4135.381        6.558        1.667      309.750       69.411        0.050      336.515        7.865      846.342
12/11/2014  23:26:00     -179.696      240.616      -49.068       96.680      124.126       70.503     9346.993    15407.349     4970.658        6.115        1.486      300.311       71.790        0.057      336.535        7.897      846.383
12/11/2014  23:27:00     -145.811      238.358      -47.937       79.615      109.637       59.805     6338.537    12020.344     3576.629        5.115        1.097      279.420       49.129        0.031      336.460        7.773      846.532
12/11/2014  23:28:00      -25.801      166.327      -29.860      165.244      118.155       68.088    27305.526    13960.517     4636.030        3.755        2.295      168.317       89.350        0.282      336.541        7.911      846.672
12/11/2014  23:29:00     -189.082      194.891      -62.182       93.386      143.602       54.960     8720.892    20621.422     3020.570        5.498        1.618      271.541       36.088        0.018      336.497        7.835      846.675
12/11/2014  23:30:00     -179.024      308.953      -52.537       96.787      127.017       58.397     9367.633    16133.423     3410.250        7.958        1.446      357.073       62.612        0.031      336.552        7.928      846.652
12/11/2014  23:31:00     -189.591      283.125      -46.865      124.755      156.978       85.047    15563.851    24642.197     7232.908        8.286        2.372      340.742       97.432        0.082      336.607        8.021      846.612
12/11/2014  23:32:00     -186.957      374.300      -41.586       84.419      152.793       73.753     7126.636    23345.688     5439.471       10.634        1.796      418.394       64.800        0.024      336.527        7.885      846.686
12/11/2014  23:33:00     -194.705      130.417      -42.805      100.884      157.482       64.078    10177.517    24800.644     4105.937        4.791        1.954      234.347       66.967        0.082      336.648        8.088      846.777
12/11/2014  23:34:00     -200.216      281.627      -59.162      108.764       97.736       73.060    11829.684     9552.272     5337.751        7.480        1.336      345.543       62.115        0.032      336.553        7.930      846.811
12/11/2014  23:35:00     -232.205      265.566      -53.388      154.602      195.915       77.790    23901.877    38382.770     6051.275        9.780        3.417      352.767       75.982        0.046      336.558        7.938      846.754
12/11/2014  23:36:00     -160.144      273.134      -40.859      103.586      102.096       69.344    10730.113    10423.675     4808.579        6.393        1.298      316.620       63.155        0.040      336.615        8.034      846.686
12/11/2014  23:37:00     -164.140      290.903      -54.493      101.593      105.079       49.134    10321.138    11041.584     2414.179        6.915        1.189      334.016       50.217        0.023      336.528        7.885      846.557
12/11/2014  23:38:00     -145.995      230.499      -23.366       86.287      140.200       65.646     7445.491    19656.122     4309.446        5.319        1.571      272.845       65.726        0.058      336.538        7.905      846.410
12/11/2014  23:39:00      -51.296      379.294      -32.417      103.111      159.023       71.245    10631.907    25288.382     5075.867        9.426        2.050      382.747       71.784        0.035      336.474        7.795      846.288
12/11/2014  23:40:00      -76.284      359.185      -29.871       75.407      108.914       66.194     5686.234    11862.330     4381.700        7.882        1.097      367.196       61.885        0.028      336.456        7.765      846.227
12/11/2014  23:41:00     -104.789      327.340      -32.558      110.261      149.337       73.662    12157.491    22301.424     5426.060        7.953        1.994      343.703       70.752        0.042      336.525        7.883      846.188
12/11/2014  23:42:00     -153.009      249.284      -18.921      101.253      134.671       71.724    10252.106    18136.314     5144.336        5.972        1.677      292.497       80.553        0.076      336.559        7.939      846.181
12/11/2014  23:43:00     -141.341      307.602      -39.151      104.229      106.165       70.791    10863.679    11270.991     5011.387        7.163        1.357      338.521       65.950        0.038      336.529        7.889      846.237
12/11/2014  23:44:00     -154.834      204.655      -23.773       72.608      112.457       61.890     5271.901    12646.480     3830.413        4.408        1.087      256.627       59.473        0.054      336.555        7.934      846.276
12/11/2014  23:45:00     -258.759      220.100      -52.427       92.061      109.433       58.482     8475.184    11975.526     3420.126        7.101        1.194      339.706       56.502        0.028      336.571        7.957      846.352
12/11/2014  23:46:00     -250.897      226.105      -51.180       91.337      130.439       67.516     8342.501    17014.275     4558.431        7.330        1.496      337.746       58.792        0.030      336.488        7.817      846.508
12/11/2014  23:47:00     -241.028      224.021      -43.470      161.327      128.264       75.553    26026.514    16451.544     5708.253        7.917        2.409      329.060       72.997        0.049      336.479        7.804      846.541
12/11/2014  23:48:00     -222.395      328.411      -55.678       99.874      162.594       76.561     9974.750    26436.743     5861.620       10.133        2.114      396.627       84.018        0.045      336.467        7.783      846.358
12/11/2014  23:49:00     -163.942      303.014      -46.945      121.618      127.577       60.910    14790.874    16276.001     3710.004        7.783        1.739      344.521       55.634        0.026      336.453        7.760      846.274
12/11/2014  23:50:00     -104.916      190.456      -26.160       72.048      120.638       53.937     5190.966    14553.600     2909.206        3.530        1.133      217.441       52.191        0.058      336.495        7.831      846.279
12/11/2014  23:51:00     -177.380      213.021      -48.286       78.111       87.126       51.487     6101.404     7590.922     2650.862        4.775        0.817      277.203       45.994        0.028      336.486        7.815      846.218
12/11/2014  23:52:00     -186.201      293.782      -62.573      118.263       91.142       61.290    13986.173     8306.787     3756.455        7.547        1.302      347.820       67.135        0.037      336.431        7.724      846.162
12/11/2014  23:53:00      -97.256      231.610       -6.746       91.499      142.017       51.955     8372.103    20168.715     2699.362        4.719        1.562      251.201       50.603        0.041      336.515        7.866      846.212
12/11/2014  23:54:00     -201.490      119.178      -30.080      100.581      102.294       56.166    10116.569    10464.123     3154.656        3.972        1.187      234.098       59.577        0.065      336.577        7.968      846.263
12/11/2014  23:55:00     -190.216       52.623      -32.368      135.082      124.403       53.726    18247.192    15476.215     2886.431        3.830        1.830      197.361       75.302        0.146      336.582        7.978      846.276
12/11/2014  23:56:00     -174.817      218.793      -20.915       95.245      104.984       60.554     9071.680    11021.575     3666.728        5.131        1.188      280.056       50.118        0.032      336.531        7.892      846.169
12/11/2014  23:57:00      -81.689       76.740        1.270       61.880       69.797       49.548     3829.166     4871.648     2454.987        1.186        0.558      112.081       35.964        0.103      336.593        8.000      846.158
12/11/2014  23:58:00      -51.067      124.241      -16.241       75.609       78.061       57.015     5716.711     6093.514     3250.728        1.668        0.753      134.327       56.134        0.175      336.639        8.076      846.205
12/11/2014  23:59:00      -35.486       87.465      -10.158       44.046       60.641       32.120     1940.032     3677.343     1031.711        0.783        0.332       94.389       29.319        0.096      336.595        8.004      846.254
